<?xml version="1.0" encoding="UTF-8" standalone="no" ?>
<gpx xmlns="http://www.topografix.com/GPX/1/1" xmlns:xsi="http://www.w3.org/2001/XMLSchema-instance" xsi:schemaLocation="http://www.topografix.com/GPX/1/1 http://www.topografix.com/GPX/1/1/gpx.xsd" version="1.1" creator="VisuGPX - https://www.visugpx.com">
  <metadata>
    <name>vaeVia rt gruissan</name>
  </metadata>
  <trk>
    <name><![CDATA[vaeVia rt gruissan_1]]></name>
    <trkseg>
      <trkpt lat="43.15629" lon="3.05488">
        <ele>4.2</ele>
        <time>2021-08-21T15:33:24Z</time>
      </trkpt>
      <trkpt lat="43.15574" lon="3.05474">
        <ele>4</ele>
        <time>2021-08-21T15:33:33Z</time>
      </trkpt>
      <trkpt lat="43.15568" lon="3.05473">
        <ele>4</ele>
        <time>2021-08-21T15:33:34Z</time>
      </trkpt>
      <trkpt lat="43.1551" lon="3.05453">
        <ele>3.8</ele>
        <time>2021-08-21T15:33:44Z</time>
      </trkpt>
      <trkpt lat="43.15505" lon="3.0545">
        <ele>3.8</ele>
        <time>2021-08-21T15:33:45Z</time>
      </trkpt>
      <trkpt lat="43.15452" lon="3.05426">
        <ele>3.8</ele>
        <time>2021-08-21T15:33:55Z</time>
      </trkpt>
      <trkpt lat="43.15446" lon="3.05423">
        <ele>3.8</ele>
        <time>2021-08-21T15:33:56Z</time>
      </trkpt>
      <trkpt lat="43.15395" lon="3.05393">
        <ele>4.2</ele>
        <time>2021-08-21T15:34:06Z</time>
      </trkpt>
      <trkpt lat="43.15343" lon="3.05361">
        <ele>4</ele>
        <time>2021-08-21T15:34:16Z</time>
      </trkpt>
      <trkpt lat="43.15333" lon="3.05354">
        <ele>4.2</ele>
        <time>2021-08-21T15:34:18Z</time>
      </trkpt>
      <trkpt lat="43.15282" lon="3.05322">
        <ele>4.2</ele>
        <time>2021-08-21T15:34:28Z</time>
      </trkpt>
      <trkpt lat="43.15232" lon="3.0529">
        <ele>4.4</ele>
        <time>2021-08-21T15:34:38Z</time>
      </trkpt>
      <trkpt lat="43.15227" lon="3.05287">
        <ele>4.4</ele>
        <time>2021-08-21T15:34:39Z</time>
      </trkpt>
      <trkpt lat="43.15177" lon="3.05255">
        <ele>4.4</ele>
        <time>2021-08-21T15:34:49Z</time>
      </trkpt>
      <trkpt lat="43.15172" lon="3.05253">
        <ele>4.6</ele>
        <time>2021-08-21T15:34:50Z</time>
      </trkpt>
      <trkpt lat="43.1512" lon="3.05226">
        <ele>4.8</ele>
        <time>2021-08-21T15:35:00Z</time>
      </trkpt>
      <trkpt lat="43.1511" lon="3.05222">
        <ele>4.8</ele>
        <time>2021-08-21T15:35:02Z</time>
      </trkpt>
      <trkpt lat="43.15056" lon="3.05209">
        <ele>4.8</ele>
        <time>2021-08-21T15:35:12Z</time>
      </trkpt>
      <trkpt lat="43.15045" lon="3.05207">
        <ele>4.8</ele>
        <time>2021-08-21T15:35:14Z</time>
      </trkpt>
      <trkpt lat="43.14998" lon="3.05206">
        <ele>5</ele>
        <time>2021-08-21T15:35:23Z</time>
      </trkpt>
      <trkpt lat="43.14948" lon="3.0521">
        <ele>5</ele>
        <time>2021-08-21T15:35:32Z</time>
      </trkpt>
      <trkpt lat="43.149" lon="3.05214">
        <ele>4.6</ele>
        <time>2021-08-21T15:35:41Z</time>
      </trkpt>
      <trkpt lat="43.14846" lon="3.05214">
        <ele>5.2</ele>
        <time>2021-08-21T15:35:51Z</time>
      </trkpt>
      <trkpt lat="43.14792" lon="3.05203">
        <ele>6.2</ele>
        <time>2021-08-21T15:36:01Z</time>
      </trkpt>
      <trkpt lat="43.14786" lon="3.05201">
        <ele>6.4</ele>
        <time>2021-08-21T15:36:02Z</time>
      </trkpt>
      <trkpt lat="43.14743" lon="3.05184">
        <ele>7.4</ele>
        <time>2021-08-21T15:36:10Z</time>
      </trkpt>
      <trkpt lat="43.14732" lon="3.05179">
        <ele>7.6</ele>
        <time>2021-08-21T15:36:12Z</time>
      </trkpt>
      <trkpt lat="43.14682" lon="3.05157">
        <ele>8.6</ele>
        <time>2021-08-21T15:36:21Z</time>
      </trkpt>
      <trkpt lat="43.14665" lon="3.0515">
        <ele>8.6</ele>
        <time>2021-08-21T15:36:24Z</time>
      </trkpt>
      <trkpt lat="43.14616" lon="3.05128">
        <ele>8.4</ele>
        <time>2021-08-21T15:36:33Z</time>
      </trkpt>
      <trkpt lat="43.14564" lon="3.05105">
        <ele>7.6</ele>
        <time>2021-08-21T15:36:42Z</time>
      </trkpt>
      <trkpt lat="43.14558" lon="3.05103">
        <ele>7.4</ele>
        <time>2021-08-21T15:36:43Z</time>
      </trkpt>
      <trkpt lat="43.14553" lon="3.051">
        <ele>7.2</ele>
        <time>2021-08-21T15:36:44Z</time>
      </trkpt>
      <trkpt lat="43.14505" lon="3.05082">
        <ele>6.4</ele>
        <time>2021-08-21T15:36:52Z</time>
      </trkpt>
      <trkpt lat="43.14488" lon="3.05077">
        <ele>6.2</ele>
        <time>2021-08-21T15:36:55Z</time>
      </trkpt>
      <trkpt lat="43.14443" lon="3.05068">
        <ele>5.6</ele>
        <time>2021-08-21T15:37:03Z</time>
      </trkpt>
      <trkpt lat="43.14422" lon="3.05067">
        <ele>5.2</ele>
        <time>2021-08-21T15:37:07Z</time>
      </trkpt>
      <trkpt lat="43.14401" lon="3.05068">
        <ele>5.2</ele>
        <time>2021-08-21T15:37:11Z</time>
      </trkpt>
      <trkpt lat="43.14352" lon="3.05074">
        <ele>5</ele>
        <time>2021-08-21T15:37:20Z</time>
      </trkpt>
      <trkpt lat="43.14297" lon="3.0509">
        <ele>5.4</ele>
        <time>2021-08-21T15:37:30Z</time>
      </trkpt>
      <trkpt lat="43.14242" lon="3.05109">
        <ele>5.2</ele>
        <time>2021-08-21T15:37:40Z</time>
      </trkpt>
      <trkpt lat="43.142" lon="3.05125">
        <ele>5</ele>
        <time>2021-08-21T15:37:48Z</time>
      </trkpt>
      <trkpt lat="43.14174" lon="3.05134">
        <ele>5.2</ele>
        <time>2021-08-21T15:37:53Z</time>
      </trkpt>
      <trkpt lat="43.14148" lon="3.05143">
        <ele>5</ele>
        <time>2021-08-21T15:37:58Z</time>
      </trkpt>
      <trkpt lat="43.14091" lon="3.05162">
        <ele>4.6</ele>
        <time>2021-08-21T15:38:09Z</time>
      </trkpt>
      <trkpt lat="43.14086" lon="3.05164">
        <ele>4.6</ele>
        <time>2021-08-21T15:38:10Z</time>
      </trkpt>
      <trkpt lat="43.14034" lon="3.05178">
        <ele>5</ele>
        <time>2021-08-21T15:38:20Z</time>
      </trkpt>
      <trkpt lat="43.14013" lon="3.05181">
        <ele>5</ele>
        <time>2021-08-21T15:38:24Z</time>
      </trkpt>
      <trkpt lat="43.13996" lon="3.05179">
        <ele>5</ele>
        <time>2021-08-21T15:38:27Z</time>
      </trkpt>
      <trkpt lat="43.13947" lon="3.05178">
        <ele>5.2</ele>
        <time>2021-08-21T15:38:36Z</time>
      </trkpt>
      <trkpt lat="43.13888" lon="3.05182">
        <ele>5.6</ele>
        <time>2021-08-21T15:38:47Z</time>
      </trkpt>
      <trkpt lat="43.13845" lon="3.05195">
        <ele>5</ele>
        <time>2021-08-21T15:38:55Z</time>
      </trkpt>
      <trkpt lat="43.13826" lon="3.05205">
        <ele>4.8</ele>
        <time>2021-08-21T15:38:59Z</time>
      </trkpt>
      <trkpt lat="43.13819" lon="3.05206">
        <ele>4.8</ele>
        <time>2021-08-21T15:39:01Z</time>
      </trkpt>
      <trkpt lat="43.13801" lon="3.0521">
        <ele>4.4</ele>
        <time>2021-08-21T15:39:07Z</time>
      </trkpt>
      <trkpt lat="43.13791" lon="3.0521">
        <ele>4.2</ele>
        <time>2021-08-21T15:39:10Z</time>
      </trkpt>
      <trkpt lat="43.13778" lon="3.05211">
        <ele>4.2</ele>
        <time>2021-08-21T15:39:14Z</time>
      </trkpt>
      <trkpt lat="43.13748" lon="3.05214">
        <ele>3.8</ele>
        <time>2021-08-21T15:39:22Z</time>
      </trkpt>
      <trkpt lat="43.13707" lon="3.05218">
        <ele>3.4</ele>
        <time>2021-08-21T15:39:32Z</time>
      </trkpt>
      <trkpt lat="43.13669" lon="3.05221">
        <ele>3.4</ele>
        <time>2021-08-21T15:39:42Z</time>
      </trkpt>
      <trkpt lat="43.13632" lon="3.05225">
        <ele>3.2</ele>
        <time>2021-08-21T15:39:52Z</time>
      </trkpt>
      <trkpt lat="43.13598" lon="3.05228">
        <ele>3.6</ele>
        <time>2021-08-21T15:40:02Z</time>
      </trkpt>
      <trkpt lat="43.1358" lon="3.05229">
        <ele>3.8</ele>
        <time>2021-08-21T15:40:08Z</time>
      </trkpt>
      <trkpt lat="43.1356" lon="3.05231">
        <ele>4</ele>
        <time>2021-08-21T15:40:14Z</time>
      </trkpt>
      <trkpt lat="43.13527" lon="3.05234">
        <ele>4.2</ele>
        <time>2021-08-21T15:40:22Z</time>
      </trkpt>
      <trkpt lat="43.13493" lon="3.05238">
        <ele>4.2</ele>
        <time>2021-08-21T15:40:31Z</time>
      </trkpt>
      <trkpt lat="43.13455" lon="3.05244">
        <ele>4.4</ele>
        <time>2021-08-21T15:40:41Z</time>
      </trkpt>
      <trkpt lat="43.13415" lon="3.05252">
        <ele>5</ele>
        <time>2021-08-21T15:40:51Z</time>
      </trkpt>
      <trkpt lat="43.13387" lon="3.05261">
        <ele>4.8</ele>
        <time>2021-08-21T15:40:59Z</time>
      </trkpt>
      <trkpt lat="43.13375" lon="3.05271">
        <ele>5.2</ele>
        <time>2021-08-21T15:41:04Z</time>
      </trkpt>
      <trkpt lat="43.13376" lon="3.05277">
        <ele>5.2</ele>
        <time>2021-08-21T15:41:05Z</time>
      </trkpt>
      <trkpt lat="43.13383" lon="3.05277">
        <ele>5.2</ele>
        <time>2021-08-21T15:41:07Z</time>
      </trkpt>
      <trkpt lat="43.13392" lon="3.05272">
        <ele>5.2</ele>
        <time>2021-08-21T15:41:09Z</time>
      </trkpt>
      <trkpt lat="43.13398" lon="3.0527">
        <ele>5</ele>
        <time>2021-08-21T15:41:10Z</time>
      </trkpt>
      <trkpt lat="43.13438" lon="3.05259">
        <ele>4.4</ele>
        <time>2021-08-21T15:41:17Z</time>
      </trkpt>
      <trkpt lat="43.13491" lon="3.0525">
        <ele>4.2</ele>
        <time>2021-08-21T15:41:26Z</time>
      </trkpt>
      <trkpt lat="43.13549" lon="3.05244">
        <ele>3.8</ele>
        <time>2021-08-21T15:41:36Z</time>
      </trkpt>
      <trkpt lat="43.13555" lon="3.05244">
        <ele>3.8</ele>
        <time>2021-08-21T15:41:37Z</time>
      </trkpt>
      <trkpt lat="43.13588" lon="3.05249">
        <ele>3.6</ele>
        <time>2021-08-21T15:41:43Z</time>
      </trkpt>
      <trkpt lat="43.13614" lon="3.05255">
        <ele>3.2</ele>
        <time>2021-08-21T15:41:48Z</time>
      </trkpt>
      <trkpt lat="43.13623" lon="3.05257">
        <ele>3.2</ele>
        <time>2021-08-21T15:41:50Z</time>
      </trkpt>
      <trkpt lat="43.13643" lon="3.0526">
        <ele>2.8</ele>
        <time>2021-08-21T15:41:54Z</time>
      </trkpt>
      <trkpt lat="43.13658" lon="3.05264">
        <ele>2.8</ele>
        <time>2021-08-21T15:41:57Z</time>
      </trkpt>
      <trkpt lat="43.13685" lon="3.05267">
        <ele>2.8</ele>
        <time>2021-08-21T15:42:03Z</time>
      </trkpt>
      <trkpt lat="43.1369" lon="3.05272">
        <ele>2.6</ele>
        <time>2021-08-21T15:42:06Z</time>
      </trkpt>
      <trkpt lat="43.13691" lon="3.05277">
        <ele>2.4</ele>
        <time>2021-08-21T15:42:11Z</time>
      </trkpt>
      <trkpt lat="43.1369" lon="3.05278">
        <ele>2.6</ele>
        <time>2021-08-21T15:42:13Z</time>
      </trkpt>
      <trkpt lat="43.13689" lon="3.05279">
        <ele>2.8</ele>
        <time>2021-08-21T15:42:16Z</time>
      </trkpt>
      <trkpt lat="43.13689" lon="3.05281">
        <ele>2.8</ele>
        <time>2021-08-21T15:42:17Z</time>
      </trkpt>
      <trkpt lat="43.13686" lon="3.05292">
        <ele>2.6</ele>
        <time>2021-08-21T15:42:21Z</time>
      </trkpt>
      <trkpt lat="43.13678" lon="3.05328">
        <ele>2.4</ele>
        <time>2021-08-21T15:42:30Z</time>
      </trkpt>
      <trkpt lat="43.13669" lon="3.05365">
        <ele>2.6</ele>
        <time>2021-08-21T15:42:39Z</time>
      </trkpt>
      <trkpt lat="43.1366" lon="3.05405">
        <ele>2.6</ele>
        <time>2021-08-21T15:42:48Z</time>
      </trkpt>
      <trkpt lat="43.13652" lon="3.05443">
        <ele>2.8</ele>
        <time>2021-08-21T15:42:57Z</time>
      </trkpt>
      <trkpt lat="43.13646" lon="3.0548">
        <ele>3.2</ele>
        <time>2021-08-21T15:43:06Z</time>
      </trkpt>
      <trkpt lat="43.13646" lon="3.05512">
        <ele>4</ele>
        <time>2021-08-21T15:43:14Z</time>
      </trkpt>
      <trkpt lat="43.13647" lon="3.05516">
        <ele>4.2</ele>
        <time>2021-08-21T15:43:15Z</time>
      </trkpt>
      <trkpt lat="43.13656" lon="3.05527">
        <ele>4.8</ele>
        <time>2021-08-21T15:43:19Z</time>
      </trkpt>
      <trkpt lat="43.13664" lon="3.05534">
        <ele>5.6</ele>
        <time>2021-08-21T15:43:22Z</time>
      </trkpt>
      <trkpt lat="43.13672" lon="3.05537">
        <ele>6.2</ele>
        <time>2021-08-21T15:43:25Z</time>
      </trkpt>
      <trkpt lat="43.13675" lon="3.05537">
        <ele>6.8</ele>
        <time>2021-08-21T15:43:26Z</time>
      </trkpt>
      <trkpt lat="43.13686" lon="3.05531">
        <ele>8</ele>
        <time>2021-08-21T15:43:30Z</time>
      </trkpt>
      <trkpt lat="43.13696" lon="3.05519">
        <ele>9.4</ele>
        <time>2021-08-21T15:43:34Z</time>
      </trkpt>
      <trkpt lat="43.137" lon="3.05513">
        <ele>10.2</ele>
        <time>2021-08-21T15:43:36Z</time>
      </trkpt>
      <trkpt lat="43.13702" lon="3.0551">
        <ele>10.4</ele>
        <time>2021-08-21T15:43:37Z</time>
      </trkpt>
      <trkpt lat="43.13713" lon="3.05492">
        <ele>11.6</ele>
        <time>2021-08-21T15:43:43Z</time>
      </trkpt>
      <trkpt lat="43.13722" lon="3.05479">
        <ele>12.4</ele>
        <time>2021-08-21T15:43:47Z</time>
      </trkpt>
      <trkpt lat="43.13724" lon="3.05476">
        <ele>12.6</ele>
        <time>2021-08-21T15:43:48Z</time>
      </trkpt>
      <trkpt lat="43.13731" lon="3.05462">
        <ele>14</ele>
        <time>2021-08-21T15:43:52Z</time>
      </trkpt>
      <trkpt lat="43.13735" lon="3.05456">
        <ele>14.8</ele>
        <time>2021-08-21T15:43:54Z</time>
      </trkpt>
      <trkpt lat="43.13737" lon="3.05453">
        <ele>15.2</ele>
        <time>2021-08-21T15:43:55Z</time>
      </trkpt>
      <trkpt lat="43.13743" lon="3.05445">
        <ele>16.4</ele>
        <time>2021-08-21T15:43:58Z</time>
      </trkpt>
      <trkpt lat="43.13752" lon="3.0544">
        <ele>17.4</ele>
        <time>2021-08-21T15:44:01Z</time>
      </trkpt>
      <trkpt lat="43.13763" lon="3.05435">
        <ele>18.6</ele>
        <time>2021-08-21T15:44:05Z</time>
      </trkpt>
      <trkpt lat="43.13772" lon="3.05433">
        <ele>19.6</ele>
        <time>2021-08-21T15:44:08Z</time>
      </trkpt>
      <trkpt lat="43.13787" lon="3.05432">
        <ele>20.8</ele>
        <time>2021-08-21T15:44:13Z</time>
      </trkpt>
      <trkpt lat="43.13797" lon="3.05433">
        <ele>21.6</ele>
        <time>2021-08-21T15:44:16Z</time>
      </trkpt>
      <trkpt lat="43.138" lon="3.05434">
        <ele>21.8</ele>
        <time>2021-08-21T15:44:17Z</time>
      </trkpt>
      <trkpt lat="43.13812" lon="3.0544">
        <ele>23</ele>
        <time>2021-08-21T15:44:21Z</time>
      </trkpt>
      <trkpt lat="43.13814" lon="3.05442">
        <ele>23.2</ele>
        <time>2021-08-21T15:44:22Z</time>
      </trkpt>
      <trkpt lat="43.1382" lon="3.05451">
        <ele>24.2</ele>
        <time>2021-08-21T15:44:25Z</time>
      </trkpt>
      <trkpt lat="43.13822" lon="3.05458">
        <ele>25</ele>
        <time>2021-08-21T15:44:27Z</time>
      </trkpt>
      <trkpt lat="43.13823" lon="3.05462">
        <ele>25.4</ele>
        <time>2021-08-21T15:44:28Z</time>
      </trkpt>
      <trkpt lat="43.13827" lon="3.05477">
        <ele>26.6</ele>
        <time>2021-08-21T15:44:32Z</time>
      </trkpt>
      <trkpt lat="43.13832" lon="3.05486">
        <ele>27.2</ele>
        <time>2021-08-21T15:44:35Z</time>
      </trkpt>
      <trkpt lat="43.13835" lon="3.05492">
        <ele>27.6</ele>
        <time>2021-08-21T15:44:37Z</time>
      </trkpt>
      <trkpt lat="43.13839" lon="3.05502">
        <ele>28.6</ele>
        <time>2021-08-21T15:44:40Z</time>
      </trkpt>
      <trkpt lat="43.13842" lon="3.05512">
        <ele>29.4</ele>
        <time>2021-08-21T15:44:43Z</time>
      </trkpt>
      <trkpt lat="43.13844" lon="3.05519">
        <ele>29.6</ele>
        <time>2021-08-21T15:44:45Z</time>
      </trkpt>
      <trkpt lat="43.13848" lon="3.05542">
        <ele>30.6</ele>
        <time>2021-08-21T15:44:51Z</time>
      </trkpt>
      <trkpt lat="43.13848" lon="3.05551">
        <ele>30.8</ele>
        <time>2021-08-21T15:44:53Z</time>
      </trkpt>
      <trkpt lat="43.13848" lon="3.05571">
        <ele>31.8</ele>
        <time>2021-08-21T15:44:58Z</time>
      </trkpt>
      <trkpt lat="43.13848" lon="3.05576">
        <ele>32</ele>
        <time>2021-08-21T15:44:59Z</time>
      </trkpt>
      <trkpt lat="43.13846" lon="3.05593">
        <ele>33</ele>
        <time>2021-08-21T15:45:03Z</time>
      </trkpt>
      <trkpt lat="43.13847" lon="3.05611">
        <ele>33.4</ele>
        <time>2021-08-21T15:45:06Z</time>
      </trkpt>
      <trkpt lat="43.13851" lon="3.0563">
        <ele>34.2</ele>
        <time>2021-08-21T15:45:10Z</time>
      </trkpt>
      <trkpt lat="43.13854" lon="3.05638">
        <ele>34.8</ele>
        <time>2021-08-21T15:45:12Z</time>
      </trkpt>
      <trkpt lat="43.13856" lon="3.05642">
        <ele>35.2</ele>
        <time>2021-08-21T15:45:13Z</time>
      </trkpt>
      <trkpt lat="43.13858" lon="3.05654">
        <ele>36.2</ele>
        <time>2021-08-21T15:45:16Z</time>
      </trkpt>
      <trkpt lat="43.13858" lon="3.05658">
        <ele>36.6</ele>
        <time>2021-08-21T15:45:17Z</time>
      </trkpt>
      <trkpt lat="43.13858" lon="3.05667">
        <ele>37.4</ele>
        <time>2021-08-21T15:45:19Z</time>
      </trkpt>
      <trkpt lat="43.13863" lon="3.05684">
        <ele>38.6</ele>
        <time>2021-08-21T15:45:23Z</time>
      </trkpt>
      <trkpt lat="43.13865" lon="3.05698">
        <ele>39.8</ele>
        <time>2021-08-21T15:45:26Z</time>
      </trkpt>
      <trkpt lat="43.13867" lon="3.05706">
        <ele>41</ele>
        <time>2021-08-21T15:45:28Z</time>
      </trkpt>
      <trkpt lat="43.13868" lon="3.05715">
        <ele>41.8</ele>
        <time>2021-08-21T15:45:30Z</time>
      </trkpt>
      <trkpt lat="43.13869" lon="3.05719">
        <ele>42</ele>
        <time>2021-08-21T15:45:31Z</time>
      </trkpt>
      <trkpt lat="43.13874" lon="3.05736">
        <ele>43.2</ele>
        <time>2021-08-21T15:45:35Z</time>
      </trkpt>
      <trkpt lat="43.13876" lon="3.0574">
        <ele>43.6</ele>
        <time>2021-08-21T15:45:36Z</time>
      </trkpt>
      <trkpt lat="43.13878" lon="3.05748">
        <ele>44.4</ele>
        <time>2021-08-21T15:45:38Z</time>
      </trkpt>
      <trkpt lat="43.1388" lon="3.05761">
        <ele>45.6</ele>
        <time>2021-08-21T15:45:41Z</time>
      </trkpt>
      <trkpt lat="43.13882" lon="3.05769">
        <ele>46</ele>
        <time>2021-08-21T15:45:43Z</time>
      </trkpt>
      <trkpt lat="43.13888" lon="3.0578">
        <ele>46.8</ele>
        <time>2021-08-21T15:45:46Z</time>
      </trkpt>
      <trkpt lat="43.13893" lon="3.05792">
        <ele>47.8</ele>
        <time>2021-08-21T15:45:49Z</time>
      </trkpt>
      <trkpt lat="43.13897" lon="3.05799">
        <ele>49</ele>
        <time>2021-08-21T15:45:51Z</time>
      </trkpt>
      <trkpt lat="43.13902" lon="3.0581">
        <ele>50.6</ele>
        <time>2021-08-21T15:45:54Z</time>
      </trkpt>
      <trkpt lat="43.13906" lon="3.05818">
        <ele>51.4</ele>
        <time>2021-08-21T15:45:56Z</time>
      </trkpt>
      <trkpt lat="43.13907" lon="3.05822">
        <ele>51.6</ele>
        <time>2021-08-21T15:45:57Z</time>
      </trkpt>
      <trkpt lat="43.13912" lon="3.05837">
        <ele>52.8</ele>
        <time>2021-08-21T15:46:01Z</time>
      </trkpt>
      <trkpt lat="43.13913" lon="3.05844">
        <ele>53.2</ele>
        <time>2021-08-21T15:46:03Z</time>
      </trkpt>
      <trkpt lat="43.13912" lon="3.05878">
        <ele>53.6</ele>
        <time>2021-08-21T15:46:10Z</time>
      </trkpt>
      <trkpt lat="43.13905" lon="3.05914">
        <ele>51.4</ele>
        <time>2021-08-21T15:46:15Z</time>
      </trkpt>
      <trkpt lat="43.13902" lon="3.05928">
        <ele>50.2</ele>
        <time>2021-08-21T15:46:17Z</time>
      </trkpt>
      <trkpt lat="43.13899" lon="3.05946">
        <ele>49.4</ele>
        <time>2021-08-21T15:46:20Z</time>
      </trkpt>
      <trkpt lat="43.13895" lon="3.05965">
        <ele>49.6</ele>
        <time>2021-08-21T15:46:25Z</time>
      </trkpt>
      <trkpt lat="43.13889" lon="3.05997">
        <ele>50.4</ele>
        <time>2021-08-21T15:46:33Z</time>
      </trkpt>
      <trkpt lat="43.13882" lon="3.06028">
        <ele>50.6</ele>
        <time>2021-08-21T15:46:40Z</time>
      </trkpt>
      <trkpt lat="43.13875" lon="3.06064">
        <ele>50.4</ele>
        <time>2021-08-21T15:46:48Z</time>
      </trkpt>
      <trkpt lat="43.13871" lon="3.06079">
        <ele>51</ele>
        <time>2021-08-21T15:46:53Z</time>
      </trkpt>
      <trkpt lat="43.13871" lon="3.06079">
        <ele>51.4</ele>
        <time>2021-08-21T15:46:57Z</time>
      </trkpt>
      <trkpt lat="43.13871" lon="3.06079">
        <ele>51.8</ele>
        <time>2021-08-21T15:47:01Z</time>
      </trkpt>
      <trkpt lat="43.13871" lon="3.06084">
        <ele>51.8</ele>
        <time>2021-08-21T15:47:06Z</time>
      </trkpt>
      <trkpt lat="43.13873" lon="3.0609">
        <ele>52</ele>
        <time>2021-08-21T15:47:08Z</time>
      </trkpt>
      <trkpt lat="43.13878" lon="3.06093">
        <ele>52</ele>
        <time>2021-08-21T15:47:10Z</time>
      </trkpt>
      <trkpt lat="43.13884" lon="3.06095">
        <ele>52.4</ele>
        <time>2021-08-21T15:47:12Z</time>
      </trkpt>
      <trkpt lat="43.13897" lon="3.06102">
        <ele>53.6</ele>
        <time>2021-08-21T15:47:17Z</time>
      </trkpt>
      <trkpt lat="43.139" lon="3.06103">
        <ele>53.8</ele>
        <time>2021-08-21T15:47:18Z</time>
      </trkpt>
      <trkpt lat="43.13914" lon="3.06113">
        <ele>54.8</ele>
        <time>2021-08-21T15:47:24Z</time>
      </trkpt>
      <trkpt lat="43.1392" lon="3.06114">
        <ele>55.2</ele>
        <time>2021-08-21T15:47:26Z</time>
      </trkpt>
      <trkpt lat="43.13925" lon="3.06115">
        <ele>56</ele>
        <time>2021-08-21T15:47:28Z</time>
      </trkpt>
      <trkpt lat="43.13933" lon="3.06111">
        <ele>57.2</ele>
        <time>2021-08-21T15:47:32Z</time>
      </trkpt>
      <trkpt lat="43.13938" lon="3.06097">
        <ele>58.6</ele>
        <time>2021-08-21T15:47:36Z</time>
      </trkpt>
      <trkpt lat="43.13942" lon="3.06092">
        <ele>59.2</ele>
        <time>2021-08-21T15:47:38Z</time>
      </trkpt>
      <trkpt lat="43.13948" lon="3.06088">
        <ele>59.6</ele>
        <time>2021-08-21T15:47:41Z</time>
      </trkpt>
      <trkpt lat="43.13954" lon="3.06086">
        <ele>60.4</ele>
        <time>2021-08-21T15:47:44Z</time>
      </trkpt>
      <trkpt lat="43.13956" lon="3.06085">
        <ele>60.8</ele>
        <time>2021-08-21T15:47:45Z</time>
      </trkpt>
      <trkpt lat="43.13964" lon="3.06084">
        <ele>62</ele>
        <time>2021-08-21T15:47:49Z</time>
      </trkpt>
      <trkpt lat="43.13969" lon="3.06084">
        <ele>63.2</ele>
        <time>2021-08-21T15:47:51Z</time>
      </trkpt>
      <trkpt lat="43.13975" lon="3.06088">
        <ele>64.6</ele>
        <time>2021-08-21T15:47:54Z</time>
      </trkpt>
      <trkpt lat="43.1398" lon="3.06094">
        <ele>65.8</ele>
        <time>2021-08-21T15:47:57Z</time>
      </trkpt>
      <trkpt lat="43.13985" lon="3.06098">
        <ele>67</ele>
        <time>2021-08-21T15:48:00Z</time>
      </trkpt>
      <trkpt lat="43.13991" lon="3.061">
        <ele>68.2</ele>
        <time>2021-08-21T15:48:03Z</time>
      </trkpt>
      <trkpt lat="43.13996" lon="3.06102">
        <ele>69.4</ele>
        <time>2021-08-21T15:48:06Z</time>
      </trkpt>
      <trkpt lat="43.14001" lon="3.06102">
        <ele>70.8</ele>
        <time>2021-08-21T15:48:09Z</time>
      </trkpt>
      <trkpt lat="43.14006" lon="3.06102">
        <ele>71.4</ele>
        <time>2021-08-21T15:48:11Z</time>
      </trkpt>
      <trkpt lat="43.1401" lon="3.06103">
        <ele>72</ele>
        <time>2021-08-21T15:48:13Z</time>
      </trkpt>
      <trkpt lat="43.1402" lon="3.06106">
        <ele>73.2</ele>
        <time>2021-08-21T15:48:18Z</time>
      </trkpt>
      <trkpt lat="43.14026" lon="3.06109">
        <ele>74.4</ele>
        <time>2021-08-21T15:48:21Z</time>
      </trkpt>
      <trkpt lat="43.14032" lon="3.06113">
        <ele>75.4</ele>
        <time>2021-08-21T15:48:24Z</time>
      </trkpt>
      <trkpt lat="43.14033" lon="3.06114">
        <ele>75.8</ele>
        <time>2021-08-21T15:48:25Z</time>
      </trkpt>
      <trkpt lat="43.14037" lon="3.06119">
        <ele>76.4</ele>
        <time>2021-08-21T15:48:27Z</time>
      </trkpt>
      <trkpt lat="43.14043" lon="3.06127">
        <ele>77.6</ele>
        <time>2021-08-21T15:48:31Z</time>
      </trkpt>
      <trkpt lat="43.14048" lon="3.06137">
        <ele>78.8</ele>
        <time>2021-08-21T15:48:35Z</time>
      </trkpt>
      <trkpt lat="43.14054" lon="3.06146">
        <ele>80.2</ele>
        <time>2021-08-21T15:48:39Z</time>
      </trkpt>
      <trkpt lat="43.14059" lon="3.06155">
        <ele>81.4</ele>
        <time>2021-08-21T15:48:43Z</time>
      </trkpt>
      <trkpt lat="43.14064" lon="3.06163">
        <ele>82.6</ele>
        <time>2021-08-21T15:48:47Z</time>
      </trkpt>
      <trkpt lat="43.14064" lon="3.06166">
        <ele>82.8</ele>
        <time>2021-08-21T15:48:48Z</time>
      </trkpt>
      <trkpt lat="43.14062" lon="3.06171">
        <ele>83.4</ele>
        <time>2021-08-21T15:48:51Z</time>
      </trkpt>
      <trkpt lat="43.14059" lon="3.06174">
        <ele>83.6</ele>
        <time>2021-08-21T15:48:53Z</time>
      </trkpt>
      <trkpt lat="43.14057" lon="3.06179">
        <ele>83.8</ele>
        <time>2021-08-21T15:48:55Z</time>
      </trkpt>
      <trkpt lat="43.14058" lon="3.06182">
        <ele>83.8</ele>
        <time>2021-08-21T15:48:56Z</time>
      </trkpt>
      <trkpt lat="43.14064" lon="3.0619">
        <ele>83.8</ele>
        <time>2021-08-21T15:49:01Z</time>
      </trkpt>
      <trkpt lat="43.14078" lon="3.06196">
        <ele>84.6</ele>
        <time>2021-08-21T15:49:08Z</time>
      </trkpt>
      <trkpt lat="43.14081" lon="3.06197">
        <ele>84.8</ele>
        <time>2021-08-21T15:49:09Z</time>
      </trkpt>
      <trkpt lat="43.14094" lon="3.06204">
        <ele>85.8</ele>
        <time>2021-08-21T15:49:15Z</time>
      </trkpt>
      <trkpt lat="43.14098" lon="3.06204">
        <ele>86.2</ele>
        <time>2021-08-21T15:49:17Z</time>
      </trkpt>
      <trkpt lat="43.1411" lon="3.06201">
        <ele>86.8</ele>
        <time>2021-08-21T15:49:22Z</time>
      </trkpt>
      <trkpt lat="43.14116" lon="3.06197">
        <ele>87.4</ele>
        <time>2021-08-21T15:49:25Z</time>
      </trkpt>
      <trkpt lat="43.1412" lon="3.06196">
        <ele>88</ele>
        <time>2021-08-21T15:49:27Z</time>
      </trkpt>
      <trkpt lat="43.14133" lon="3.0619">
        <ele>88.6</ele>
        <time>2021-08-21T15:49:32Z</time>
      </trkpt>
      <trkpt lat="43.14138" lon="3.06188">
        <ele>89</ele>
        <time>2021-08-21T15:49:34Z</time>
      </trkpt>
      <trkpt lat="43.14153" lon="3.06182">
        <ele>90</ele>
        <time>2021-08-21T15:49:40Z</time>
      </trkpt>
      <trkpt lat="43.14177" lon="3.06171">
        <ele>91.2</ele>
        <time>2021-08-21T15:49:49Z</time>
      </trkpt>
      <trkpt lat="43.14189" lon="3.06156">
        <ele>91.6</ele>
        <time>2021-08-21T15:49:55Z</time>
      </trkpt>
      <trkpt lat="43.14193" lon="3.0615">
        <ele>92.2</ele>
        <time>2021-08-21T15:49:58Z</time>
      </trkpt>
      <trkpt lat="43.14194" lon="3.06149">
        <ele>92.4</ele>
        <time>2021-08-21T15:50:00Z</time>
      </trkpt>
      <trkpt lat="43.14194" lon="3.06149">
        <ele>92.8</ele>
        <time>2021-08-21T15:50:11Z</time>
      </trkpt>
      <trkpt lat="43.14195" lon="3.06149">
        <ele>92.8</ele>
        <time>2021-08-21T15:50:17Z</time>
      </trkpt>
      <trkpt lat="43.14198" lon="3.06149">
        <ele>92.8</ele>
        <time>2021-08-21T15:50:19Z</time>
      </trkpt>
      <trkpt lat="43.14203" lon="3.06149">
        <ele>92.6</ele>
        <time>2021-08-21T15:50:21Z</time>
      </trkpt>
      <trkpt lat="43.14213" lon="3.06147">
        <ele>92.6</ele>
        <time>2021-08-21T15:50:25Z</time>
      </trkpt>
      <trkpt lat="43.14234" lon="3.06147">
        <ele>92.4</ele>
        <time>2021-08-21T15:50:31Z</time>
      </trkpt>
      <trkpt lat="43.14251" lon="3.06144">
        <ele>91.8</ele>
        <time>2021-08-21T15:50:36Z</time>
      </trkpt>
      <trkpt lat="43.14281" lon="3.06125">
        <ele>91.4</ele>
        <time>2021-08-21T15:50:45Z</time>
      </trkpt>
      <trkpt lat="43.14284" lon="3.06123">
        <ele>91.2</ele>
        <time>2021-08-21T15:50:46Z</time>
      </trkpt>
      <trkpt lat="43.14294" lon="3.06117">
        <ele>90.6</ele>
        <time>2021-08-21T15:50:50Z</time>
      </trkpt>
      <trkpt lat="43.14296" lon="3.06117">
        <ele>90.4</ele>
        <time>2021-08-21T15:50:54Z</time>
      </trkpt>
      <trkpt lat="43.14296" lon="3.06117">
        <ele>90.2</ele>
        <time>2021-08-21T15:51:02Z</time>
      </trkpt>
      <trkpt lat="43.14296" lon="3.06117">
        <ele>90.6</ele>
        <time>2021-08-21T15:51:09Z</time>
      </trkpt>
      <trkpt lat="43.14297" lon="3.06119">
        <ele>90.8</ele>
        <time>2021-08-21T15:51:12Z</time>
      </trkpt>
      <trkpt lat="43.14298" lon="3.06123">
        <ele>90.6</ele>
        <time>2021-08-21T15:51:13Z</time>
      </trkpt>
      <trkpt lat="43.14298" lon="3.06138">
        <ele>89.6</ele>
        <time>2021-08-21T15:51:19Z</time>
      </trkpt>
      <trkpt lat="43.14296" lon="3.06147">
        <ele>89.2</ele>
        <time>2021-08-21T15:51:22Z</time>
      </trkpt>
      <trkpt lat="43.14295" lon="3.06154">
        <ele>88.6</ele>
        <time>2021-08-21T15:51:24Z</time>
      </trkpt>
      <trkpt lat="43.14295" lon="3.06162">
        <ele>88</ele>
        <time>2021-08-21T15:51:26Z</time>
      </trkpt>
      <trkpt lat="43.14294" lon="3.06178">
        <ele>86.6</ele>
        <time>2021-08-21T15:51:29Z</time>
      </trkpt>
      <trkpt lat="43.14293" lon="3.06184">
        <ele>86.2</ele>
        <time>2021-08-21T15:51:30Z</time>
      </trkpt>
      <trkpt lat="43.14291" lon="3.06195">
        <ele>85.4</ele>
        <time>2021-08-21T15:51:32Z</time>
      </trkpt>
      <trkpt lat="43.14289" lon="3.0621">
        <ele>84</ele>
        <time>2021-08-21T15:51:35Z</time>
      </trkpt>
      <trkpt lat="43.14288" lon="3.06215">
        <ele>83.8</ele>
        <time>2021-08-21T15:51:36Z</time>
      </trkpt>
      <trkpt lat="43.14287" lon="3.06226">
        <ele>83</ele>
        <time>2021-08-21T15:51:38Z</time>
      </trkpt>
      <trkpt lat="43.14285" lon="3.06242">
        <ele>81.8</ele>
        <time>2021-08-21T15:51:41Z</time>
      </trkpt>
      <trkpt lat="43.14283" lon="3.06254">
        <ele>80.8</ele>
        <time>2021-08-21T15:51:43Z</time>
      </trkpt>
      <trkpt lat="43.14283" lon="3.0626">
        <ele>80.2</ele>
        <time>2021-08-21T15:51:44Z</time>
      </trkpt>
      <trkpt lat="43.14284" lon="3.06266">
        <ele>79.8</ele>
        <time>2021-08-21T15:51:45Z</time>
      </trkpt>
      <trkpt lat="43.14287" lon="3.0628">
        <ele>78.6</ele>
        <time>2021-08-21T15:51:47Z</time>
      </trkpt>
      <trkpt lat="43.14289" lon="3.06286">
        <ele>78</ele>
        <time>2021-08-21T15:51:48Z</time>
      </trkpt>
      <trkpt lat="43.14292" lon="3.06292">
        <ele>77.6</ele>
        <time>2021-08-21T15:51:49Z</time>
      </trkpt>
      <trkpt lat="43.14295" lon="3.06298">
        <ele>77</ele>
        <time>2021-08-21T15:51:50Z</time>
      </trkpt>
      <trkpt lat="43.14298" lon="3.06303">
        <ele>76.4</ele>
        <time>2021-08-21T15:51:51Z</time>
      </trkpt>
      <trkpt lat="43.14302" lon="3.06307">
        <ele>76.2</ele>
        <time>2021-08-21T15:51:52Z</time>
      </trkpt>
      <trkpt lat="43.14318" lon="3.0632">
        <ele>76.2</ele>
        <time>2021-08-21T15:51:56Z</time>
      </trkpt>
      <trkpt lat="43.14321" lon="3.06323">
        <ele>76.2</ele>
        <time>2021-08-21T15:51:57Z</time>
      </trkpt>
      <trkpt lat="43.14333" lon="3.06341">
        <ele>76</ele>
        <time>2021-08-21T15:52:02Z</time>
      </trkpt>
      <trkpt lat="43.14343" lon="3.06364">
        <ele>76.4</ele>
        <time>2021-08-21T15:52:08Z</time>
      </trkpt>
      <trkpt lat="43.1434" lon="3.06384">
        <ele>77.4</ele>
        <time>2021-08-21T15:52:13Z</time>
      </trkpt>
      <trkpt lat="43.14339" lon="3.06388">
        <ele>77.6</ele>
        <time>2021-08-21T15:52:14Z</time>
      </trkpt>
      <trkpt lat="43.14337" lon="3.06395">
        <ele>78.8</ele>
        <time>2021-08-21T15:52:16Z</time>
      </trkpt>
      <trkpt lat="43.14336" lon="3.06407">
        <ele>79.8</ele>
        <time>2021-08-21T15:52:19Z</time>
      </trkpt>
      <trkpt lat="43.14336" lon="3.0641">
        <ele>80</ele>
        <time>2021-08-21T15:52:20Z</time>
      </trkpt>
      <trkpt lat="43.14338" lon="3.06424">
        <ele>81</ele>
        <time>2021-08-21T15:52:24Z</time>
      </trkpt>
      <trkpt lat="43.14339" lon="3.06427">
        <ele>81.2</ele>
        <time>2021-08-21T15:52:25Z</time>
      </trkpt>
      <trkpt lat="43.14348" lon="3.06436">
        <ele>82</ele>
        <time>2021-08-21T15:52:30Z</time>
      </trkpt>
      <trkpt lat="43.14358" lon="3.06446">
        <ele>83.4</ele>
        <time>2021-08-21T15:52:36Z</time>
      </trkpt>
      <trkpt lat="43.1436" lon="3.06448">
        <ele>83.6</ele>
        <time>2021-08-21T15:52:37Z</time>
      </trkpt>
      <trkpt lat="43.14363" lon="3.06451">
        <ele>84.4</ele>
        <time>2021-08-21T15:52:39Z</time>
      </trkpt>
      <trkpt lat="43.1437" lon="3.06456">
        <ele>85.4</ele>
        <time>2021-08-21T15:52:43Z</time>
      </trkpt>
      <trkpt lat="43.14376" lon="3.0646">
        <ele>86.4</ele>
        <time>2021-08-21T15:52:46Z</time>
      </trkpt>
      <trkpt lat="43.14378" lon="3.06461">
        <ele>86.6</ele>
        <time>2021-08-21T15:52:47Z</time>
      </trkpt>
      <trkpt lat="43.14385" lon="3.06467">
        <ele>87.8</ele>
        <time>2021-08-21T15:52:51Z</time>
      </trkpt>
      <trkpt lat="43.14388" lon="3.0647">
        <ele>88.4</ele>
        <time>2021-08-21T15:52:53Z</time>
      </trkpt>
      <trkpt lat="43.1439" lon="3.06472">
        <ele>88.8</ele>
        <time>2021-08-21T15:52:54Z</time>
      </trkpt>
      <trkpt lat="43.14395" lon="3.06478">
        <ele>90</ele>
        <time>2021-08-21T15:52:57Z</time>
      </trkpt>
      <trkpt lat="43.14399" lon="3.06484">
        <ele>91</ele>
        <time>2021-08-21T15:53:00Z</time>
      </trkpt>
      <trkpt lat="43.144" lon="3.06486">
        <ele>91.4</ele>
        <time>2021-08-21T15:53:01Z</time>
      </trkpt>
      <trkpt lat="43.14403" lon="3.06491">
        <ele>92.8</ele>
        <time>2021-08-21T15:53:03Z</time>
      </trkpt>
      <trkpt lat="43.14405" lon="3.06503">
        <ele>94</ele>
        <time>2021-08-21T15:53:07Z</time>
      </trkpt>
      <trkpt lat="43.14409" lon="3.06518">
        <ele>95</ele>
        <time>2021-08-21T15:53:12Z</time>
      </trkpt>
      <trkpt lat="43.14411" lon="3.06524">
        <ele>95.2</ele>
        <time>2021-08-21T15:53:14Z</time>
      </trkpt>
      <trkpt lat="43.1442" lon="3.06543">
        <ele>95.8</ele>
        <time>2021-08-21T15:53:21Z</time>
      </trkpt>
      <trkpt lat="43.14425" lon="3.06552">
        <ele>96.2</ele>
        <time>2021-08-21T15:53:24Z</time>
      </trkpt>
      <trkpt lat="43.14433" lon="3.06564">
        <ele>96.4</ele>
        <time>2021-08-21T15:53:29Z</time>
      </trkpt>
      <trkpt lat="43.14448" lon="3.06589">
        <ele>95.8</ele>
        <time>2021-08-21T15:53:36Z</time>
      </trkpt>
      <trkpt lat="43.14458" lon="3.06607">
        <ele>95.8</ele>
        <time>2021-08-21T15:53:42Z</time>
      </trkpt>
      <trkpt lat="43.14462" lon="3.0663">
        <ele>96.2</ele>
        <time>2021-08-21T15:53:48Z</time>
      </trkpt>
      <trkpt lat="43.14474" lon="3.06658">
        <ele>96.6</ele>
        <time>2021-08-21T15:53:56Z</time>
      </trkpt>
      <trkpt lat="43.14493" lon="3.06683">
        <ele>97</ele>
        <time>2021-08-21T15:54:05Z</time>
      </trkpt>
      <trkpt lat="43.14502" lon="3.06697">
        <ele>97.2</ele>
        <time>2021-08-21T15:54:10Z</time>
      </trkpt>
      <trkpt lat="43.14508" lon="3.0671">
        <ele>97.4</ele>
        <time>2021-08-21T15:54:14Z</time>
      </trkpt>
      <trkpt lat="43.14511" lon="3.06721">
        <ele>98.4</ele>
        <time>2021-08-21T15:54:17Z</time>
      </trkpt>
      <trkpt lat="43.14513" lon="3.06732">
        <ele>99</ele>
        <time>2021-08-21T15:54:20Z</time>
      </trkpt>
      <trkpt lat="43.14516" lon="3.06743">
        <ele>99.4</ele>
        <time>2021-08-21T15:54:23Z</time>
      </trkpt>
      <trkpt lat="43.1452" lon="3.06761">
        <ele>100.6</ele>
        <time>2021-08-21T15:54:28Z</time>
      </trkpt>
      <trkpt lat="43.14521" lon="3.06764">
        <ele>101</ele>
        <time>2021-08-21T15:54:29Z</time>
      </trkpt>
      <trkpt lat="43.14522" lon="3.06771">
        <ele>101.8</ele>
        <time>2021-08-21T15:54:31Z</time>
      </trkpt>
      <trkpt lat="43.14523" lon="3.06782">
        <ele>103</ele>
        <time>2021-08-21T15:54:34Z</time>
      </trkpt>
      <trkpt lat="43.14524" lon="3.06789">
        <ele>103.8</ele>
        <time>2021-08-21T15:54:36Z</time>
      </trkpt>
      <trkpt lat="43.14524" lon="3.06792">
        <ele>104.2</ele>
        <time>2021-08-21T15:54:37Z</time>
      </trkpt>
      <trkpt lat="43.14523" lon="3.06799">
        <ele>105.6</ele>
        <time>2021-08-21T15:54:39Z</time>
      </trkpt>
      <trkpt lat="43.1452" lon="3.06808">
        <ele>106.6</ele>
        <time>2021-08-21T15:54:42Z</time>
      </trkpt>
      <trkpt lat="43.14515" lon="3.06815">
        <ele>107.8</ele>
        <time>2021-08-21T15:54:45Z</time>
      </trkpt>
      <trkpt lat="43.14511" lon="3.06824">
        <ele>108.4</ele>
        <time>2021-08-21T15:54:48Z</time>
      </trkpt>
      <trkpt lat="43.14511" lon="3.06834">
        <ele>108.8</ele>
        <time>2021-08-21T15:54:51Z</time>
      </trkpt>
      <trkpt lat="43.14513" lon="3.06842">
        <ele>109.2</ele>
        <time>2021-08-21T15:54:53Z</time>
      </trkpt>
      <trkpt lat="43.14514" lon="3.06853">
        <ele>109.8</ele>
        <time>2021-08-21T15:54:56Z</time>
      </trkpt>
      <trkpt lat="43.14515" lon="3.06863">
        <ele>111</ele>
        <time>2021-08-21T15:54:59Z</time>
      </trkpt>
      <trkpt lat="43.14516" lon="3.06867">
        <ele>111.6</ele>
        <time>2021-08-21T15:55:00Z</time>
      </trkpt>
      <trkpt lat="43.14516" lon="3.06873">
        <ele>112.4</ele>
        <time>2021-08-21T15:55:02Z</time>
      </trkpt>
      <trkpt lat="43.14517" lon="3.06878">
        <ele>113.2</ele>
        <time>2021-08-21T15:55:05Z</time>
      </trkpt>
      <trkpt lat="43.14517" lon="3.06878">
        <ele>113.4</ele>
        <time>2021-08-21T15:55:06Z</time>
      </trkpt>
      <trkpt lat="43.14517" lon="3.06882">
        <ele>114</ele>
        <time>2021-08-21T15:55:12Z</time>
      </trkpt>
      <trkpt lat="43.14517" lon="3.06882">
        <ele>113.6</ele>
        <time>2021-08-21T15:55:23Z</time>
      </trkpt>
      <trkpt lat="43.14516" lon="3.06886">
        <ele>114.4</ele>
        <time>2021-08-21T15:55:29Z</time>
      </trkpt>
      <trkpt lat="43.14515" lon="3.06891">
        <ele>114.4</ele>
        <time>2021-08-21T15:55:34Z</time>
      </trkpt>
      <trkpt lat="43.14509" lon="3.06907">
        <ele>114.4</ele>
        <time>2021-08-21T15:55:40Z</time>
      </trkpt>
      <trkpt lat="43.14508" lon="3.06909">
        <ele>114.4</ele>
        <time>2021-08-21T15:55:41Z</time>
      </trkpt>
      <trkpt lat="43.14501" lon="3.06915">
        <ele>115</ele>
        <time>2021-08-21T15:55:45Z</time>
      </trkpt>
      <trkpt lat="43.14492" lon="3.06923">
        <ele>115.6</ele>
        <time>2021-08-21T15:55:50Z</time>
      </trkpt>
      <trkpt lat="43.14488" lon="3.06927">
        <ele>115.8</ele>
        <time>2021-08-21T15:55:52Z</time>
      </trkpt>
      <trkpt lat="43.14481" lon="3.06942">
        <ele>116.6</ele>
        <time>2021-08-21T15:55:57Z</time>
      </trkpt>
      <trkpt lat="43.1448" lon="3.06945">
        <ele>116.6</ele>
        <time>2021-08-21T15:55:58Z</time>
      </trkpt>
      <trkpt lat="43.14472" lon="3.06965">
        <ele>117.6</ele>
        <time>2021-08-21T15:56:05Z</time>
      </trkpt>
      <trkpt lat="43.14461" lon="3.06985">
        <ele>118</ele>
        <time>2021-08-21T15:56:12Z</time>
      </trkpt>
      <trkpt lat="43.14451" lon="3.07004">
        <ele>117.8</ele>
        <time>2021-08-21T15:56:19Z</time>
      </trkpt>
      <trkpt lat="43.14453" lon="3.07016">
        <ele>117.2</ele>
        <time>2021-08-21T15:56:23Z</time>
      </trkpt>
      <trkpt lat="43.14453" lon="3.0702">
        <ele>117</ele>
        <time>2021-08-21T15:56:24Z</time>
      </trkpt>
      <trkpt lat="43.14452" lon="3.07023">
        <ele>116.6</ele>
        <time>2021-08-21T15:56:25Z</time>
      </trkpt>
      <trkpt lat="43.14451" lon="3.07026">
        <ele>116.4</ele>
        <time>2021-08-21T15:56:26Z</time>
      </trkpt>
      <trkpt lat="43.14448" lon="3.07027">
        <ele>116.2</ele>
        <time>2021-08-21T15:56:27Z</time>
      </trkpt>
      <trkpt lat="43.14442" lon="3.07028">
        <ele>116</ele>
        <time>2021-08-21T15:56:29Z</time>
      </trkpt>
      <trkpt lat="43.14436" lon="3.07028">
        <ele>115.8</ele>
        <time>2021-08-21T15:56:31Z</time>
      </trkpt>
      <trkpt lat="43.14426" lon="3.07031">
        <ele>115.2</ele>
        <time>2021-08-21T15:56:35Z</time>
      </trkpt>
      <trkpt lat="43.14425" lon="3.07033">
        <ele>115</ele>
        <time>2021-08-21T15:56:36Z</time>
      </trkpt>
      <trkpt lat="43.14415" lon="3.07042">
        <ele>114.2</ele>
        <time>2021-08-21T15:56:42Z</time>
      </trkpt>
      <trkpt lat="43.14411" lon="3.07043">
        <ele>114.2</ele>
        <time>2021-08-21T15:56:47Z</time>
      </trkpt>
      <trkpt lat="43.14411" lon="3.07043">
        <ele>114</ele>
        <time>2021-08-21T15:57:00Z</time>
      </trkpt>
      <trkpt lat="43.14401" lon="3.07041">
        <ele>114</ele>
        <time>2021-08-21T15:57:07Z</time>
      </trkpt>
      <trkpt lat="43.14388" lon="3.07034">
        <ele>113</ele>
        <time>2021-08-21T15:57:10Z</time>
      </trkpt>
      <trkpt lat="43.1438" lon="3.07031">
        <ele>112.4</ele>
        <time>2021-08-21T15:57:12Z</time>
      </trkpt>
      <trkpt lat="43.14371" lon="3.07029">
        <ele>112</ele>
        <time>2021-08-21T15:57:14Z</time>
      </trkpt>
      <trkpt lat="43.14356" lon="3.07026">
        <ele>111.4</ele>
        <time>2021-08-21T15:57:17Z</time>
      </trkpt>
      <trkpt lat="43.14352" lon="3.07023">
        <ele>111.2</ele>
        <time>2021-08-21T15:57:18Z</time>
      </trkpt>
      <trkpt lat="43.14347" lon="3.0702">
        <ele>111</ele>
        <time>2021-08-21T15:57:19Z</time>
      </trkpt>
      <trkpt lat="43.14323" lon="3.06997">
        <ele>110</ele>
        <time>2021-08-21T15:57:24Z</time>
      </trkpt>
      <trkpt lat="43.14306" lon="3.06978">
        <ele>109</ele>
        <time>2021-08-21T15:57:27Z</time>
      </trkpt>
      <trkpt lat="43.14293" lon="3.06965">
        <ele>107.6</ele>
        <time>2021-08-21T15:57:29Z</time>
      </trkpt>
      <trkpt lat="43.14279" lon="3.06957">
        <ele>106.4</ele>
        <time>2021-08-21T15:57:31Z</time>
      </trkpt>
      <trkpt lat="43.14265" lon="3.06952">
        <ele>105.6</ele>
        <time>2021-08-21T15:57:33Z</time>
      </trkpt>
      <trkpt lat="43.14258" lon="3.0695">
        <ele>105.4</ele>
        <time>2021-08-21T15:57:34Z</time>
      </trkpt>
      <trkpt lat="43.1423" lon="3.06938">
        <ele>105</ele>
        <time>2021-08-21T15:57:39Z</time>
      </trkpt>
      <trkpt lat="43.14216" lon="3.06936">
        <ele>105.2</ele>
        <time>2021-08-21T15:57:43Z</time>
      </trkpt>
      <trkpt lat="43.14193" lon="3.06933">
        <ele>106.4</ele>
        <time>2021-08-21T15:57:50Z</time>
      </trkpt>
      <trkpt lat="43.1418" lon="3.06917">
        <ele>105.8</ele>
        <time>2021-08-21T15:57:54Z</time>
      </trkpt>
      <trkpt lat="43.14175" lon="3.06914">
        <ele>105.6</ele>
        <time>2021-08-21T15:57:55Z</time>
      </trkpt>
      <trkpt lat="43.14158" lon="3.06908">
        <ele>104.4</ele>
        <time>2021-08-21T15:57:58Z</time>
      </trkpt>
      <trkpt lat="43.14152" lon="3.06906">
        <ele>103.8</ele>
        <time>2021-08-21T15:57:59Z</time>
      </trkpt>
      <trkpt lat="43.14146" lon="3.06905">
        <ele>103</ele>
        <time>2021-08-21T15:58:00Z</time>
      </trkpt>
      <trkpt lat="43.14134" lon="3.06901">
        <ele>101.6</ele>
        <time>2021-08-21T15:58:02Z</time>
      </trkpt>
      <trkpt lat="43.14122" lon="3.06898">
        <ele>100.2</ele>
        <time>2021-08-21T15:58:04Z</time>
      </trkpt>
      <trkpt lat="43.14115" lon="3.06897">
        <ele>99.6</ele>
        <time>2021-08-21T15:58:05Z</time>
      </trkpt>
      <trkpt lat="43.14109" lon="3.06897">
        <ele>99</ele>
        <time>2021-08-21T15:58:06Z</time>
      </trkpt>
      <trkpt lat="43.14095" lon="3.06894">
        <ele>98</ele>
        <time>2021-08-21T15:58:08Z</time>
      </trkpt>
      <trkpt lat="43.14081" lon="3.06889">
        <ele>96.8</ele>
        <time>2021-08-21T15:58:10Z</time>
      </trkpt>
      <trkpt lat="43.14074" lon="3.06887">
        <ele>96</ele>
        <time>2021-08-21T15:58:11Z</time>
      </trkpt>
      <trkpt lat="43.14067" lon="3.06886">
        <ele>95.4</ele>
        <time>2021-08-21T15:58:12Z</time>
      </trkpt>
      <trkpt lat="43.14055" lon="3.06883">
        <ele>94.4</ele>
        <time>2021-08-21T15:58:14Z</time>
      </trkpt>
      <trkpt lat="43.14049" lon="3.06879">
        <ele>94</ele>
        <time>2021-08-21T15:58:15Z</time>
      </trkpt>
      <trkpt lat="43.14044" lon="3.06874">
        <ele>93.6</ele>
        <time>2021-08-21T15:58:16Z</time>
      </trkpt>
      <trkpt lat="43.14016" lon="3.06851">
        <ele>93</ele>
        <time>2021-08-21T15:58:22Z</time>
      </trkpt>
      <trkpt lat="43.14011" lon="3.06847">
        <ele>92.8</ele>
        <time>2021-08-21T15:58:23Z</time>
      </trkpt>
      <trkpt lat="43.14008" lon="3.06842">
        <ele>92.8</ele>
        <time>2021-08-21T15:58:24Z</time>
      </trkpt>
      <trkpt lat="43.14" lon="3.06826">
        <ele>92.6</ele>
        <time>2021-08-21T15:58:27Z</time>
      </trkpt>
      <trkpt lat="43.13997" lon="3.06815">
        <ele>92.4</ele>
        <time>2021-08-21T15:58:29Z</time>
      </trkpt>
      <trkpt lat="43.1399" lon="3.06794">
        <ele>92.4</ele>
        <time>2021-08-21T15:58:33Z</time>
      </trkpt>
      <trkpt lat="43.13979" lon="3.0678">
        <ele>92.6</ele>
        <time>2021-08-21T15:58:38Z</time>
      </trkpt>
      <trkpt lat="43.13969" lon="3.06782">
        <ele>93</ele>
        <time>2021-08-21T15:58:42Z</time>
      </trkpt>
      <trkpt lat="43.13961" lon="3.06793">
        <ele>93.8</ele>
        <time>2021-08-21T15:58:48Z</time>
      </trkpt>
      <trkpt lat="43.1396" lon="3.06793">
        <ele>93.8</ele>
        <time>2021-08-21T15:58:56Z</time>
      </trkpt>
      <trkpt lat="43.1396" lon="3.06793">
        <ele>93.6</ele>
        <time>2021-08-21T15:59:16Z</time>
      </trkpt>
      <trkpt lat="43.1396" lon="3.06793">
        <ele>93.8</ele>
        <time>2021-08-21T15:59:32Z</time>
      </trkpt>
      <trkpt lat="43.1396" lon="3.06793">
        <ele>93.6</ele>
        <time>2021-08-21T15:59:47Z</time>
      </trkpt>
      <trkpt lat="43.1396" lon="3.06786">
        <ele>93.6</ele>
        <time>2021-08-21T15:59:52Z</time>
      </trkpt>
      <trkpt lat="43.1396" lon="3.06783">
        <ele>93.8</ele>
        <time>2021-08-21T15:59:53Z</time>
      </trkpt>
      <trkpt lat="43.1396" lon="3.06773">
        <ele>94</ele>
        <time>2021-08-21T15:59:57Z</time>
      </trkpt>
      <trkpt lat="43.1396" lon="3.06769">
        <ele>94.2</ele>
        <time>2021-08-21T15:59:58Z</time>
      </trkpt>
      <trkpt lat="43.13956" lon="3.0676">
        <ele>94.8</ele>
        <time>2021-08-21T16:00:03Z</time>
      </trkpt>
      <trkpt lat="43.13955" lon="3.06754">
        <ele>95</ele>
        <time>2021-08-21T16:00:09Z</time>
      </trkpt>
      <trkpt lat="43.13956" lon="3.0675">
        <ele>95</ele>
        <time>2021-08-21T16:00:11Z</time>
      </trkpt>
      <trkpt lat="43.13956" lon="3.06741">
        <ele>95</ele>
        <time>2021-08-21T16:00:14Z</time>
      </trkpt>
      <trkpt lat="43.13955" lon="3.06732">
        <ele>95</ele>
        <time>2021-08-21T16:00:17Z</time>
      </trkpt>
      <trkpt lat="43.13955" lon="3.06726">
        <ele>94.8</ele>
        <time>2021-08-21T16:00:21Z</time>
      </trkpt>
      <trkpt lat="43.13956" lon="3.0673">
        <ele>94.4</ele>
        <time>2021-08-21T16:00:29Z</time>
      </trkpt>
      <trkpt lat="43.13957" lon="3.06737">
        <ele>94.4</ele>
        <time>2021-08-21T16:00:35Z</time>
      </trkpt>
      <trkpt lat="43.13957" lon="3.06743">
        <ele>94.6</ele>
        <time>2021-08-21T16:00:41Z</time>
      </trkpt>
      <trkpt lat="43.13958" lon="3.06761">
        <ele>94.6</ele>
        <time>2021-08-21T16:00:47Z</time>
      </trkpt>
      <trkpt lat="43.13958" lon="3.06765">
        <ele>94.8</ele>
        <time>2021-08-21T16:00:49Z</time>
      </trkpt>
      <trkpt lat="43.13955" lon="3.06766">
        <ele>94.8</ele>
        <time>2021-08-21T16:00:52Z</time>
      </trkpt>
      <trkpt lat="43.13954" lon="3.06765">
        <ele>94.8</ele>
        <time>2021-08-21T16:00:53Z</time>
      </trkpt>
      <trkpt lat="43.13949" lon="3.06758">
        <ele>94.8</ele>
        <time>2021-08-21T16:00:57Z</time>
      </trkpt>
      <trkpt lat="43.13942" lon="3.06747">
        <ele>95.2</ele>
        <time>2021-08-21T16:01:02Z</time>
      </trkpt>
      <trkpt lat="43.13939" lon="3.06742">
        <ele>95.4</ele>
        <time>2021-08-21T16:01:04Z</time>
      </trkpt>
      <trkpt lat="43.13929" lon="3.06734">
        <ele>95.8</ele>
        <time>2021-08-21T16:01:10Z</time>
      </trkpt>
      <trkpt lat="43.13922" lon="3.06731">
        <ele>96.2</ele>
        <time>2021-08-21T16:01:14Z</time>
      </trkpt>
      <trkpt lat="43.13916" lon="3.06729">
        <ele>96.8</ele>
        <time>2021-08-21T16:01:17Z</time>
      </trkpt>
      <trkpt lat="43.13909" lon="3.06724">
        <ele>97.4</ele>
        <time>2021-08-21T16:01:21Z</time>
      </trkpt>
      <trkpt lat="43.13906" lon="3.06722">
        <ele>97.6</ele>
        <time>2021-08-21T16:01:24Z</time>
      </trkpt>
      <trkpt lat="43.13906" lon="3.06721">
        <ele>97.8</ele>
        <time>2021-08-21T16:01:29Z</time>
      </trkpt>
      <trkpt lat="43.13907" lon="3.06722">
        <ele>97.8</ele>
        <time>2021-08-21T16:01:31Z</time>
      </trkpt>
      <trkpt lat="43.13911" lon="3.06725">
        <ele>97.8</ele>
        <time>2021-08-21T16:01:36Z</time>
      </trkpt>
      <trkpt lat="43.13911" lon="3.06725">
        <ele>97.6</ele>
        <time>2021-08-21T16:01:44Z</time>
      </trkpt>
      <trkpt lat="43.13916" lon="3.06729">
        <ele>97.6</ele>
        <time>2021-08-21T16:01:50Z</time>
      </trkpt>
      <trkpt lat="43.13928" lon="3.06734">
        <ele>97.2</ele>
        <time>2021-08-21T16:01:55Z</time>
      </trkpt>
      <trkpt lat="43.13941" lon="3.06746">
        <ele>96.4</ele>
        <time>2021-08-21T16:02:00Z</time>
      </trkpt>
      <trkpt lat="43.13943" lon="3.0675">
        <ele>96.2</ele>
        <time>2021-08-21T16:02:01Z</time>
      </trkpt>
      <trkpt lat="43.13955" lon="3.06766">
        <ele>95.4</ele>
        <time>2021-08-21T16:02:07Z</time>
      </trkpt>
      <trkpt lat="43.13958" lon="3.06769">
        <ele>95</ele>
        <time>2021-08-21T16:02:09Z</time>
      </trkpt>
      <trkpt lat="43.13961" lon="3.06774">
        <ele>94.6</ele>
        <time>2021-08-21T16:02:12Z</time>
      </trkpt>
      <trkpt lat="43.13963" lon="3.06789">
        <ele>94.2</ele>
        <time>2021-08-21T16:02:16Z</time>
      </trkpt>
      <trkpt lat="43.13963" lon="3.06795">
        <ele>93.8</ele>
        <time>2021-08-21T16:02:17Z</time>
      </trkpt>
      <trkpt lat="43.13963" lon="3.06801">
        <ele>93.4</ele>
        <time>2021-08-21T16:02:18Z</time>
      </trkpt>
      <trkpt lat="43.13963" lon="3.06825">
        <ele>92.8</ele>
        <time>2021-08-21T16:02:22Z</time>
      </trkpt>
      <trkpt lat="43.13964" lon="3.06831">
        <ele>92.6</ele>
        <time>2021-08-21T16:02:23Z</time>
      </trkpt>
      <trkpt lat="43.13966" lon="3.06871">
        <ele>92.2</ele>
        <time>2021-08-21T16:02:30Z</time>
      </trkpt>
      <trkpt lat="43.13959" lon="3.06891">
        <ele>92.6</ele>
        <time>2021-08-21T16:02:35Z</time>
      </trkpt>
      <trkpt lat="43.13954" lon="3.06917">
        <ele>93.6</ele>
        <time>2021-08-21T16:02:41Z</time>
      </trkpt>
      <trkpt lat="43.13953" lon="3.06923">
        <ele>93.8</ele>
        <time>2021-08-21T16:02:43Z</time>
      </trkpt>
      <trkpt lat="43.13951" lon="3.06925">
        <ele>94.2</ele>
        <time>2021-08-21T16:02:45Z</time>
      </trkpt>
      <trkpt lat="43.13945" lon="3.06926">
        <ele>94.6</ele>
        <time>2021-08-21T16:02:50Z</time>
      </trkpt>
      <trkpt lat="43.13942" lon="3.06928">
        <ele>94.8</ele>
        <time>2021-08-21T16:02:51Z</time>
      </trkpt>
      <trkpt lat="43.13939" lon="3.06932">
        <ele>95</ele>
        <time>2021-08-21T16:02:53Z</time>
      </trkpt>
      <trkpt lat="43.13937" lon="3.06937">
        <ele>95.2</ele>
        <time>2021-08-21T16:02:55Z</time>
      </trkpt>
      <trkpt lat="43.13934" lon="3.06959">
        <ele>95.2</ele>
        <time>2021-08-21T16:03:01Z</time>
      </trkpt>
      <trkpt lat="43.13939" lon="3.06975">
        <ele>95</ele>
        <time>2021-08-21T16:03:06Z</time>
      </trkpt>
      <trkpt lat="43.13936" lon="3.06988">
        <ele>94.8</ele>
        <time>2021-08-21T16:03:10Z</time>
      </trkpt>
      <trkpt lat="43.13922" lon="3.07002">
        <ele>93.6</ele>
        <time>2021-08-21T16:03:15Z</time>
      </trkpt>
      <trkpt lat="43.13917" lon="3.0701">
        <ele>93</ele>
        <time>2021-08-21T16:03:19Z</time>
      </trkpt>
      <trkpt lat="43.13911" lon="3.07016">
        <ele>92.4</ele>
        <time>2021-08-21T16:03:22Z</time>
      </trkpt>
      <trkpt lat="43.13908" lon="3.07021">
        <ele>91.8</ele>
        <time>2021-08-21T16:03:24Z</time>
      </trkpt>
      <trkpt lat="43.13906" lon="3.07023">
        <ele>91.4</ele>
        <time>2021-08-21T16:03:25Z</time>
      </trkpt>
      <trkpt lat="43.13901" lon="3.07033">
        <ele>90</ele>
        <time>2021-08-21T16:03:29Z</time>
      </trkpt>
      <trkpt lat="43.139" lon="3.07036">
        <ele>89.6</ele>
        <time>2021-08-21T16:03:30Z</time>
      </trkpt>
      <trkpt lat="43.13898" lon="3.07041">
        <ele>89</ele>
        <time>2021-08-21T16:03:32Z</time>
      </trkpt>
      <trkpt lat="43.13897" lon="3.07043">
        <ele>88.6</ele>
        <time>2021-08-21T16:03:33Z</time>
      </trkpt>
      <trkpt lat="43.13894" lon="3.0705">
        <ele>88.2</ele>
        <time>2021-08-21T16:03:35Z</time>
      </trkpt>
      <trkpt lat="43.13892" lon="3.07056">
        <ele>87.6</ele>
        <time>2021-08-21T16:03:37Z</time>
      </trkpt>
      <trkpt lat="43.1389" lon="3.07059">
        <ele>87.2</ele>
        <time>2021-08-21T16:03:38Z</time>
      </trkpt>
      <trkpt lat="43.13885" lon="3.07065">
        <ele>86.4</ele>
        <time>2021-08-21T16:03:40Z</time>
      </trkpt>
      <trkpt lat="43.1388" lon="3.07076">
        <ele>85.4</ele>
        <time>2021-08-21T16:03:43Z</time>
      </trkpt>
      <trkpt lat="43.13879" lon="3.07086">
        <ele>84.4</ele>
        <time>2021-08-21T16:03:45Z</time>
      </trkpt>
      <trkpt lat="43.13878" lon="3.07091">
        <ele>84</ele>
        <time>2021-08-21T16:03:46Z</time>
      </trkpt>
      <trkpt lat="43.13878" lon="3.07107">
        <ele>82.6</ele>
        <time>2021-08-21T16:03:49Z</time>
      </trkpt>
      <trkpt lat="43.13879" lon="3.07119">
        <ele>81.6</ele>
        <time>2021-08-21T16:03:51Z</time>
      </trkpt>
      <trkpt lat="43.13879" lon="3.07123">
        <ele>81.2</ele>
        <time>2021-08-21T16:03:52Z</time>
      </trkpt>
      <trkpt lat="43.13876" lon="3.07124">
        <ele>80</ele>
        <time>2021-08-21T16:03:54Z</time>
      </trkpt>
      <trkpt lat="43.13874" lon="3.0712">
        <ele>79.8</ele>
        <time>2021-08-21T16:03:56Z</time>
      </trkpt>
      <trkpt lat="43.1387" lon="3.07116">
        <ele>79.6</ele>
        <time>2021-08-21T16:03:58Z</time>
      </trkpt>
      <trkpt lat="43.13865" lon="3.07108">
        <ele>78.8</ele>
        <time>2021-08-21T16:04:01Z</time>
      </trkpt>
      <trkpt lat="43.13863" lon="3.07101">
        <ele>78.4</ele>
        <time>2021-08-21T16:04:03Z</time>
      </trkpt>
      <trkpt lat="43.13862" lon="3.07099">
        <ele>78.2</ele>
        <time>2021-08-21T16:04:04Z</time>
      </trkpt>
      <trkpt lat="43.13858" lon="3.07097">
        <ele>77.8</ele>
        <time>2021-08-21T16:04:06Z</time>
      </trkpt>
      <trkpt lat="43.13847" lon="3.07088">
        <ele>77.2</ele>
        <time>2021-08-21T16:04:11Z</time>
      </trkpt>
      <trkpt lat="43.13841" lon="3.07084">
        <ele>76.8</ele>
        <time>2021-08-21T16:04:13Z</time>
      </trkpt>
      <trkpt lat="43.13834" lon="3.07078">
        <ele>75.8</ele>
        <time>2021-08-21T16:04:16Z</time>
      </trkpt>
      <trkpt lat="43.13833" lon="3.07075">
        <ele>75.4</ele>
        <time>2021-08-21T16:04:17Z</time>
      </trkpt>
      <trkpt lat="43.13828" lon="3.07069">
        <ele>74.8</ele>
        <time>2021-08-21T16:04:19Z</time>
      </trkpt>
      <trkpt lat="43.13826" lon="3.07069">
        <ele>74.8</ele>
        <time>2021-08-21T16:04:20Z</time>
      </trkpt>
      <trkpt lat="43.13815" lon="3.07067">
        <ele>74.2</ele>
        <time>2021-08-21T16:04:24Z</time>
      </trkpt>
      <trkpt lat="43.13809" lon="3.07064">
        <ele>73.6</ele>
        <time>2021-08-21T16:04:26Z</time>
      </trkpt>
      <trkpt lat="43.13805" lon="3.0706">
        <ele>73</ele>
        <time>2021-08-21T16:04:28Z</time>
      </trkpt>
      <trkpt lat="43.13793" lon="3.07047">
        <ele>72.6</ele>
        <time>2021-08-21T16:04:32Z</time>
      </trkpt>
      <trkpt lat="43.13771" lon="3.07024">
        <ele>72</ele>
        <time>2021-08-21T16:04:38Z</time>
      </trkpt>
      <trkpt lat="43.13768" lon="3.0702">
        <ele>72</ele>
        <time>2021-08-21T16:04:39Z</time>
      </trkpt>
      <trkpt lat="43.13752" lon="3.07005">
        <ele>70.8</ele>
        <time>2021-08-21T16:04:43Z</time>
      </trkpt>
      <trkpt lat="43.13748" lon="3.07001">
        <ele>70.4</ele>
        <time>2021-08-21T16:04:44Z</time>
      </trkpt>
      <trkpt lat="43.13741" lon="3.06992">
        <ele>69.8</ele>
        <time>2021-08-21T16:04:46Z</time>
      </trkpt>
      <trkpt lat="43.13732" lon="3.06988">
        <ele>68.8</ele>
        <time>2021-08-21T16:04:48Z</time>
      </trkpt>
      <trkpt lat="43.13729" lon="3.06988">
        <ele>68.6</ele>
        <time>2021-08-21T16:04:49Z</time>
      </trkpt>
      <trkpt lat="43.13724" lon="3.06989">
        <ele>67.6</ele>
        <time>2021-08-21T16:04:52Z</time>
      </trkpt>
      <trkpt lat="43.13725" lon="3.06992">
        <ele>67.2</ele>
        <time>2021-08-21T16:04:53Z</time>
      </trkpt>
      <trkpt lat="43.13727" lon="3.07">
        <ele>67</ele>
        <time>2021-08-21T16:04:55Z</time>
      </trkpt>
      <trkpt lat="43.13727" lon="3.07003">
        <ele>67</ele>
        <time>2021-08-21T16:04:56Z</time>
      </trkpt>
      <trkpt lat="43.13724" lon="3.07022">
        <ele>67.2</ele>
        <time>2021-08-21T16:05:02Z</time>
      </trkpt>
      <trkpt lat="43.1372" lon="3.07027">
        <ele>67.6</ele>
        <time>2021-08-21T16:05:04Z</time>
      </trkpt>
      <trkpt lat="43.13716" lon="3.07028">
        <ele>68</ele>
        <time>2021-08-21T16:05:06Z</time>
      </trkpt>
      <trkpt lat="43.13712" lon="3.07029">
        <ele>68.2</ele>
        <time>2021-08-21T16:05:08Z</time>
      </trkpt>
      <trkpt lat="43.13711" lon="3.07028">
        <ele>68.4</ele>
        <time>2021-08-21T16:05:09Z</time>
      </trkpt>
      <trkpt lat="43.13707" lon="3.07027">
        <ele>68.6</ele>
        <time>2021-08-21T16:05:11Z</time>
      </trkpt>
      <trkpt lat="43.13691" lon="3.07021">
        <ele>68.6</ele>
        <time>2021-08-21T16:05:17Z</time>
      </trkpt>
      <trkpt lat="43.13675" lon="3.07009">
        <ele>67.6</ele>
        <time>2021-08-21T16:05:23Z</time>
      </trkpt>
      <trkpt lat="43.1367" lon="3.07006">
        <ele>67.2</ele>
        <time>2021-08-21T16:05:25Z</time>
      </trkpt>
      <trkpt lat="43.13665" lon="3.06999">
        <ele>66.8</ele>
        <time>2021-08-21T16:05:28Z</time>
      </trkpt>
      <trkpt lat="43.13659" lon="3.06998">
        <ele>66</ele>
        <time>2021-08-21T16:05:30Z</time>
      </trkpt>
      <trkpt lat="43.13656" lon="3.07002">
        <ele>65.6</ele>
        <time>2021-08-21T16:05:32Z</time>
      </trkpt>
      <trkpt lat="43.13652" lon="3.07005">
        <ele>65.6</ele>
        <time>2021-08-21T16:05:35Z</time>
      </trkpt>
      <trkpt lat="43.13649" lon="3.07008">
        <ele>65.8</ele>
        <time>2021-08-21T16:05:37Z</time>
      </trkpt>
      <trkpt lat="43.13642" lon="3.07014">
        <ele>66.2</ele>
        <time>2021-08-21T16:05:41Z</time>
      </trkpt>
      <trkpt lat="43.13639" lon="3.07015">
        <ele>66.2</ele>
        <time>2021-08-21T16:05:42Z</time>
      </trkpt>
      <trkpt lat="43.13623" lon="3.07014">
        <ele>66.4</ele>
        <time>2021-08-21T16:05:46Z</time>
      </trkpt>
      <trkpt lat="43.13619" lon="3.07015">
        <ele>66.4</ele>
        <time>2021-08-21T16:05:47Z</time>
      </trkpt>
      <trkpt lat="43.13605" lon="3.0702">
        <ele>65.2</ele>
        <time>2021-08-21T16:05:50Z</time>
      </trkpt>
      <trkpt lat="43.13601" lon="3.07021">
        <ele>65</ele>
        <time>2021-08-21T16:05:51Z</time>
      </trkpt>
      <trkpt lat="43.13585" lon="3.0702">
        <ele>64.4</ele>
        <time>2021-08-21T16:05:54Z</time>
      </trkpt>
      <trkpt lat="43.13573" lon="3.07016">
        <ele>64</ele>
        <time>2021-08-21T16:05:56Z</time>
      </trkpt>
      <trkpt lat="43.13559" lon="3.07015">
        <ele>63</ele>
        <time>2021-08-21T16:05:58Z</time>
      </trkpt>
      <trkpt lat="43.13554" lon="3.07015">
        <ele>62.4</ele>
        <time>2021-08-21T16:05:59Z</time>
      </trkpt>
      <trkpt lat="43.13545" lon="3.07016">
        <ele>61.2</ele>
        <time>2021-08-21T16:06:02Z</time>
      </trkpt>
      <trkpt lat="43.13537" lon="3.07029">
        <ele>60.8</ele>
        <time>2021-08-21T16:06:07Z</time>
      </trkpt>
      <trkpt lat="43.13537" lon="3.0705">
        <ele>61.2</ele>
        <time>2021-08-21T16:06:14Z</time>
      </trkpt>
      <trkpt lat="43.13536" lon="3.07076">
        <ele>62.2</ele>
        <time>2021-08-21T16:06:22Z</time>
      </trkpt>
      <trkpt lat="43.13536" lon="3.07078">
        <ele>62.2</ele>
        <time>2021-08-21T16:06:23Z</time>
      </trkpt>
      <trkpt lat="43.13533" lon="3.07095">
        <ele>63.4</ele>
        <time>2021-08-21T16:06:28Z</time>
      </trkpt>
      <trkpt lat="43.13533" lon="3.07106">
        <ele>64</ele>
        <time>2021-08-21T16:06:31Z</time>
      </trkpt>
      <trkpt lat="43.13533" lon="3.07116">
        <ele>64.4</ele>
        <time>2021-08-21T16:06:34Z</time>
      </trkpt>
      <trkpt lat="43.13532" lon="3.07132">
        <ele>65</ele>
        <time>2021-08-21T16:06:40Z</time>
      </trkpt>
      <trkpt lat="43.13531" lon="3.07138">
        <ele>65.8</ele>
        <time>2021-08-21T16:06:42Z</time>
      </trkpt>
      <trkpt lat="43.13529" lon="3.07155">
        <ele>66.4</ele>
        <time>2021-08-21T16:06:47Z</time>
      </trkpt>
      <trkpt lat="43.13528" lon="3.07162">
        <ele>66.8</ele>
        <time>2021-08-21T16:06:50Z</time>
      </trkpt>
      <trkpt lat="43.13523" lon="3.07172">
        <ele>67.6</ele>
        <time>2021-08-21T16:06:54Z</time>
      </trkpt>
      <trkpt lat="43.13522" lon="3.07175">
        <ele>67.8</ele>
        <time>2021-08-21T16:06:55Z</time>
      </trkpt>
      <trkpt lat="43.13514" lon="3.07192">
        <ele>68</ele>
        <time>2021-08-21T16:07:00Z</time>
      </trkpt>
      <trkpt lat="43.13508" lon="3.07209">
        <ele>67.4</ele>
        <time>2021-08-21T16:07:05Z</time>
      </trkpt>
      <trkpt lat="43.13512" lon="3.07228">
        <ele>68</ele>
        <time>2021-08-21T16:07:11Z</time>
      </trkpt>
      <trkpt lat="43.13514" lon="3.0724">
        <ele>68.8</ele>
        <time>2021-08-21T16:07:15Z</time>
      </trkpt>
      <trkpt lat="43.13514" lon="3.07241">
        <ele>69</ele>
        <time>2021-08-21T16:07:16Z</time>
      </trkpt>
      <trkpt lat="43.13514" lon="3.07243">
        <ele>69.8</ele>
        <time>2021-08-21T16:07:25Z</time>
      </trkpt>
      <trkpt lat="43.13513" lon="3.07247">
        <ele>69.8</ele>
        <time>2021-08-21T16:07:31Z</time>
      </trkpt>
      <trkpt lat="43.13512" lon="3.07249">
        <ele>69.8</ele>
        <time>2021-08-21T16:07:32Z</time>
      </trkpt>
      <trkpt lat="43.13506" lon="3.07259">
        <ele>69.8</ele>
        <time>2021-08-21T16:07:36Z</time>
      </trkpt>
      <trkpt lat="43.13498" lon="3.0727">
        <ele>69.8</ele>
        <time>2021-08-21T16:07:41Z</time>
      </trkpt>
      <trkpt lat="43.13497" lon="3.07273">
        <ele>69.8</ele>
        <time>2021-08-21T16:07:42Z</time>
      </trkpt>
      <trkpt lat="43.135" lon="3.07284">
        <ele>70</ele>
        <time>2021-08-21T16:07:45Z</time>
      </trkpt>
      <trkpt lat="43.13501" lon="3.07287">
        <ele>70</ele>
        <time>2021-08-21T16:07:46Z</time>
      </trkpt>
      <trkpt lat="43.13509" lon="3.07306">
        <ele>70.8</ele>
        <time>2021-08-21T16:07:52Z</time>
      </trkpt>
      <trkpt lat="43.13509" lon="3.07311">
        <ele>71.2</ele>
        <time>2021-08-21T16:07:54Z</time>
      </trkpt>
      <trkpt lat="43.13511" lon="3.07322">
        <ele>72</ele>
        <time>2021-08-21T16:07:58Z</time>
      </trkpt>
      <trkpt lat="43.1351" lon="3.07324">
        <ele>72.2</ele>
        <time>2021-08-21T16:07:59Z</time>
      </trkpt>
      <trkpt lat="43.13504" lon="3.07324">
        <ele>72.8</ele>
        <time>2021-08-21T16:08:02Z</time>
      </trkpt>
      <trkpt lat="43.13501" lon="3.07322">
        <ele>73</ele>
        <time>2021-08-21T16:08:03Z</time>
      </trkpt>
      <trkpt lat="43.13497" lon="3.07321">
        <ele>73.4</ele>
        <time>2021-08-21T16:08:05Z</time>
      </trkpt>
      <trkpt lat="43.1349" lon="3.07321">
        <ele>74</ele>
        <time>2021-08-21T16:08:08Z</time>
      </trkpt>
      <trkpt lat="43.13488" lon="3.0732">
        <ele>74.4</ele>
        <time>2021-08-21T16:08:09Z</time>
      </trkpt>
      <trkpt lat="43.1348" lon="3.07318">
        <ele>75.6</ele>
        <time>2021-08-21T16:08:13Z</time>
      </trkpt>
      <trkpt lat="43.13475" lon="3.07316">
        <ele>76.2</ele>
        <time>2021-08-21T16:08:15Z</time>
      </trkpt>
      <trkpt lat="43.13473" lon="3.07317">
        <ele>76.4</ele>
        <time>2021-08-21T16:08:16Z</time>
      </trkpt>
      <trkpt lat="43.13469" lon="3.07317">
        <ele>76.8</ele>
        <time>2021-08-21T16:08:18Z</time>
      </trkpt>
      <trkpt lat="43.13464" lon="3.07316">
        <ele>77.2</ele>
        <time>2021-08-21T16:08:20Z</time>
      </trkpt>
      <trkpt lat="43.13455" lon="3.07316">
        <ele>77.8</ele>
        <time>2021-08-21T16:08:24Z</time>
      </trkpt>
      <trkpt lat="43.13446" lon="3.07317">
        <ele>78.4</ele>
        <time>2021-08-21T16:08:28Z</time>
      </trkpt>
      <trkpt lat="43.13437" lon="3.07318">
        <ele>79</ele>
        <time>2021-08-21T16:08:33Z</time>
      </trkpt>
      <trkpt lat="43.13435" lon="3.07318">
        <ele>79.2</ele>
        <time>2021-08-21T16:08:34Z</time>
      </trkpt>
      <trkpt lat="43.13431" lon="3.07319">
        <ele>79.4</ele>
        <time>2021-08-21T16:08:36Z</time>
      </trkpt>
      <trkpt lat="43.13427" lon="3.07322">
        <ele>79.4</ele>
        <time>2021-08-21T16:08:39Z</time>
      </trkpt>
      <trkpt lat="43.13414" lon="3.07332">
        <ele>79.8</ele>
        <time>2021-08-21T16:08:45Z</time>
      </trkpt>
      <trkpt lat="43.13412" lon="3.07336">
        <ele>80</ele>
        <time>2021-08-21T16:08:47Z</time>
      </trkpt>
      <trkpt lat="43.13406" lon="3.07346">
        <ele>81.2</ele>
        <time>2021-08-21T16:08:52Z</time>
      </trkpt>
      <trkpt lat="43.134" lon="3.07358">
        <ele>82.2</ele>
        <time>2021-08-21T16:08:57Z</time>
      </trkpt>
      <trkpt lat="43.134" lon="3.07361">
        <ele>82.4</ele>
        <time>2021-08-21T16:08:58Z</time>
      </trkpt>
      <trkpt lat="43.13399" lon="3.07368">
        <ele>83.4</ele>
        <time>2021-08-21T16:09:01Z</time>
      </trkpt>
      <trkpt lat="43.13398" lon="3.0737">
        <ele>83.6</ele>
        <time>2021-08-21T16:09:02Z</time>
      </trkpt>
      <trkpt lat="43.13397" lon="3.07375">
        <ele>84.2</ele>
        <time>2021-08-21T16:09:04Z</time>
      </trkpt>
      <trkpt lat="43.13397" lon="3.07379">
        <ele>84.4</ele>
        <time>2021-08-21T16:09:05Z</time>
      </trkpt>
      <trkpt lat="43.13397" lon="3.07388">
        <ele>85.8</ele>
        <time>2021-08-21T16:09:08Z</time>
      </trkpt>
      <trkpt lat="43.13396" lon="3.0739">
        <ele>86.2</ele>
        <time>2021-08-21T16:09:09Z</time>
      </trkpt>
      <trkpt lat="43.13395" lon="3.07394">
        <ele>87</ele>
        <time>2021-08-21T16:09:11Z</time>
      </trkpt>
      <trkpt lat="43.13394" lon="3.07403">
        <ele>88.2</ele>
        <time>2021-08-21T16:09:14Z</time>
      </trkpt>
      <trkpt lat="43.13393" lon="3.07409">
        <ele>88.8</ele>
        <time>2021-08-21T16:09:16Z</time>
      </trkpt>
      <trkpt lat="43.13393" lon="3.07415">
        <ele>89.4</ele>
        <time>2021-08-21T16:09:18Z</time>
      </trkpt>
      <trkpt lat="43.13391" lon="3.07422">
        <ele>90.6</ele>
        <time>2021-08-21T16:09:21Z</time>
      </trkpt>
      <trkpt lat="43.1339" lon="3.0743">
        <ele>91.8</ele>
        <time>2021-08-21T16:09:24Z</time>
      </trkpt>
      <trkpt lat="43.13389" lon="3.0744">
        <ele>93</ele>
        <time>2021-08-21T16:09:28Z</time>
      </trkpt>
      <trkpt lat="43.13388" lon="3.07442">
        <ele>93.2</ele>
        <time>2021-08-21T16:09:29Z</time>
      </trkpt>
      <trkpt lat="43.13387" lon="3.07445">
        <ele>93.8</ele>
        <time>2021-08-21T16:09:30Z</time>
      </trkpt>
      <trkpt lat="43.13387" lon="3.07447">
        <ele>94.2</ele>
        <time>2021-08-21T16:09:31Z</time>
      </trkpt>
      <trkpt lat="43.13387" lon="3.07461">
        <ele>95.2</ele>
        <time>2021-08-21T16:09:36Z</time>
      </trkpt>
      <trkpt lat="43.13385" lon="3.0747">
        <ele>96.2</ele>
        <time>2021-08-21T16:09:39Z</time>
      </trkpt>
      <trkpt lat="43.13383" lon="3.07478">
        <ele>97.4</ele>
        <time>2021-08-21T16:09:42Z</time>
      </trkpt>
      <trkpt lat="43.13382" lon="3.07481">
        <ele>97.6</ele>
        <time>2021-08-21T16:09:43Z</time>
      </trkpt>
      <trkpt lat="43.1338" lon="3.07488">
        <ele>98.4</ele>
        <time>2021-08-21T16:09:46Z</time>
      </trkpt>
      <trkpt lat="43.13378" lon="3.07497">
        <ele>99.6</ele>
        <time>2021-08-21T16:09:50Z</time>
      </trkpt>
      <trkpt lat="43.13376" lon="3.07502">
        <ele>100.2</ele>
        <time>2021-08-21T16:09:52Z</time>
      </trkpt>
      <trkpt lat="43.13372" lon="3.07505">
        <ele>101</ele>
        <time>2021-08-21T16:09:54Z</time>
      </trkpt>
      <trkpt lat="43.13366" lon="3.07507">
        <ele>101.4</ele>
        <time>2021-08-21T16:09:57Z</time>
      </trkpt>
      <trkpt lat="43.13364" lon="3.07507">
        <ele>101.6</ele>
        <time>2021-08-21T16:09:58Z</time>
      </trkpt>
      <trkpt lat="43.13359" lon="3.07505">
        <ele>102.2</ele>
        <time>2021-08-21T16:10:00Z</time>
      </trkpt>
      <trkpt lat="43.13354" lon="3.07503">
        <ele>102.4</ele>
        <time>2021-08-21T16:10:02Z</time>
      </trkpt>
      <trkpt lat="43.13352" lon="3.07503">
        <ele>102.6</ele>
        <time>2021-08-21T16:10:03Z</time>
      </trkpt>
      <trkpt lat="43.13346" lon="3.075">
        <ele>103.2</ele>
        <time>2021-08-21T16:10:06Z</time>
      </trkpt>
      <trkpt lat="43.1334" lon="3.07499">
        <ele>103.8</ele>
        <time>2021-08-21T16:10:09Z</time>
      </trkpt>
      <trkpt lat="43.13337" lon="3.07498">
        <ele>104.4</ele>
        <time>2021-08-21T16:10:11Z</time>
      </trkpt>
      <trkpt lat="43.13329" lon="3.07495">
        <ele>105.4</ele>
        <time>2021-08-21T16:10:15Z</time>
      </trkpt>
      <trkpt lat="43.13327" lon="3.07494">
        <ele>105.6</ele>
        <time>2021-08-21T16:10:16Z</time>
      </trkpt>
      <trkpt lat="43.13319" lon="3.07492">
        <ele>106.6</ele>
        <time>2021-08-21T16:10:20Z</time>
      </trkpt>
      <trkpt lat="43.13315" lon="3.07493">
        <ele>107</ele>
        <time>2021-08-21T16:10:22Z</time>
      </trkpt>
      <trkpt lat="43.13306" lon="3.07489">
        <ele>107.8</ele>
        <time>2021-08-21T16:10:27Z</time>
      </trkpt>
      <trkpt lat="43.13297" lon="3.07487">
        <ele>108.4</ele>
        <time>2021-08-21T16:10:32Z</time>
      </trkpt>
      <trkpt lat="43.13293" lon="3.07485">
        <ele>108.8</ele>
        <time>2021-08-21T16:10:34Z</time>
      </trkpt>
      <trkpt lat="43.13283" lon="3.07483">
        <ele>109.6</ele>
        <time>2021-08-21T16:10:39Z</time>
      </trkpt>
      <trkpt lat="43.13281" lon="3.07482">
        <ele>110</ele>
        <time>2021-08-21T16:10:40Z</time>
      </trkpt>
      <trkpt lat="43.13271" lon="3.07477">
        <ele>111</ele>
        <time>2021-08-21T16:10:45Z</time>
      </trkpt>
      <trkpt lat="43.13269" lon="3.07476">
        <ele>111.4</ele>
        <time>2021-08-21T16:10:46Z</time>
      </trkpt>
      <trkpt lat="43.13261" lon="3.07474">
        <ele>112.2</ele>
        <time>2021-08-21T16:10:50Z</time>
      </trkpt>
      <trkpt lat="43.13256" lon="3.07473">
        <ele>112.6</ele>
        <time>2021-08-21T16:10:52Z</time>
      </trkpt>
      <trkpt lat="43.1325" lon="3.07474">
        <ele>113.4</ele>
        <time>2021-08-21T16:10:55Z</time>
      </trkpt>
      <trkpt lat="43.13245" lon="3.07475">
        <ele>114.2</ele>
        <time>2021-08-21T16:10:59Z</time>
      </trkpt>
      <trkpt lat="43.13245" lon="3.07475">
        <ele>114.4</ele>
        <time>2021-08-21T16:11:03Z</time>
      </trkpt>
      <trkpt lat="43.13245" lon="3.07475">
        <ele>114.4</ele>
        <time>2021-08-21T16:11:15Z</time>
      </trkpt>
      <trkpt lat="43.13245" lon="3.07475">
        <ele>114.2</ele>
        <time>2021-08-21T16:11:28Z</time>
      </trkpt>
      <trkpt lat="43.13244" lon="3.07476">
        <ele>114.2</ele>
        <time>2021-08-21T16:11:43Z</time>
      </trkpt>
      <trkpt lat="43.13244" lon="3.07478">
        <ele>114.4</ele>
        <time>2021-08-21T16:11:49Z</time>
      </trkpt>
      <trkpt lat="43.13244" lon="3.07478">
        <ele>113.8</ele>
        <time>2021-08-21T16:11:58Z</time>
      </trkpt>
      <trkpt lat="43.13244" lon="3.07478">
        <ele>113.8</ele>
        <time>2021-08-21T16:12:19Z</time>
      </trkpt>
      <trkpt lat="43.13244" lon="3.07477">
        <ele>113.8</ele>
        <time>2021-08-21T16:12:34Z</time>
      </trkpt>
      <trkpt lat="43.13244" lon="3.07477">
        <ele>113.6</ele>
        <time>2021-08-21T16:12:48Z</time>
      </trkpt>
      <trkpt lat="43.13244" lon="3.07476">
        <ele>114.4</ele>
        <time>2021-08-21T16:12:55Z</time>
      </trkpt>
      <trkpt lat="43.1324" lon="3.07478">
        <ele>114.4</ele>
        <time>2021-08-21T16:13:01Z</time>
      </trkpt>
      <trkpt lat="43.13231" lon="3.07481">
        <ele>113.4</ele>
        <time>2021-08-21T16:13:07Z</time>
      </trkpt>
      <trkpt lat="43.1323" lon="3.07481">
        <ele>113</ele>
        <time>2021-08-21T16:13:08Z</time>
      </trkpt>
      <trkpt lat="43.13224" lon="3.07484">
        <ele>112</ele>
        <time>2021-08-21T16:13:11Z</time>
      </trkpt>
      <trkpt lat="43.13223" lon="3.07485">
        <ele>111.4</ele>
        <time>2021-08-21T16:13:12Z</time>
      </trkpt>
      <trkpt lat="43.13221" lon="3.07488">
        <ele>110.4</ele>
        <time>2021-08-21T16:13:14Z</time>
      </trkpt>
      <trkpt lat="43.13218" lon="3.07495">
        <ele>109</ele>
        <time>2021-08-21T16:13:17Z</time>
      </trkpt>
      <trkpt lat="43.13217" lon="3.07496">
        <ele>108.8</ele>
        <time>2021-08-21T16:13:18Z</time>
      </trkpt>
      <trkpt lat="43.13215" lon="3.07504">
        <ele>107.8</ele>
        <time>2021-08-21T16:13:21Z</time>
      </trkpt>
      <trkpt lat="43.13214" lon="3.07511">
        <ele>106.6</ele>
        <time>2021-08-21T16:13:24Z</time>
      </trkpt>
      <trkpt lat="43.1321" lon="3.07518">
        <ele>105.6</ele>
        <time>2021-08-21T16:13:27Z</time>
      </trkpt>
      <trkpt lat="43.13205" lon="3.07525">
        <ele>103.8</ele>
        <time>2021-08-21T16:13:31Z</time>
      </trkpt>
      <trkpt lat="43.13203" lon="3.07526">
        <ele>102.8</ele>
        <time>2021-08-21T16:13:33Z</time>
      </trkpt>
      <trkpt lat="43.13203" lon="3.07526">
        <ele>101.6</ele>
        <time>2021-08-21T16:13:35Z</time>
      </trkpt>
      <trkpt lat="43.13203" lon="3.07526">
        <ele>101.2</ele>
        <time>2021-08-21T16:13:36Z</time>
      </trkpt>
      <trkpt lat="43.13202" lon="3.07522">
        <ele>100.8</ele>
        <time>2021-08-21T16:13:41Z</time>
      </trkpt>
      <trkpt lat="43.13202" lon="3.0752">
        <ele>100.8</ele>
        <time>2021-08-21T16:13:42Z</time>
      </trkpt>
      <trkpt lat="43.13203" lon="3.07518">
        <ele>101</ele>
        <time>2021-08-21T16:13:47Z</time>
      </trkpt>
      <trkpt lat="43.13204" lon="3.07514">
        <ele>101.4</ele>
        <time>2021-08-21T16:13:53Z</time>
      </trkpt>
      <trkpt lat="43.13204" lon="3.07508">
        <ele>101.8</ele>
        <time>2021-08-21T16:14:01Z</time>
      </trkpt>
      <trkpt lat="43.13204" lon="3.07507">
        <ele>101.8</ele>
        <time>2021-08-21T16:14:08Z</time>
      </trkpt>
      <trkpt lat="43.13202" lon="3.07505">
        <ele>101.8</ele>
        <time>2021-08-21T16:14:09Z</time>
      </trkpt>
      <trkpt lat="43.13198" lon="3.07499">
        <ele>101.6</ele>
        <time>2021-08-21T16:14:12Z</time>
      </trkpt>
      <trkpt lat="43.13195" lon="3.07493">
        <ele>101</ele>
        <time>2021-08-21T16:14:14Z</time>
      </trkpt>
      <trkpt lat="43.13193" lon="3.07491">
        <ele>100.6</ele>
        <time>2021-08-21T16:14:15Z</time>
      </trkpt>
      <trkpt lat="43.13191" lon="3.0749">
        <ele>100</ele>
        <time>2021-08-21T16:14:16Z</time>
      </trkpt>
      <trkpt lat="43.1319" lon="3.07487">
        <ele>99.6</ele>
        <time>2021-08-21T16:14:17Z</time>
      </trkpt>
      <trkpt lat="43.13189" lon="3.07482">
        <ele>98.2</ele>
        <time>2021-08-21T16:14:19Z</time>
      </trkpt>
      <trkpt lat="43.1319" lon="3.0748">
        <ele>97.8</ele>
        <time>2021-08-21T16:14:20Z</time>
      </trkpt>
      <trkpt lat="43.13189" lon="3.07471">
        <ele>97.2</ele>
        <time>2021-08-21T16:14:24Z</time>
      </trkpt>
      <trkpt lat="43.13182" lon="3.0746">
        <ele>97.4</ele>
        <time>2021-08-21T16:14:28Z</time>
      </trkpt>
      <trkpt lat="43.13181" lon="3.07452">
        <ele>97</ele>
        <time>2021-08-21T16:14:30Z</time>
      </trkpt>
      <trkpt lat="43.13181" lon="3.07443">
        <ele>96.4</ele>
        <time>2021-08-21T16:14:33Z</time>
      </trkpt>
      <trkpt lat="43.13178" lon="3.07428">
        <ele>97.2</ele>
        <time>2021-08-21T16:14:38Z</time>
      </trkpt>
      <trkpt lat="43.13177" lon="3.07422">
        <ele>97.4</ele>
        <time>2021-08-21T16:14:40Z</time>
      </trkpt>
      <trkpt lat="43.13173" lon="3.07414">
        <ele>97.8</ele>
        <time>2021-08-21T16:14:43Z</time>
      </trkpt>
      <trkpt lat="43.13167" lon="3.07396">
        <ele>97.6</ele>
        <time>2021-08-21T16:14:47Z</time>
      </trkpt>
      <trkpt lat="43.13165" lon="3.07384">
        <ele>97.8</ele>
        <time>2021-08-21T16:14:51Z</time>
      </trkpt>
      <trkpt lat="43.13165" lon="3.07381">
        <ele>97.8</ele>
        <time>2021-08-21T16:14:52Z</time>
      </trkpt>
      <trkpt lat="43.13164" lon="3.07379">
        <ele>98</ele>
        <time>2021-08-21T16:14:53Z</time>
      </trkpt>
      <trkpt lat="43.13163" lon="3.07373">
        <ele>98.2</ele>
        <time>2021-08-21T16:14:55Z</time>
      </trkpt>
      <trkpt lat="43.13161" lon="3.07365">
        <ele>98.4</ele>
        <time>2021-08-21T16:14:58Z</time>
      </trkpt>
      <trkpt lat="43.13156" lon="3.07346">
        <ele>98.6</ele>
        <time>2021-08-21T16:15:03Z</time>
      </trkpt>
      <trkpt lat="43.13148" lon="3.07324">
        <ele>98.6</ele>
        <time>2021-08-21T16:15:09Z</time>
      </trkpt>
      <trkpt lat="43.13147" lon="3.07303">
        <ele>98</ele>
        <time>2021-08-21T16:15:13Z</time>
      </trkpt>
      <trkpt lat="43.13148" lon="3.07289">
        <ele>98</ele>
        <time>2021-08-21T16:15:18Z</time>
      </trkpt>
      <trkpt lat="43.13147" lon="3.07276">
        <ele>98.6</ele>
        <time>2021-08-21T16:15:23Z</time>
      </trkpt>
      <trkpt lat="43.13149" lon="3.07259">
        <ele>98.4</ele>
        <time>2021-08-21T16:15:27Z</time>
      </trkpt>
      <trkpt lat="43.13151" lon="3.07246">
        <ele>97.8</ele>
        <time>2021-08-21T16:15:32Z</time>
      </trkpt>
      <trkpt lat="43.1315" lon="3.07245">
        <ele>97.8</ele>
        <time>2021-08-21T16:15:33Z</time>
      </trkpt>
      <trkpt lat="43.13148" lon="3.0724">
        <ele>97.2</ele>
        <time>2021-08-21T16:15:36Z</time>
      </trkpt>
      <trkpt lat="43.13147" lon="3.07238">
        <ele>96.8</ele>
        <time>2021-08-21T16:15:37Z</time>
      </trkpt>
      <trkpt lat="43.13145" lon="3.07228">
        <ele>95.4</ele>
        <time>2021-08-21T16:15:40Z</time>
      </trkpt>
      <trkpt lat="43.13145" lon="3.07218">
        <ele>94.2</ele>
        <time>2021-08-21T16:15:42Z</time>
      </trkpt>
      <trkpt lat="43.13144" lon="3.07205">
        <ele>93</ele>
        <time>2021-08-21T16:15:45Z</time>
      </trkpt>
      <trkpt lat="43.13143" lon="3.07197">
        <ele>92.4</ele>
        <time>2021-08-21T16:15:47Z</time>
      </trkpt>
      <trkpt lat="43.1314" lon="3.07186">
        <ele>91.6</ele>
        <time>2021-08-21T16:15:49Z</time>
      </trkpt>
      <trkpt lat="43.13139" lon="3.07181">
        <ele>91</ele>
        <time>2021-08-21T16:15:50Z</time>
      </trkpt>
      <trkpt lat="43.13136" lon="3.07178">
        <ele>90.2</ele>
        <time>2021-08-21T16:15:51Z</time>
      </trkpt>
      <trkpt lat="43.13132" lon="3.07173">
        <ele>89</ele>
        <time>2021-08-21T16:15:53Z</time>
      </trkpt>
      <trkpt lat="43.13129" lon="3.0716">
        <ele>87.4</ele>
        <time>2021-08-21T16:15:56Z</time>
      </trkpt>
      <trkpt lat="43.13128" lon="3.07146">
        <ele>86.2</ele>
        <time>2021-08-21T16:15:59Z</time>
      </trkpt>
      <trkpt lat="43.13128" lon="3.07134">
        <ele>85.2</ele>
        <time>2021-08-21T16:16:02Z</time>
      </trkpt>
      <trkpt lat="43.13125" lon="3.07131">
        <ele>84.6</ele>
        <time>2021-08-21T16:16:04Z</time>
      </trkpt>
      <trkpt lat="43.13122" lon="3.07126">
        <ele>84.4</ele>
        <time>2021-08-21T16:16:06Z</time>
      </trkpt>
      <trkpt lat="43.1312" lon="3.07119">
        <ele>83.8</ele>
        <time>2021-08-21T16:16:08Z</time>
      </trkpt>
      <trkpt lat="43.13119" lon="3.07114">
        <ele>82.8</ele>
        <time>2021-08-21T16:16:10Z</time>
      </trkpt>
      <trkpt lat="43.13118" lon="3.07112">
        <ele>82.4</ele>
        <time>2021-08-21T16:16:11Z</time>
      </trkpt>
      <trkpt lat="43.13111" lon="3.07106">
        <ele>81.4</ele>
        <time>2021-08-21T16:16:14Z</time>
      </trkpt>
      <trkpt lat="43.13107" lon="3.07102">
        <ele>81</ele>
        <time>2021-08-21T16:16:15Z</time>
      </trkpt>
      <trkpt lat="43.13105" lon="3.07099">
        <ele>80.4</ele>
        <time>2021-08-21T16:16:16Z</time>
      </trkpt>
      <trkpt lat="43.131" lon="3.07087">
        <ele>79</ele>
        <time>2021-08-21T16:16:18Z</time>
      </trkpt>
      <trkpt lat="43.13099" lon="3.07081">
        <ele>77.6</ele>
        <time>2021-08-21T16:16:19Z</time>
      </trkpt>
      <trkpt lat="43.13097" lon="3.07077">
        <ele>77</ele>
        <time>2021-08-21T16:16:20Z</time>
      </trkpt>
      <trkpt lat="43.13094" lon="3.07074">
        <ele>76.6</ele>
        <time>2021-08-21T16:16:21Z</time>
      </trkpt>
      <trkpt lat="43.13086" lon="3.07064">
        <ele>76</ele>
        <time>2021-08-21T16:16:23Z</time>
      </trkpt>
      <trkpt lat="43.13083" lon="3.07058">
        <ele>75.6</ele>
        <time>2021-08-21T16:16:24Z</time>
      </trkpt>
      <trkpt lat="43.1308" lon="3.07046">
        <ele>74.2</ele>
        <time>2021-08-21T16:16:26Z</time>
      </trkpt>
      <trkpt lat="43.1308" lon="3.0704">
        <ele>73.6</ele>
        <time>2021-08-21T16:16:27Z</time>
      </trkpt>
      <trkpt lat="43.1308" lon="3.07036">
        <ele>73.2</ele>
        <time>2021-08-21T16:16:28Z</time>
      </trkpt>
      <trkpt lat="43.13077" lon="3.07026">
        <ele>73</ele>
        <time>2021-08-21T16:16:31Z</time>
      </trkpt>
      <trkpt lat="43.13076" lon="3.07006">
        <ele>72.6</ele>
        <time>2021-08-21T16:16:35Z</time>
      </trkpt>
      <trkpt lat="43.13074" lon="3.06998">
        <ele>72.4</ele>
        <time>2021-08-21T16:16:37Z</time>
      </trkpt>
      <trkpt lat="43.13072" lon="3.06987">
        <ele>72.2</ele>
        <time>2021-08-21T16:16:39Z</time>
      </trkpt>
      <trkpt lat="43.13071" lon="3.06982">
        <ele>72.2</ele>
        <time>2021-08-21T16:16:40Z</time>
      </trkpt>
      <trkpt lat="43.13068" lon="3.06969">
        <ele>71.4</ele>
        <time>2021-08-21T16:16:45Z</time>
      </trkpt>
      <trkpt lat="43.13068" lon="3.06969">
        <ele>71.2</ele>
        <time>2021-08-21T16:16:46Z</time>
      </trkpt>
      <trkpt lat="43.13067" lon="3.06968">
        <ele>71</ele>
        <time>2021-08-21T16:16:55Z</time>
      </trkpt>
      <trkpt lat="43.13065" lon="3.06968">
        <ele>71</ele>
        <time>2021-08-21T16:16:56Z</time>
      </trkpt>
      <trkpt lat="43.13062" lon="3.06966">
        <ele>70.8</ele>
        <time>2021-08-21T16:16:59Z</time>
      </trkpt>
      <trkpt lat="43.13058" lon="3.06969">
        <ele>70</ele>
        <time>2021-08-21T16:17:02Z</time>
      </trkpt>
      <trkpt lat="43.13054" lon="3.06971">
        <ele>69.4</ele>
        <time>2021-08-21T16:17:05Z</time>
      </trkpt>
      <trkpt lat="43.13052" lon="3.06973">
        <ele>68.8</ele>
        <time>2021-08-21T16:17:07Z</time>
      </trkpt>
      <trkpt lat="43.13049" lon="3.06976">
        <ele>67.8</ele>
        <time>2021-08-21T16:17:10Z</time>
      </trkpt>
      <trkpt lat="43.13044" lon="3.0698">
        <ele>66.6</ele>
        <time>2021-08-21T16:17:13Z</time>
      </trkpt>
      <trkpt lat="43.13038" lon="3.06992">
        <ele>65.2</ele>
        <time>2021-08-21T16:17:16Z</time>
      </trkpt>
      <trkpt lat="43.13039" lon="3.06998">
        <ele>64.8</ele>
        <time>2021-08-21T16:17:17Z</time>
      </trkpt>
      <trkpt lat="43.1304" lon="3.07002">
        <ele>64</ele>
        <time>2021-08-21T16:17:18Z</time>
      </trkpt>
      <trkpt lat="43.13043" lon="3.0701">
        <ele>63</ele>
        <time>2021-08-21T16:17:20Z</time>
      </trkpt>
      <trkpt lat="43.13044" lon="3.07015">
        <ele>62.8</ele>
        <time>2021-08-21T16:17:21Z</time>
      </trkpt>
      <trkpt lat="43.1305" lon="3.07044">
        <ele>63.4</ele>
        <time>2021-08-21T16:17:28Z</time>
      </trkpt>
      <trkpt lat="43.13051" lon="3.07055">
        <ele>64.2</ele>
        <time>2021-08-21T16:17:31Z</time>
      </trkpt>
      <trkpt lat="43.13051" lon="3.07071">
        <ele>65</ele>
        <time>2021-08-21T16:17:35Z</time>
      </trkpt>
      <trkpt lat="43.13051" lon="3.07075">
        <ele>65.2</ele>
        <time>2021-08-21T16:17:36Z</time>
      </trkpt>
      <trkpt lat="43.1305" lon="3.07102">
        <ele>66.2</ele>
        <time>2021-08-21T16:17:42Z</time>
      </trkpt>
      <trkpt lat="43.1305" lon="3.07112">
        <ele>66.6</ele>
        <time>2021-08-21T16:17:44Z</time>
      </trkpt>
      <trkpt lat="43.1305" lon="3.07126">
        <ele>67.4</ele>
        <time>2021-08-21T16:17:47Z</time>
      </trkpt>
      <trkpt lat="43.13048" lon="3.07145">
        <ele>68.2</ele>
        <time>2021-08-21T16:17:51Z</time>
      </trkpt>
      <trkpt lat="43.13047" lon="3.07149">
        <ele>68.6</ele>
        <time>2021-08-21T16:17:52Z</time>
      </trkpt>
      <trkpt lat="43.13044" lon="3.07167">
        <ele>70</ele>
        <time>2021-08-21T16:17:56Z</time>
      </trkpt>
      <trkpt lat="43.13044" lon="3.07176">
        <ele>70.8</ele>
        <time>2021-08-21T16:17:58Z</time>
      </trkpt>
      <trkpt lat="43.13044" lon="3.07181">
        <ele>71.2</ele>
        <time>2021-08-21T16:17:59Z</time>
      </trkpt>
      <trkpt lat="43.13044" lon="3.07195">
        <ele>72.2</ele>
        <time>2021-08-21T16:18:02Z</time>
      </trkpt>
      <trkpt lat="43.13044" lon="3.07204">
        <ele>72.6</ele>
        <time>2021-08-21T16:18:04Z</time>
      </trkpt>
      <trkpt lat="43.13045" lon="3.0722">
        <ele>73.4</ele>
        <time>2021-08-21T16:18:08Z</time>
      </trkpt>
      <trkpt lat="43.13045" lon="3.07238">
        <ele>74.2</ele>
        <time>2021-08-21T16:18:13Z</time>
      </trkpt>
      <trkpt lat="43.13044" lon="3.07252">
        <ele>74.6</ele>
        <time>2021-08-21T16:18:16Z</time>
      </trkpt>
      <trkpt lat="43.13044" lon="3.07269">
        <ele>75.8</ele>
        <time>2021-08-21T16:18:20Z</time>
      </trkpt>
      <trkpt lat="43.13043" lon="3.07298">
        <ele>76.8</ele>
        <time>2021-08-21T16:18:27Z</time>
      </trkpt>
      <trkpt lat="43.13046" lon="3.07329">
        <ele>78</ele>
        <time>2021-08-21T16:18:33Z</time>
      </trkpt>
      <trkpt lat="43.13047" lon="3.07334">
        <ele>78.2</ele>
        <time>2021-08-21T16:18:34Z</time>
      </trkpt>
      <trkpt lat="43.13049" lon="3.07369">
        <ele>78.6</ele>
        <time>2021-08-21T16:18:40Z</time>
      </trkpt>
      <trkpt lat="43.13047" lon="3.0741">
        <ele>77.2</ele>
        <time>2021-08-21T16:18:45Z</time>
      </trkpt>
      <trkpt lat="43.13046" lon="3.07419">
        <ele>76.8</ele>
        <time>2021-08-21T16:18:46Z</time>
      </trkpt>
      <trkpt lat="43.13046" lon="3.07439">
        <ele>75.6</ele>
        <time>2021-08-21T16:18:48Z</time>
      </trkpt>
      <trkpt lat="43.13045" lon="3.07468">
        <ele>74.4</ele>
        <time>2021-08-21T16:18:51Z</time>
      </trkpt>
      <trkpt lat="43.13044" lon="3.07478">
        <ele>74</ele>
        <time>2021-08-21T16:18:52Z</time>
      </trkpt>
      <trkpt lat="43.13041" lon="3.07489">
        <ele>73.6</ele>
        <time>2021-08-21T16:18:53Z</time>
      </trkpt>
      <trkpt lat="43.13038" lon="3.07498">
        <ele>73</ele>
        <time>2021-08-21T16:18:54Z</time>
      </trkpt>
      <trkpt lat="43.13032" lon="3.07506">
        <ele>72.6</ele>
        <time>2021-08-21T16:18:55Z</time>
      </trkpt>
      <trkpt lat="43.13026" lon="3.07513">
        <ele>72</ele>
        <time>2021-08-21T16:18:56Z</time>
      </trkpt>
      <trkpt lat="43.1302" lon="3.0752">
        <ele>71.6</ele>
        <time>2021-08-21T16:18:57Z</time>
      </trkpt>
      <trkpt lat="43.13009" lon="3.07534">
        <ele>71</ele>
        <time>2021-08-21T16:18:59Z</time>
      </trkpt>
      <trkpt lat="43.13004" lon="3.07541">
        <ele>70.8</ele>
        <time>2021-08-21T16:19:00Z</time>
      </trkpt>
      <trkpt lat="43.13001" lon="3.07549">
        <ele>70.6</ele>
        <time>2021-08-21T16:19:01Z</time>
      </trkpt>
      <trkpt lat="43.12997" lon="3.07565">
        <ele>70.4</ele>
        <time>2021-08-21T16:19:03Z</time>
      </trkpt>
      <trkpt lat="43.12988" lon="3.076">
        <ele>70.4</ele>
        <time>2021-08-21T16:19:08Z</time>
      </trkpt>
      <trkpt lat="43.12986" lon="3.07603">
        <ele>70.6</ele>
        <time>2021-08-21T16:19:09Z</time>
      </trkpt>
      <trkpt lat="43.12989" lon="3.07604">
        <ele>71</ele>
        <time>2021-08-21T16:19:12Z</time>
      </trkpt>
      <trkpt lat="43.12991" lon="3.07595">
        <ele>71.6</ele>
        <time>2021-08-21T16:19:14Z</time>
      </trkpt>
      <trkpt lat="43.12993" lon="3.07582">
        <ele>71.8</ele>
        <time>2021-08-21T16:19:16Z</time>
      </trkpt>
      <trkpt lat="43.12999" lon="3.07554">
        <ele>71.8</ele>
        <time>2021-08-21T16:19:22Z</time>
      </trkpt>
      <trkpt lat="43.13003" lon="3.0755">
        <ele>71.6</ele>
        <time>2021-08-21T16:19:27Z</time>
      </trkpt>
      <trkpt lat="43.12999" lon="3.07561">
        <ele>71.6</ele>
        <time>2021-08-21T16:19:30Z</time>
      </trkpt>
      <trkpt lat="43.12997" lon="3.07565">
        <ele>71.6</ele>
        <time>2021-08-21T16:19:31Z</time>
      </trkpt>
      <trkpt lat="43.12993" lon="3.07582">
        <ele>71.6</ele>
        <time>2021-08-21T16:19:34Z</time>
      </trkpt>
      <trkpt lat="43.12991" lon="3.07587">
        <ele>71.6</ele>
        <time>2021-08-21T16:19:35Z</time>
      </trkpt>
      <trkpt lat="43.12986" lon="3.07604">
        <ele>71.4</ele>
        <time>2021-08-21T16:19:38Z</time>
      </trkpt>
      <trkpt lat="43.12983" lon="3.07622">
        <ele>71.4</ele>
        <time>2021-08-21T16:19:41Z</time>
      </trkpt>
      <trkpt lat="43.12983" lon="3.07634">
        <ele>71.6</ele>
        <time>2021-08-21T16:19:43Z</time>
      </trkpt>
      <trkpt lat="43.12984" lon="3.07652">
        <ele>72.2</ele>
        <time>2021-08-21T16:19:46Z</time>
      </trkpt>
      <trkpt lat="43.12985" lon="3.07657">
        <ele>72.4</ele>
        <time>2021-08-21T16:19:47Z</time>
      </trkpt>
      <trkpt lat="43.12983" lon="3.07667">
        <ele>72.8</ele>
        <time>2021-08-21T16:19:51Z</time>
      </trkpt>
      <trkpt lat="43.12979" lon="3.07669">
        <ele>73.4</ele>
        <time>2021-08-21T16:19:53Z</time>
      </trkpt>
      <trkpt lat="43.1297" lon="3.0767">
        <ele>73.4</ele>
        <time>2021-08-21T16:19:56Z</time>
      </trkpt>
      <trkpt lat="43.12961" lon="3.0768">
        <ele>72.4</ele>
        <time>2021-08-21T16:20:00Z</time>
      </trkpt>
      <trkpt lat="43.12957" lon="3.0769">
        <ele>71.4</ele>
        <time>2021-08-21T16:20:02Z</time>
      </trkpt>
      <trkpt lat="43.12956" lon="3.07695">
        <ele>70.8</ele>
        <time>2021-08-21T16:20:03Z</time>
      </trkpt>
      <trkpt lat="43.12954" lon="3.07702">
        <ele>70.4</ele>
        <time>2021-08-21T16:20:04Z</time>
      </trkpt>
      <trkpt lat="43.12949" lon="3.0771">
        <ele>69.8</ele>
        <time>2021-08-21T16:20:06Z</time>
      </trkpt>
      <trkpt lat="43.12947" lon="3.0771">
        <ele>69.4</ele>
        <time>2021-08-21T16:20:07Z</time>
      </trkpt>
      <trkpt lat="43.12942" lon="3.07709">
        <ele>69.4</ele>
        <time>2021-08-21T16:20:09Z</time>
      </trkpt>
      <trkpt lat="43.1294" lon="3.07709">
        <ele>69.4</ele>
        <time>2021-08-21T16:20:10Z</time>
      </trkpt>
      <trkpt lat="43.12929" lon="3.07704">
        <ele>70.8</ele>
        <time>2021-08-21T16:20:16Z</time>
      </trkpt>
      <trkpt lat="43.12925" lon="3.07701">
        <ele>71.2</ele>
        <time>2021-08-21T16:20:18Z</time>
      </trkpt>
      <trkpt lat="43.12917" lon="3.07697">
        <ele>72</ele>
        <time>2021-08-21T16:20:21Z</time>
      </trkpt>
      <trkpt lat="43.12909" lon="3.07693">
        <ele>72.4</ele>
        <time>2021-08-21T16:20:24Z</time>
      </trkpt>
      <trkpt lat="43.12897" lon="3.07688">
        <ele>71.4</ele>
        <time>2021-08-21T16:20:30Z</time>
      </trkpt>
      <trkpt lat="43.12891" lon="3.07687">
        <ele>70.8</ele>
        <time>2021-08-21T16:20:32Z</time>
      </trkpt>
      <trkpt lat="43.12883" lon="3.07684">
        <ele>69.6</ele>
        <time>2021-08-21T16:20:35Z</time>
      </trkpt>
      <trkpt lat="43.12879" lon="3.07683">
        <ele>68.6</ele>
        <time>2021-08-21T16:20:37Z</time>
      </trkpt>
      <trkpt lat="43.12875" lon="3.07681">
        <ele>67.6</ele>
        <time>2021-08-21T16:20:39Z</time>
      </trkpt>
      <trkpt lat="43.12873" lon="3.0768">
        <ele>67</ele>
        <time>2021-08-21T16:20:40Z</time>
      </trkpt>
      <trkpt lat="43.12871" lon="3.07679">
        <ele>66.6</ele>
        <time>2021-08-21T16:20:41Z</time>
      </trkpt>
      <trkpt lat="43.12867" lon="3.07678">
        <ele>65.4</ele>
        <time>2021-08-21T16:20:43Z</time>
      </trkpt>
      <trkpt lat="43.12863" lon="3.07676">
        <ele>64</ele>
        <time>2021-08-21T16:20:45Z</time>
      </trkpt>
      <trkpt lat="43.1286" lon="3.07674">
        <ele>63</ele>
        <time>2021-08-21T16:20:47Z</time>
      </trkpt>
      <trkpt lat="43.12858" lon="3.07673">
        <ele>62.4</ele>
        <time>2021-08-21T16:20:48Z</time>
      </trkpt>
      <trkpt lat="43.12856" lon="3.07672">
        <ele>62</ele>
        <time>2021-08-21T16:20:49Z</time>
      </trkpt>
      <trkpt lat="43.12852" lon="3.07669">
        <ele>61</ele>
        <time>2021-08-21T16:20:51Z</time>
      </trkpt>
      <trkpt lat="43.12849" lon="3.07668">
        <ele>60.4</ele>
        <time>2021-08-21T16:20:52Z</time>
      </trkpt>
      <trkpt lat="43.12846" lon="3.07667">
        <ele>60</ele>
        <time>2021-08-21T16:20:53Z</time>
      </trkpt>
      <trkpt lat="43.12841" lon="3.07664">
        <ele>58.8</ele>
        <time>2021-08-21T16:20:55Z</time>
      </trkpt>
      <trkpt lat="43.12839" lon="3.07663">
        <ele>58.2</ele>
        <time>2021-08-21T16:20:56Z</time>
      </trkpt>
      <trkpt lat="43.12836" lon="3.07661">
        <ele>57.6</ele>
        <time>2021-08-21T16:20:57Z</time>
      </trkpt>
      <trkpt lat="43.12832" lon="3.07658">
        <ele>57</ele>
        <time>2021-08-21T16:20:58Z</time>
      </trkpt>
      <trkpt lat="43.12829" lon="3.07654">
        <ele>56.4</ele>
        <time>2021-08-21T16:20:59Z</time>
      </trkpt>
      <trkpt lat="43.12823" lon="3.07651">
        <ele>55.4</ele>
        <time>2021-08-21T16:21:01Z</time>
      </trkpt>
      <trkpt lat="43.12819" lon="3.07647">
        <ele>54.2</ele>
        <time>2021-08-21T16:21:03Z</time>
      </trkpt>
      <trkpt lat="43.12816" lon="3.07641">
        <ele>53</ele>
        <time>2021-08-21T16:21:05Z</time>
      </trkpt>
      <trkpt lat="43.12815" lon="3.07635">
        <ele>52</ele>
        <time>2021-08-21T16:21:07Z</time>
      </trkpt>
      <trkpt lat="43.12815" lon="3.07632">
        <ele>51.2</ele>
        <time>2021-08-21T16:21:08Z</time>
      </trkpt>
      <trkpt lat="43.12816" lon="3.07626">
        <ele>50.4</ele>
        <time>2021-08-21T16:21:10Z</time>
      </trkpt>
      <trkpt lat="43.12816" lon="3.07621">
        <ele>50.2</ele>
        <time>2021-08-21T16:21:11Z</time>
      </trkpt>
      <trkpt lat="43.12817" lon="3.07616">
        <ele>49.8</ele>
        <time>2021-08-21T16:21:12Z</time>
      </trkpt>
      <trkpt lat="43.12816" lon="3.07606">
        <ele>48.8</ele>
        <time>2021-08-21T16:21:14Z</time>
      </trkpt>
      <trkpt lat="43.12811" lon="3.07593">
        <ele>47.8</ele>
        <time>2021-08-21T16:21:16Z</time>
      </trkpt>
      <trkpt lat="43.12797" lon="3.07587">
        <ele>46.4</ele>
        <time>2021-08-21T16:21:19Z</time>
      </trkpt>
      <trkpt lat="43.1278" lon="3.07573">
        <ele>45.4</ele>
        <time>2021-08-21T16:21:23Z</time>
      </trkpt>
      <trkpt lat="43.12775" lon="3.0757">
        <ele>45.2</ele>
        <time>2021-08-21T16:21:24Z</time>
      </trkpt>
      <trkpt lat="43.12753" lon="3.07554">
        <ele>44.2</ele>
        <time>2021-08-21T16:21:28Z</time>
      </trkpt>
      <trkpt lat="43.12736" lon="3.07542">
        <ele>43</ele>
        <time>2021-08-21T16:21:31Z</time>
      </trkpt>
      <trkpt lat="43.1273" lon="3.07537">
        <ele>42</ele>
        <time>2021-08-21T16:21:32Z</time>
      </trkpt>
      <trkpt lat="43.12725" lon="3.07532">
        <ele>41.6</ele>
        <time>2021-08-21T16:21:33Z</time>
      </trkpt>
      <trkpt lat="43.12707" lon="3.07518">
        <ele>40</ele>
        <time>2021-08-21T16:21:36Z</time>
      </trkpt>
      <trkpt lat="43.12696" lon="3.07507">
        <ele>38.6</ele>
        <time>2021-08-21T16:21:38Z</time>
      </trkpt>
      <trkpt lat="43.12685" lon="3.07496">
        <ele>37.4</ele>
        <time>2021-08-21T16:21:40Z</time>
      </trkpt>
      <trkpt lat="43.1267" lon="3.07479">
        <ele>36.2</ele>
        <time>2021-08-21T16:21:43Z</time>
      </trkpt>
      <trkpt lat="43.12663" lon="3.07474">
        <ele>36.2</ele>
        <time>2021-08-21T16:21:44Z</time>
      </trkpt>
      <trkpt lat="43.12637" lon="3.07463">
        <ele>35</ele>
        <time>2021-08-21T16:21:48Z</time>
      </trkpt>
      <trkpt lat="43.12617" lon="3.07457">
        <ele>34</ele>
        <time>2021-08-21T16:21:51Z</time>
      </trkpt>
      <trkpt lat="43.12598" lon="3.0745">
        <ele>32.8</ele>
        <time>2021-08-21T16:21:54Z</time>
      </trkpt>
      <trkpt lat="43.12593" lon="3.07448">
        <ele>32.4</ele>
        <time>2021-08-21T16:21:55Z</time>
      </trkpt>
      <trkpt lat="43.12582" lon="3.07443">
        <ele>31.6</ele>
        <time>2021-08-21T16:21:57Z</time>
      </trkpt>
      <trkpt lat="43.12558" lon="3.07432">
        <ele>31.4</ele>
        <time>2021-08-21T16:22:02Z</time>
      </trkpt>
      <trkpt lat="43.12553" lon="3.07431">
        <ele>31.6</ele>
        <time>2021-08-21T16:22:03Z</time>
      </trkpt>
      <trkpt lat="43.12545" lon="3.07429">
        <ele>31.8</ele>
        <time>2021-08-21T16:22:05Z</time>
      </trkpt>
      <trkpt lat="43.1253" lon="3.07431">
        <ele>32</ele>
        <time>2021-08-21T16:22:08Z</time>
      </trkpt>
      <trkpt lat="43.125" lon="3.07441">
        <ele>30.4</ele>
        <time>2021-08-21T16:22:14Z</time>
      </trkpt>
      <trkpt lat="43.12488" lon="3.07445">
        <ele>29.2</ele>
        <time>2021-08-21T16:22:17Z</time>
      </trkpt>
      <trkpt lat="43.12484" lon="3.07448">
        <ele>28.8</ele>
        <time>2021-08-21T16:22:18Z</time>
      </trkpt>
      <trkpt lat="43.12478" lon="3.07455">
        <ele>28</ele>
        <time>2021-08-21T16:22:20Z</time>
      </trkpt>
      <trkpt lat="43.12468" lon="3.07472">
        <ele>26.8</ele>
        <time>2021-08-21T16:22:24Z</time>
      </trkpt>
      <trkpt lat="43.12467" lon="3.07478">
        <ele>26.4</ele>
        <time>2021-08-21T16:22:25Z</time>
      </trkpt>
      <trkpt lat="43.12463" lon="3.07496">
        <ele>25.4</ele>
        <time>2021-08-21T16:22:28Z</time>
      </trkpt>
      <trkpt lat="43.12461" lon="3.07501">
        <ele>25</ele>
        <time>2021-08-21T16:22:29Z</time>
      </trkpt>
      <trkpt lat="43.12455" lon="3.07509">
        <ele>24</ele>
        <time>2021-08-21T16:22:31Z</time>
      </trkpt>
      <trkpt lat="43.12451" lon="3.07517">
        <ele>23</ele>
        <time>2021-08-21T16:22:34Z</time>
      </trkpt>
      <trkpt lat="43.12451" lon="3.07517">
        <ele>22.8</ele>
        <time>2021-08-21T16:22:35Z</time>
      </trkpt>
      <trkpt lat="43.12451" lon="3.07517">
        <ele>22.4</ele>
        <time>2021-08-21T16:22:49Z</time>
      </trkpt>
      <trkpt lat="43.12451" lon="3.07521">
        <ele>22.6</ele>
        <time>2021-08-21T16:22:57Z</time>
      </trkpt>
      <trkpt lat="43.12453" lon="3.07525">
        <ele>22.6</ele>
        <time>2021-08-21T16:22:58Z</time>
      </trkpt>
      <trkpt lat="43.12459" lon="3.07551">
        <ele>22.4</ele>
        <time>2021-08-21T16:23:04Z</time>
      </trkpt>
      <trkpt lat="43.1247" lon="3.07575">
        <ele>22.6</ele>
        <time>2021-08-21T16:23:10Z</time>
      </trkpt>
      <trkpt lat="43.12482" lon="3.07608">
        <ele>23.2</ele>
        <time>2021-08-21T16:23:18Z</time>
      </trkpt>
      <trkpt lat="43.12492" lon="3.0764">
        <ele>23.8</ele>
        <time>2021-08-21T16:23:26Z</time>
      </trkpt>
      <trkpt lat="43.12496" lon="3.07652">
        <ele>24</ele>
        <time>2021-08-21T16:23:29Z</time>
      </trkpt>
      <trkpt lat="43.12503" lon="3.07673">
        <ele>24.8</ele>
        <time>2021-08-21T16:23:34Z</time>
      </trkpt>
      <trkpt lat="43.12506" lon="3.0768">
        <ele>25</ele>
        <time>2021-08-21T16:23:36Z</time>
      </trkpt>
      <trkpt lat="43.12514" lon="3.07695">
        <ele>25.6</ele>
        <time>2021-08-21T16:23:41Z</time>
      </trkpt>
      <trkpt lat="43.12521" lon="3.07704">
        <ele>26.2</ele>
        <time>2021-08-21T16:23:45Z</time>
      </trkpt>
      <trkpt lat="43.12525" lon="3.07709">
        <ele>26.2</ele>
        <time>2021-08-21T16:23:47Z</time>
      </trkpt>
      <trkpt lat="43.12527" lon="3.0772">
        <ele>26.8</ele>
        <time>2021-08-21T16:23:52Z</time>
      </trkpt>
      <trkpt lat="43.12527" lon="3.0772">
        <ele>27.2</ele>
        <time>2021-08-21T16:23:54Z</time>
      </trkpt>
      <trkpt lat="43.12527" lon="3.07721">
        <ele>28</ele>
        <time>2021-08-21T16:23:58Z</time>
      </trkpt>
      <trkpt lat="43.12524" lon="3.07723">
        <ele>28.2</ele>
        <time>2021-08-21T16:24:02Z</time>
      </trkpt>
      <trkpt lat="43.12524" lon="3.07726">
        <ele>28.2</ele>
        <time>2021-08-21T16:24:04Z</time>
      </trkpt>
      <trkpt lat="43.12522" lon="3.07731">
        <ele>28.2</ele>
        <time>2021-08-21T16:24:08Z</time>
      </trkpt>
      <trkpt lat="43.12521" lon="3.07733">
        <ele>28.2</ele>
        <time>2021-08-21T16:24:09Z</time>
      </trkpt>
      <trkpt lat="43.12513" lon="3.07752">
        <ele>28.2</ele>
        <time>2021-08-21T16:24:15Z</time>
      </trkpt>
      <trkpt lat="43.12516" lon="3.07769">
        <ele>28.2</ele>
        <time>2021-08-21T16:24:20Z</time>
      </trkpt>
      <trkpt lat="43.12524" lon="3.07784">
        <ele>28.4</ele>
        <time>2021-08-21T16:24:25Z</time>
      </trkpt>
      <trkpt lat="43.1253" lon="3.07799">
        <ele>28.6</ele>
        <time>2021-08-21T16:24:30Z</time>
      </trkpt>
      <trkpt lat="43.12539" lon="3.07812">
        <ele>29.2</ele>
        <time>2021-08-21T16:24:35Z</time>
      </trkpt>
      <trkpt lat="43.12544" lon="3.07819">
        <ele>29.8</ele>
        <time>2021-08-21T16:24:38Z</time>
      </trkpt>
      <trkpt lat="43.12553" lon="3.0783">
        <ele>30</ele>
        <time>2021-08-21T16:24:43Z</time>
      </trkpt>
      <trkpt lat="43.1256" lon="3.07839">
        <ele>30.4</ele>
        <time>2021-08-21T16:24:48Z</time>
      </trkpt>
      <trkpt lat="43.12562" lon="3.07841">
        <ele>30.4</ele>
        <time>2021-08-21T16:24:49Z</time>
      </trkpt>
      <trkpt lat="43.12564" lon="3.07845">
        <ele>30.6</ele>
        <time>2021-08-21T16:24:51Z</time>
      </trkpt>
      <trkpt lat="43.12567" lon="3.07852">
        <ele>30.8</ele>
        <time>2021-08-21T16:24:54Z</time>
      </trkpt>
      <trkpt lat="43.12569" lon="3.07867">
        <ele>31</ele>
        <time>2021-08-21T16:24:59Z</time>
      </trkpt>
      <trkpt lat="43.12569" lon="3.07869">
        <ele>31.2</ele>
        <time>2021-08-21T16:25:00Z</time>
      </trkpt>
      <trkpt lat="43.12568" lon="3.07875">
        <ele>31.4</ele>
        <time>2021-08-21T16:25:02Z</time>
      </trkpt>
      <trkpt lat="43.12568" lon="3.07878">
        <ele>31.6</ele>
        <time>2021-08-21T16:25:03Z</time>
      </trkpt>
      <trkpt lat="43.1257" lon="3.07889">
        <ele>32.2</ele>
        <time>2021-08-21T16:25:06Z</time>
      </trkpt>
      <trkpt lat="43.12574" lon="3.07899">
        <ele>32.6</ele>
        <time>2021-08-21T16:25:09Z</time>
      </trkpt>
      <trkpt lat="43.12576" lon="3.07904">
        <ele>32.6</ele>
        <time>2021-08-21T16:25:11Z</time>
      </trkpt>
      <trkpt lat="43.12585" lon="3.07924">
        <ele>33.6</ele>
        <time>2021-08-21T16:25:17Z</time>
      </trkpt>
      <trkpt lat="43.12592" lon="3.07938">
        <ele>34.2</ele>
        <time>2021-08-21T16:25:22Z</time>
      </trkpt>
      <trkpt lat="43.12598" lon="3.07951">
        <ele>34.8</ele>
        <time>2021-08-21T16:25:26Z</time>
      </trkpt>
      <trkpt lat="43.126" lon="3.07957">
        <ele>35</ele>
        <time>2021-08-21T16:25:28Z</time>
      </trkpt>
      <trkpt lat="43.12604" lon="3.07971">
        <ele>35.4</ele>
        <time>2021-08-21T16:25:32Z</time>
      </trkpt>
      <trkpt lat="43.12606" lon="3.07976">
        <ele>35.8</ele>
        <time>2021-08-21T16:25:34Z</time>
      </trkpt>
      <trkpt lat="43.12611" lon="3.07988">
        <ele>36.6</ele>
        <time>2021-08-21T16:25:38Z</time>
      </trkpt>
      <trkpt lat="43.12611" lon="3.07989">
        <ele>36.8</ele>
        <time>2021-08-21T16:25:39Z</time>
      </trkpt>
      <trkpt lat="43.12613" lon="3.08">
        <ele>38</ele>
        <time>2021-08-21T16:25:43Z</time>
      </trkpt>
      <trkpt lat="43.12615" lon="3.08008">
        <ele>39</ele>
        <time>2021-08-21T16:25:46Z</time>
      </trkpt>
      <trkpt lat="43.12615" lon="3.08013">
        <ele>40.4</ele>
        <time>2021-08-21T16:25:49Z</time>
      </trkpt>
      <trkpt lat="43.12616" lon="3.08019">
        <ele>41.2</ele>
        <time>2021-08-21T16:25:51Z</time>
      </trkpt>
      <trkpt lat="43.12616" lon="3.08021">
        <ele>41.6</ele>
        <time>2021-08-21T16:25:52Z</time>
      </trkpt>
      <trkpt lat="43.12616" lon="3.08028">
        <ele>42.4</ele>
        <time>2021-08-21T16:25:55Z</time>
      </trkpt>
      <trkpt lat="43.12615" lon="3.08031">
        <ele>42.8</ele>
        <time>2021-08-21T16:25:56Z</time>
      </trkpt>
      <trkpt lat="43.12615" lon="3.08032">
        <ele>43.4</ele>
        <time>2021-08-21T16:25:57Z</time>
      </trkpt>
      <trkpt lat="43.12615" lon="3.08037">
        <ele>43.8</ele>
        <time>2021-08-21T16:25:59Z</time>
      </trkpt>
      <trkpt lat="43.12616" lon="3.0804">
        <ele>44.2</ele>
        <time>2021-08-21T16:26:00Z</time>
      </trkpt>
      <trkpt lat="43.12618" lon="3.08045">
        <ele>44.6</ele>
        <time>2021-08-21T16:26:02Z</time>
      </trkpt>
      <trkpt lat="43.12618" lon="3.08048">
        <ele>45</ele>
        <time>2021-08-21T16:26:03Z</time>
      </trkpt>
      <trkpt lat="43.12621" lon="3.08058">
        <ele>46.2</ele>
        <time>2021-08-21T16:26:07Z</time>
      </trkpt>
      <trkpt lat="43.12622" lon="3.0806">
        <ele>46.6</ele>
        <time>2021-08-21T16:26:08Z</time>
      </trkpt>
      <trkpt lat="43.12623" lon="3.08065">
        <ele>47.4</ele>
        <time>2021-08-21T16:26:10Z</time>
      </trkpt>
      <trkpt lat="43.12626" lon="3.08071">
        <ele>48.6</ele>
        <time>2021-08-21T16:26:13Z</time>
      </trkpt>
      <trkpt lat="43.12628" lon="3.08073">
        <ele>49</ele>
        <time>2021-08-21T16:26:14Z</time>
      </trkpt>
      <trkpt lat="43.12633" lon="3.08077">
        <ele>50</ele>
        <time>2021-08-21T16:26:17Z</time>
      </trkpt>
      <trkpt lat="43.12638" lon="3.08078">
        <ele>51</ele>
        <time>2021-08-21T16:26:20Z</time>
      </trkpt>
      <trkpt lat="43.12643" lon="3.08083">
        <ele>52.4</ele>
        <time>2021-08-21T16:26:23Z</time>
      </trkpt>
      <trkpt lat="43.12644" lon="3.08087">
        <ele>53.2</ele>
        <time>2021-08-21T16:26:25Z</time>
      </trkpt>
      <trkpt lat="43.12644" lon="3.0809">
        <ele>53.4</ele>
        <time>2021-08-21T16:26:26Z</time>
      </trkpt>
      <trkpt lat="43.12642" lon="3.08098">
        <ele>54.6</ele>
        <time>2021-08-21T16:26:30Z</time>
      </trkpt>
      <trkpt lat="43.12641" lon="3.081">
        <ele>54.8</ele>
        <time>2021-08-21T16:26:31Z</time>
      </trkpt>
      <trkpt lat="43.12636" lon="3.08117">
        <ele>55.2</ele>
        <time>2021-08-21T16:26:38Z</time>
      </trkpt>
      <trkpt lat="43.12634" lon="3.08127">
        <ele>55.8</ele>
        <time>2021-08-21T16:26:42Z</time>
      </trkpt>
      <trkpt lat="43.12633" lon="3.08132">
        <ele>56</ele>
        <time>2021-08-21T16:26:44Z</time>
      </trkpt>
      <trkpt lat="43.12629" lon="3.08151">
        <ele>56.8</ele>
        <time>2021-08-21T16:26:51Z</time>
      </trkpt>
      <trkpt lat="43.12632" lon="3.08177">
        <ele>57.4</ele>
        <time>2021-08-21T16:26:58Z</time>
      </trkpt>
      <trkpt lat="43.12636" lon="3.08197">
        <ele>57.4</ele>
        <time>2021-08-21T16:27:05Z</time>
      </trkpt>
      <trkpt lat="43.12638" lon="3.08206">
        <ele>57.8</ele>
        <time>2021-08-21T16:27:09Z</time>
      </trkpt>
      <trkpt lat="43.12637" lon="3.08209">
        <ele>58</ele>
        <time>2021-08-21T16:27:11Z</time>
      </trkpt>
      <trkpt lat="43.12637" lon="3.0821">
        <ele>58.2</ele>
        <time>2021-08-21T16:27:18Z</time>
      </trkpt>
      <trkpt lat="43.12635" lon="3.08217">
        <ele>58.2</ele>
        <time>2021-08-21T16:27:24Z</time>
      </trkpt>
      <trkpt lat="43.12633" lon="3.0822">
        <ele>58.2</ele>
        <time>2021-08-21T16:27:25Z</time>
      </trkpt>
      <trkpt lat="43.12629" lon="3.08229">
        <ele>58.4</ele>
        <time>2021-08-21T16:27:28Z</time>
      </trkpt>
      <trkpt lat="43.12626" lon="3.08238">
        <ele>58.6</ele>
        <time>2021-08-21T16:27:31Z</time>
      </trkpt>
      <trkpt lat="43.12616" lon="3.08256">
        <ele>58.2</ele>
        <time>2021-08-21T16:27:36Z</time>
      </trkpt>
      <trkpt lat="43.12612" lon="3.08278">
        <ele>56.8</ele>
        <time>2021-08-21T16:27:40Z</time>
      </trkpt>
      <trkpt lat="43.12611" lon="3.08284">
        <ele>56.2</ele>
        <time>2021-08-21T16:27:41Z</time>
      </trkpt>
      <trkpt lat="43.12611" lon="3.08291">
        <ele>55.6</ele>
        <time>2021-08-21T16:27:42Z</time>
      </trkpt>
      <trkpt lat="43.12609" lon="3.08317">
        <ele>54.4</ele>
        <time>2021-08-21T16:27:45Z</time>
      </trkpt>
      <trkpt lat="43.12607" lon="3.08334">
        <ele>54</ele>
        <time>2021-08-21T16:27:47Z</time>
      </trkpt>
      <trkpt lat="43.12605" lon="3.08376">
        <ele>54</ele>
        <time>2021-08-21T16:27:53Z</time>
      </trkpt>
      <trkpt lat="43.12608" lon="3.08399">
        <ele>54.6</ele>
        <time>2021-08-21T16:27:57Z</time>
      </trkpt>
      <trkpt lat="43.12605" lon="3.08407">
        <ele>54.8</ele>
        <time>2021-08-21T16:27:59Z</time>
      </trkpt>
      <trkpt lat="43.12601" lon="3.08415">
        <ele>54.8</ele>
        <time>2021-08-21T16:28:01Z</time>
      </trkpt>
      <trkpt lat="43.12596" lon="3.08435">
        <ele>54.8</ele>
        <time>2021-08-21T16:28:04Z</time>
      </trkpt>
      <trkpt lat="43.12596" lon="3.08442">
        <ele>54.8</ele>
        <time>2021-08-21T16:28:05Z</time>
      </trkpt>
      <trkpt lat="43.12586" lon="3.08469">
        <ele>53.4</ele>
        <time>2021-08-21T16:28:10Z</time>
      </trkpt>
      <trkpt lat="43.12583" lon="3.08474">
        <ele>53.2</ele>
        <time>2021-08-21T16:28:11Z</time>
      </trkpt>
      <trkpt lat="43.12576" lon="3.08484">
        <ele>53</ele>
        <time>2021-08-21T16:28:13Z</time>
      </trkpt>
      <trkpt lat="43.12566" lon="3.08491">
        <ele>52.6</ele>
        <time>2021-08-21T16:28:15Z</time>
      </trkpt>
      <trkpt lat="43.12562" lon="3.08494">
        <ele>52.2</ele>
        <time>2021-08-21T16:28:16Z</time>
      </trkpt>
      <trkpt lat="43.12547" lon="3.08504">
        <ele>51.2</ele>
        <time>2021-08-21T16:28:19Z</time>
      </trkpt>
      <trkpt lat="43.12542" lon="3.08506">
        <ele>51</ele>
        <time>2021-08-21T16:28:20Z</time>
      </trkpt>
      <trkpt lat="43.12537" lon="3.08506">
        <ele>50.8</ele>
        <time>2021-08-21T16:28:21Z</time>
      </trkpt>
      <trkpt lat="43.12517" lon="3.08497">
        <ele>50.4</ele>
        <time>2021-08-21T16:28:25Z</time>
      </trkpt>
      <trkpt lat="43.12513" lon="3.08495">
        <ele>50.2</ele>
        <time>2021-08-21T16:28:26Z</time>
      </trkpt>
      <trkpt lat="43.12497" lon="3.08494">
        <ele>49.2</ele>
        <time>2021-08-21T16:28:30Z</time>
      </trkpt>
      <trkpt lat="43.12484" lon="3.08506">
        <ele>48.2</ele>
        <time>2021-08-21T16:28:34Z</time>
      </trkpt>
      <trkpt lat="43.12482" lon="3.0851">
        <ele>48</ele>
        <time>2021-08-21T16:28:35Z</time>
      </trkpt>
      <trkpt lat="43.12479" lon="3.08524">
        <ele>47.4</ele>
        <time>2021-08-21T16:28:38Z</time>
      </trkpt>
      <trkpt lat="43.12476" lon="3.08546">
        <ele>47</ele>
        <time>2021-08-21T16:28:42Z</time>
      </trkpt>
      <trkpt lat="43.12475" lon="3.08551">
        <ele>47</ele>
        <time>2021-08-21T16:28:43Z</time>
      </trkpt>
      <trkpt lat="43.12478" lon="3.08571">
        <ele>46.8</ele>
        <time>2021-08-21T16:28:48Z</time>
      </trkpt>
      <trkpt lat="43.12478" lon="3.08573">
        <ele>46.8</ele>
        <time>2021-08-21T16:28:49Z</time>
      </trkpt>
      <trkpt lat="43.12474" lon="3.08577">
        <ele>46.8</ele>
        <time>2021-08-21T16:28:52Z</time>
      </trkpt>
      <trkpt lat="43.12471" lon="3.08582">
        <ele>46.8</ele>
        <time>2021-08-21T16:28:54Z</time>
      </trkpt>
      <trkpt lat="43.12463" lon="3.08585">
        <ele>46.8</ele>
        <time>2021-08-21T16:28:56Z</time>
      </trkpt>
      <trkpt lat="43.12446" lon="3.08597">
        <ele>46</ele>
        <time>2021-08-21T16:29:01Z</time>
      </trkpt>
      <trkpt lat="43.12425" lon="3.08625">
        <ele>46.4</ele>
        <time>2021-08-21T16:29:09Z</time>
      </trkpt>
      <trkpt lat="43.12405" lon="3.08645">
        <ele>46.4</ele>
        <time>2021-08-21T16:29:16Z</time>
      </trkpt>
      <trkpt lat="43.12384" lon="3.08648">
        <ele>46.6</ele>
        <time>2021-08-21T16:29:22Z</time>
      </trkpt>
      <trkpt lat="43.12358" lon="3.0865">
        <ele>48.2</ele>
        <time>2021-08-21T16:29:30Z</time>
      </trkpt>
      <trkpt lat="43.12338" lon="3.08654">
        <ele>48.8</ele>
        <time>2021-08-21T16:29:36Z</time>
      </trkpt>
      <trkpt lat="43.12332" lon="3.08662">
        <ele>48.6</ele>
        <time>2021-08-21T16:29:38Z</time>
      </trkpt>
      <trkpt lat="43.12328" lon="3.08671">
        <ele>48.4</ele>
        <time>2021-08-21T16:29:40Z</time>
      </trkpt>
      <trkpt lat="43.12317" lon="3.08691">
        <ele>48.4</ele>
        <time>2021-08-21T16:29:46Z</time>
      </trkpt>
      <trkpt lat="43.12317" lon="3.08703">
        <ele>49.4</ele>
        <time>2021-08-21T16:29:51Z</time>
      </trkpt>
      <trkpt lat="43.12321" lon="3.08719">
        <ele>50.6</ele>
        <time>2021-08-21T16:29:56Z</time>
      </trkpt>
      <trkpt lat="43.12325" lon="3.08731">
        <ele>51.6</ele>
        <time>2021-08-21T16:30:00Z</time>
      </trkpt>
      <trkpt lat="43.12327" lon="3.0874">
        <ele>52.4</ele>
        <time>2021-08-21T16:30:03Z</time>
      </trkpt>
      <trkpt lat="43.12329" lon="3.08746">
        <ele>52.8</ele>
        <time>2021-08-21T16:30:05Z</time>
      </trkpt>
      <trkpt lat="43.1233" lon="3.08767">
        <ele>53.6</ele>
        <time>2021-08-21T16:30:11Z</time>
      </trkpt>
      <trkpt lat="43.12333" lon="3.0878">
        <ele>53.8</ele>
        <time>2021-08-21T16:30:14Z</time>
      </trkpt>
      <trkpt lat="43.12336" lon="3.088">
        <ele>54.8</ele>
        <time>2021-08-21T16:30:19Z</time>
      </trkpt>
      <trkpt lat="43.12337" lon="3.08804">
        <ele>55</ele>
        <time>2021-08-21T16:30:20Z</time>
      </trkpt>
      <trkpt lat="43.12342" lon="3.0883">
        <ele>56</ele>
        <time>2021-08-21T16:30:27Z</time>
      </trkpt>
      <trkpt lat="43.12343" lon="3.08852">
        <ele>56.8</ele>
        <time>2021-08-21T16:30:33Z</time>
      </trkpt>
      <trkpt lat="43.12342" lon="3.08857">
        <ele>57</ele>
        <time>2021-08-21T16:30:35Z</time>
      </trkpt>
      <trkpt lat="43.12342" lon="3.08858">
        <ele>57.6</ele>
        <time>2021-08-21T16:30:38Z</time>
      </trkpt>
      <trkpt lat="43.12342" lon="3.08858">
        <ele>58</ele>
        <time>2021-08-21T16:30:42Z</time>
      </trkpt>
      <trkpt lat="43.12342" lon="3.08858">
        <ele>58</ele>
        <time>2021-08-21T16:30:51Z</time>
      </trkpt>
      <trkpt lat="43.12346" lon="3.08857">
        <ele>58</ele>
        <time>2021-08-21T16:30:56Z</time>
      </trkpt>
      <trkpt lat="43.12349" lon="3.08855">
        <ele>58</ele>
        <time>2021-08-21T16:30:57Z</time>
      </trkpt>
      <trkpt lat="43.1236" lon="3.08858">
        <ele>57.8</ele>
        <time>2021-08-21T16:31:00Z</time>
      </trkpt>
      <trkpt lat="43.12373" lon="3.08857">
        <ele>57</ele>
        <time>2021-08-21T16:31:03Z</time>
      </trkpt>
      <trkpt lat="43.12378" lon="3.0886">
        <ele>56.8</ele>
        <time>2021-08-21T16:31:04Z</time>
      </trkpt>
      <trkpt lat="43.1239" lon="3.08863">
        <ele>56.2</ele>
        <time>2021-08-21T16:31:08Z</time>
      </trkpt>
      <trkpt lat="43.12391" lon="3.08862">
        <ele>56</ele>
        <time>2021-08-21T16:31:09Z</time>
      </trkpt>
      <trkpt lat="43.12402" lon="3.08865">
        <ele>54.8</ele>
        <time>2021-08-21T16:31:13Z</time>
      </trkpt>
      <trkpt lat="43.12405" lon="3.08868">
        <ele>54.6</ele>
        <time>2021-08-21T16:31:14Z</time>
      </trkpt>
      <trkpt lat="43.12408" lon="3.08867">
        <ele>54.2</ele>
        <time>2021-08-21T16:31:15Z</time>
      </trkpt>
      <trkpt lat="43.12415" lon="3.08871">
        <ele>54</ele>
        <time>2021-08-21T16:31:17Z</time>
      </trkpt>
      <trkpt lat="43.1242" lon="3.08873">
        <ele>53.8</ele>
        <time>2021-08-21T16:31:18Z</time>
      </trkpt>
      <trkpt lat="43.12424" lon="3.08875">
        <ele>53.6</ele>
        <time>2021-08-21T16:31:19Z</time>
      </trkpt>
      <trkpt lat="43.12429" lon="3.08879">
        <ele>53.2</ele>
        <time>2021-08-21T16:31:20Z</time>
      </trkpt>
      <trkpt lat="43.12433" lon="3.08885">
        <ele>52.8</ele>
        <time>2021-08-21T16:31:21Z</time>
      </trkpt>
      <trkpt lat="43.12454" lon="3.08914">
        <ele>51.8</ele>
        <time>2021-08-21T16:31:28Z</time>
      </trkpt>
      <trkpt lat="43.1246" lon="3.08917">
        <ele>51.6</ele>
        <time>2021-08-21T16:31:30Z</time>
      </trkpt>
      <trkpt lat="43.12461" lon="3.08921">
        <ele>51.4</ele>
        <time>2021-08-21T16:31:31Z</time>
      </trkpt>
      <trkpt lat="43.12463" lon="3.08926">
        <ele>50</ele>
        <time>2021-08-21T16:31:33Z</time>
      </trkpt>
      <trkpt lat="43.1247" lon="3.08938">
        <ele>48.8</ele>
        <time>2021-08-21T16:31:36Z</time>
      </trkpt>
      <trkpt lat="43.12474" lon="3.08947">
        <ele>48</ele>
        <time>2021-08-21T16:31:38Z</time>
      </trkpt>
      <trkpt lat="43.12475" lon="3.08952">
        <ele>47.6</ele>
        <time>2021-08-21T16:31:39Z</time>
      </trkpt>
      <trkpt lat="43.12481" lon="3.08974">
        <ele>46.8</ele>
        <time>2021-08-21T16:31:43Z</time>
      </trkpt>
      <trkpt lat="43.12482" lon="3.08978">
        <ele>46.6</ele>
        <time>2021-08-21T16:31:44Z</time>
      </trkpt>
      <trkpt lat="43.12484" lon="3.08998">
        <ele>46.2</ele>
        <time>2021-08-21T16:31:48Z</time>
      </trkpt>
      <trkpt lat="43.12491" lon="3.09028">
        <ele>45.4</ele>
        <time>2021-08-21T16:31:54Z</time>
      </trkpt>
      <trkpt lat="43.12492" lon="3.09048">
        <ele>44.6</ele>
        <time>2021-08-21T16:31:58Z</time>
      </trkpt>
      <trkpt lat="43.12493" lon="3.09055">
        <ele>44.4</ele>
        <time>2021-08-21T16:32:00Z</time>
      </trkpt>
      <trkpt lat="43.12494" lon="3.0906">
        <ele>44.4</ele>
        <time>2021-08-21T16:32:01Z</time>
      </trkpt>
      <trkpt lat="43.12492" lon="3.09075">
        <ele>44.6</ele>
        <time>2021-08-21T16:32:05Z</time>
      </trkpt>
      <trkpt lat="43.1249" lon="3.09098">
        <ele>44.8</ele>
        <time>2021-08-21T16:32:11Z</time>
      </trkpt>
      <trkpt lat="43.12488" lon="3.09119">
        <ele>45</ele>
        <time>2021-08-21T16:32:17Z</time>
      </trkpt>
      <trkpt lat="43.12486" lon="3.09129">
        <ele>44.6</ele>
        <time>2021-08-21T16:32:22Z</time>
      </trkpt>
      <trkpt lat="43.12488" lon="3.09134">
        <ele>44.4</ele>
        <time>2021-08-21T16:32:28Z</time>
      </trkpt>
      <trkpt lat="43.12488" lon="3.09135">
        <ele>44.4</ele>
        <time>2021-08-21T16:32:36Z</time>
      </trkpt>
      <trkpt lat="43.12488" lon="3.09136">
        <ele>44.2</ele>
        <time>2021-08-21T16:32:47Z</time>
      </trkpt>
      <trkpt lat="43.12488" lon="3.09139">
        <ele>44.4</ele>
        <time>2021-08-21T16:32:53Z</time>
      </trkpt>
      <trkpt lat="43.12487" lon="3.09149">
        <ele>44.4</ele>
        <time>2021-08-21T16:32:58Z</time>
      </trkpt>
      <trkpt lat="43.12486" lon="3.09174">
        <ele>44.4</ele>
        <time>2021-08-21T16:33:06Z</time>
      </trkpt>
      <trkpt lat="43.12483" lon="3.09192">
        <ele>45.2</ele>
        <time>2021-08-21T16:33:12Z</time>
      </trkpt>
      <trkpt lat="43.12483" lon="3.09198">
        <ele>45.4</ele>
        <time>2021-08-21T16:33:13Z</time>
      </trkpt>
      <trkpt lat="43.12482" lon="3.09201">
        <ele>45.6</ele>
        <time>2021-08-21T16:33:14Z</time>
      </trkpt>
      <trkpt lat="43.1248" lon="3.09217">
        <ele>45.8</ele>
        <time>2021-08-21T16:33:18Z</time>
      </trkpt>
      <trkpt lat="43.12483" lon="3.09234">
        <ele>44.4</ele>
        <time>2021-08-21T16:33:26Z</time>
      </trkpt>
      <trkpt lat="43.12487" lon="3.09241">
        <ele>43.4</ele>
        <time>2021-08-21T16:33:29Z</time>
      </trkpt>
      <trkpt lat="43.12489" lon="3.09241">
        <ele>42.8</ele>
        <time>2021-08-21T16:33:30Z</time>
      </trkpt>
      <trkpt lat="43.12492" lon="3.0924">
        <ele>41.8</ele>
        <time>2021-08-21T16:33:32Z</time>
      </trkpt>
      <trkpt lat="43.12494" lon="3.09238">
        <ele>40.8</ele>
        <time>2021-08-21T16:33:33Z</time>
      </trkpt>
      <trkpt lat="43.12496" lon="3.09226">
        <ele>39.6</ele>
        <time>2021-08-21T16:33:36Z</time>
      </trkpt>
      <trkpt lat="43.12499" lon="3.09205">
        <ele>39.2</ele>
        <time>2021-08-21T16:33:40Z</time>
      </trkpt>
      <trkpt lat="43.125" lon="3.09198">
        <ele>39.2</ele>
        <time>2021-08-21T16:33:41Z</time>
      </trkpt>
      <trkpt lat="43.12501" lon="3.09179">
        <ele>38.6</ele>
        <time>2021-08-21T16:33:44Z</time>
      </trkpt>
      <trkpt lat="43.12501" lon="3.09173">
        <ele>38.2</ele>
        <time>2021-08-21T16:33:45Z</time>
      </trkpt>
      <trkpt lat="43.12502" lon="3.09152">
        <ele>37.4</ele>
        <time>2021-08-21T16:33:49Z</time>
      </trkpt>
      <trkpt lat="43.12508" lon="3.09116">
        <ele>36.4</ele>
        <time>2021-08-21T16:33:55Z</time>
      </trkpt>
      <trkpt lat="43.1251" lon="3.09097">
        <ele>36.4</ele>
        <time>2021-08-21T16:34:00Z</time>
      </trkpt>
      <trkpt lat="43.12511" lon="3.09094">
        <ele>36.6</ele>
        <time>2021-08-21T16:34:01Z</time>
      </trkpt>
      <trkpt lat="43.12516" lon="3.09086">
        <ele>36.8</ele>
        <time>2021-08-21T16:34:04Z</time>
      </trkpt>
      <trkpt lat="43.12518" lon="3.09078">
        <ele>36.4</ele>
        <time>2021-08-21T16:34:06Z</time>
      </trkpt>
      <trkpt lat="43.12519" lon="3.09069">
        <ele>35.2</ele>
        <time>2021-08-21T16:34:08Z</time>
      </trkpt>
      <trkpt lat="43.1252" lon="3.09059">
        <ele>34.8</ele>
        <time>2021-08-21T16:34:10Z</time>
      </trkpt>
      <trkpt lat="43.12519" lon="3.09043">
        <ele>34.6</ele>
        <time>2021-08-21T16:34:14Z</time>
      </trkpt>
      <trkpt lat="43.1252" lon="3.09038">
        <ele>34.8</ele>
        <time>2021-08-21T16:34:16Z</time>
      </trkpt>
      <trkpt lat="43.12522" lon="3.09038">
        <ele>35</ele>
        <time>2021-08-21T16:34:18Z</time>
      </trkpt>
      <trkpt lat="43.12525" lon="3.09047">
        <ele>34.8</ele>
        <time>2021-08-21T16:34:21Z</time>
      </trkpt>
      <trkpt lat="43.12526" lon="3.09051">
        <ele>34.4</ele>
        <time>2021-08-21T16:34:22Z</time>
      </trkpt>
      <trkpt lat="43.12527" lon="3.09058">
        <ele>34.2</ele>
        <time>2021-08-21T16:34:23Z</time>
      </trkpt>
      <trkpt lat="43.12527" lon="3.09076">
        <ele>33.2</ele>
        <time>2021-08-21T16:34:26Z</time>
      </trkpt>
      <trkpt lat="43.12527" lon="3.09083">
        <ele>33</ele>
        <time>2021-08-21T16:34:27Z</time>
      </trkpt>
      <trkpt lat="43.12524" lon="3.09111">
        <ele>32</ele>
        <time>2021-08-21T16:34:31Z</time>
      </trkpt>
      <trkpt lat="43.12524" lon="3.09118">
        <ele>31.8</ele>
        <time>2021-08-21T16:34:32Z</time>
      </trkpt>
      <trkpt lat="43.1252" lon="3.09146">
        <ele>30.8</ele>
        <time>2021-08-21T16:34:36Z</time>
      </trkpt>
      <trkpt lat="43.1252" lon="3.0915">
        <ele>30.6</ele>
        <time>2021-08-21T16:34:37Z</time>
      </trkpt>
      <trkpt lat="43.1252" lon="3.09153">
        <ele>30.4</ele>
        <time>2021-08-21T16:34:38Z</time>
      </trkpt>
      <trkpt lat="43.12522" lon="3.09163">
        <ele>30.2</ele>
        <time>2021-08-21T16:34:41Z</time>
      </trkpt>
      <trkpt lat="43.12527" lon="3.09173">
        <ele>29.4</ele>
        <time>2021-08-21T16:34:45Z</time>
      </trkpt>
      <trkpt lat="43.1253" lon="3.09175">
        <ele>28.8</ele>
        <time>2021-08-21T16:34:47Z</time>
      </trkpt>
      <trkpt lat="43.12533" lon="3.09175">
        <ele>28.2</ele>
        <time>2021-08-21T16:34:49Z</time>
      </trkpt>
      <trkpt lat="43.12536" lon="3.09177">
        <ele>27</ele>
        <time>2021-08-21T16:34:51Z</time>
      </trkpt>
      <trkpt lat="43.12538" lon="3.0918">
        <ele>25.6</ele>
        <time>2021-08-21T16:34:53Z</time>
      </trkpt>
      <trkpt lat="43.12539" lon="3.09182">
        <ele>25.2</ele>
        <time>2021-08-21T16:34:54Z</time>
      </trkpt>
      <trkpt lat="43.12541" lon="3.09187">
        <ele>24.4</ele>
        <time>2021-08-21T16:34:56Z</time>
      </trkpt>
      <trkpt lat="43.12545" lon="3.09192">
        <ele>23</ele>
        <time>2021-08-21T16:34:59Z</time>
      </trkpt>
      <trkpt lat="43.12547" lon="3.09195">
        <ele>22.4</ele>
        <time>2021-08-21T16:35:00Z</time>
      </trkpt>
      <trkpt lat="43.12549" lon="3.09197">
        <ele>21.8</ele>
        <time>2021-08-21T16:35:01Z</time>
      </trkpt>
      <trkpt lat="43.12551" lon="3.09197">
        <ele>20.8</ele>
        <time>2021-08-21T16:35:03Z</time>
      </trkpt>
      <trkpt lat="43.12551" lon="3.09197">
        <ele>19.6</ele>
        <time>2021-08-21T16:35:05Z</time>
      </trkpt>
      <trkpt lat="43.12552" lon="3.09198">
        <ele>19</ele>
        <time>2021-08-21T16:35:09Z</time>
      </trkpt>
      <trkpt lat="43.12554" lon="3.09198">
        <ele>19</ele>
        <time>2021-08-21T16:35:10Z</time>
      </trkpt>
      <trkpt lat="43.12566" lon="3.09191">
        <ele>18.8</ele>
        <time>2021-08-21T16:35:16Z</time>
      </trkpt>
      <trkpt lat="43.1257" lon="3.092">
        <ele>18.6</ele>
        <time>2021-08-21T16:35:20Z</time>
      </trkpt>
      <trkpt lat="43.12571" lon="3.09205">
        <ele>18.4</ele>
        <time>2021-08-21T16:35:21Z</time>
      </trkpt>
      <trkpt lat="43.12576" lon="3.09231">
        <ele>17.6</ele>
        <time>2021-08-21T16:35:26Z</time>
      </trkpt>
      <trkpt lat="43.12578" lon="3.09235">
        <ele>17.6</ele>
        <time>2021-08-21T16:35:27Z</time>
      </trkpt>
      <trkpt lat="43.12584" lon="3.09238">
        <ele>17.2</ele>
        <time>2021-08-21T16:35:29Z</time>
      </trkpt>
      <trkpt lat="43.126" lon="3.09241">
        <ele>17.4</ele>
        <time>2021-08-21T16:35:34Z</time>
      </trkpt>
      <trkpt lat="43.12606" lon="3.09243">
        <ele>17.6</ele>
        <time>2021-08-21T16:35:36Z</time>
      </trkpt>
      <trkpt lat="43.12627" lon="3.09257">
        <ele>18</ele>
        <time>2021-08-21T16:35:43Z</time>
      </trkpt>
      <trkpt lat="43.12639" lon="3.09267">
        <ele>18.2</ele>
        <time>2021-08-21T16:35:48Z</time>
      </trkpt>
      <trkpt lat="43.12644" lon="3.0927">
        <ele>18.6</ele>
        <time>2021-08-21T16:35:50Z</time>
      </trkpt>
      <trkpt lat="43.12651" lon="3.09275">
        <ele>19.4</ele>
        <time>2021-08-21T16:35:53Z</time>
      </trkpt>
      <trkpt lat="43.12653" lon="3.09277">
        <ele>19.6</ele>
        <time>2021-08-21T16:35:54Z</time>
      </trkpt>
      <trkpt lat="43.12661" lon="3.09291">
        <ele>20.6</ele>
        <time>2021-08-21T16:35:59Z</time>
      </trkpt>
      <trkpt lat="43.12659" lon="3.09311">
        <ele>21.4</ele>
        <time>2021-08-21T16:36:04Z</time>
      </trkpt>
      <trkpt lat="43.12657" lon="3.09324">
        <ele>21.8</ele>
        <time>2021-08-21T16:36:07Z</time>
      </trkpt>
      <trkpt lat="43.12656" lon="3.09333">
        <ele>21.8</ele>
        <time>2021-08-21T16:36:09Z</time>
      </trkpt>
      <trkpt lat="43.12653" lon="3.09358">
        <ele>21.8</ele>
        <time>2021-08-21T16:36:15Z</time>
      </trkpt>
      <trkpt lat="43.12654" lon="3.0937">
        <ele>22</ele>
        <time>2021-08-21T16:36:19Z</time>
      </trkpt>
      <trkpt lat="43.12655" lon="3.09372">
        <ele>22</ele>
        <time>2021-08-21T16:36:20Z</time>
      </trkpt>
      <trkpt lat="43.12662" lon="3.09373">
        <ele>22.6</ele>
        <time>2021-08-21T16:36:24Z</time>
      </trkpt>
      <trkpt lat="43.12666" lon="3.09377">
        <ele>22.8</ele>
        <time>2021-08-21T16:36:26Z</time>
      </trkpt>
      <trkpt lat="43.12672" lon="3.09383">
        <ele>23.8</ele>
        <time>2021-08-21T16:36:29Z</time>
      </trkpt>
      <trkpt lat="43.12674" lon="3.09384">
        <ele>24</ele>
        <time>2021-08-21T16:36:30Z</time>
      </trkpt>
      <trkpt lat="43.12679" lon="3.09392">
        <ele>24.8</ele>
        <time>2021-08-21T16:36:34Z</time>
      </trkpt>
      <trkpt lat="43.1268" lon="3.09394">
        <ele>25</ele>
        <time>2021-08-21T16:36:35Z</time>
      </trkpt>
      <trkpt lat="43.12683" lon="3.09405">
        <ele>25.8</ele>
        <time>2021-08-21T16:36:39Z</time>
      </trkpt>
      <trkpt lat="43.12689" lon="3.09426">
        <ele>26</ele>
        <time>2021-08-21T16:36:45Z</time>
      </trkpt>
      <trkpt lat="43.1269" lon="3.09429">
        <ele>26</ele>
        <time>2021-08-21T16:36:46Z</time>
      </trkpt>
      <trkpt lat="43.12695" lon="3.09443">
        <ele>27</ele>
        <time>2021-08-21T16:36:51Z</time>
      </trkpt>
      <trkpt lat="43.12699" lon="3.09465">
        <ele>27.8</ele>
        <time>2021-08-21T16:36:58Z</time>
      </trkpt>
      <trkpt lat="43.127" lon="3.09474">
        <ele>28</ele>
        <time>2021-08-21T16:37:01Z</time>
      </trkpt>
      <trkpt lat="43.12707" lon="3.09482">
        <ele>28</ele>
        <time>2021-08-21T16:37:04Z</time>
      </trkpt>
      <trkpt lat="43.12711" lon="3.09488">
        <ele>27.8</ele>
        <time>2021-08-21T16:37:06Z</time>
      </trkpt>
      <trkpt lat="43.1272" lon="3.09499">
        <ele>28.2</ele>
        <time>2021-08-21T16:37:10Z</time>
      </trkpt>
      <trkpt lat="43.12722" lon="3.09502">
        <ele>28.4</ele>
        <time>2021-08-21T16:37:11Z</time>
      </trkpt>
      <trkpt lat="43.12736" lon="3.09522">
        <ele>29.2</ele>
        <time>2021-08-21T16:37:18Z</time>
      </trkpt>
      <trkpt lat="43.12746" lon="3.09533">
        <ele>29.8</ele>
        <time>2021-08-21T16:37:23Z</time>
      </trkpt>
      <trkpt lat="43.12748" lon="3.09532">
        <ele>30</ele>
        <time>2021-08-21T16:37:24Z</time>
      </trkpt>
      <trkpt lat="43.12753" lon="3.09529">
        <ele>30.4</ele>
        <time>2021-08-21T16:37:26Z</time>
      </trkpt>
      <trkpt lat="43.12763" lon="3.09523">
        <ele>31.4</ele>
        <time>2021-08-21T16:37:30Z</time>
      </trkpt>
      <trkpt lat="43.12765" lon="3.09522">
        <ele>31.6</ele>
        <time>2021-08-21T16:37:31Z</time>
      </trkpt>
      <trkpt lat="43.12773" lon="3.09521">
        <ele>33.2</ele>
        <time>2021-08-21T16:37:34Z</time>
      </trkpt>
      <trkpt lat="43.12775" lon="3.09522">
        <ele>33.6</ele>
        <time>2021-08-21T16:37:35Z</time>
      </trkpt>
      <trkpt lat="43.12779" lon="3.09527">
        <ele>34.4</ele>
        <time>2021-08-21T16:37:37Z</time>
      </trkpt>
      <trkpt lat="43.12784" lon="3.09534">
        <ele>35.2</ele>
        <time>2021-08-21T16:37:40Z</time>
      </trkpt>
      <trkpt lat="43.12786" lon="3.09536">
        <ele>35.4</ele>
        <time>2021-08-21T16:37:41Z</time>
      </trkpt>
      <trkpt lat="43.12791" lon="3.09544">
        <ele>36.4</ele>
        <time>2021-08-21T16:37:45Z</time>
      </trkpt>
      <trkpt lat="43.12793" lon="3.09546">
        <ele>36.6</ele>
        <time>2021-08-21T16:37:46Z</time>
      </trkpt>
      <trkpt lat="43.12799" lon="3.09552">
        <ele>36.6</ele>
        <time>2021-08-21T16:37:49Z</time>
      </trkpt>
      <trkpt lat="43.12802" lon="3.09554">
        <ele>36.6</ele>
        <time>2021-08-21T16:37:51Z</time>
      </trkpt>
      <trkpt lat="43.12805" lon="3.09556">
        <ele>36.2</ele>
        <time>2021-08-21T16:37:53Z</time>
      </trkpt>
      <trkpt lat="43.12806" lon="3.09556">
        <ele>36</ele>
        <time>2021-08-21T16:37:54Z</time>
      </trkpt>
      <trkpt lat="43.1281" lon="3.09556">
        <ele>35.4</ele>
        <time>2021-08-21T16:37:56Z</time>
      </trkpt>
      <trkpt lat="43.12814" lon="3.09557">
        <ele>34.2</ele>
        <time>2021-08-21T16:37:58Z</time>
      </trkpt>
      <trkpt lat="43.12816" lon="3.09558">
        <ele>34</ele>
        <time>2021-08-21T16:37:59Z</time>
      </trkpt>
      <trkpt lat="43.12823" lon="3.09564">
        <ele>33.6</ele>
        <time>2021-08-21T16:38:02Z</time>
      </trkpt>
      <trkpt lat="43.12823" lon="3.09571">
        <ele>33.4</ele>
        <time>2021-08-21T16:38:04Z</time>
      </trkpt>
      <trkpt lat="43.12821" lon="3.09578">
        <ele>33</ele>
        <time>2021-08-21T16:38:06Z</time>
      </trkpt>
      <trkpt lat="43.12819" lon="3.0959">
        <ele>32</ele>
        <time>2021-08-21T16:38:08Z</time>
      </trkpt>
      <trkpt lat="43.12817" lon="3.09602">
        <ele>30.4</ele>
        <time>2021-08-21T16:38:10Z</time>
      </trkpt>
      <trkpt lat="43.12815" lon="3.09613">
        <ele>28.6</ele>
        <time>2021-08-21T16:38:12Z</time>
      </trkpt>
      <trkpt lat="43.12815" lon="3.09622">
        <ele>28</ele>
        <time>2021-08-21T16:38:13Z</time>
      </trkpt>
      <trkpt lat="43.12814" lon="3.09629">
        <ele>27.4</ele>
        <time>2021-08-21T16:38:14Z</time>
      </trkpt>
      <trkpt lat="43.12816" lon="3.09649">
        <ele>26.2</ele>
        <time>2021-08-21T16:38:17Z</time>
      </trkpt>
      <trkpt lat="43.12818" lon="3.09656">
        <ele>26</ele>
        <time>2021-08-21T16:38:18Z</time>
      </trkpt>
      <trkpt lat="43.12823" lon="3.09677">
        <ele>24.8</ele>
        <time>2021-08-21T16:38:21Z</time>
      </trkpt>
      <trkpt lat="43.12824" lon="3.09684">
        <ele>23.6</ele>
        <time>2021-08-21T16:38:22Z</time>
      </trkpt>
      <trkpt lat="43.12831" lon="3.09707">
        <ele>22.6</ele>
        <time>2021-08-21T16:38:26Z</time>
      </trkpt>
      <trkpt lat="43.12834" lon="3.09712">
        <ele>22.6</ele>
        <time>2021-08-21T16:38:27Z</time>
      </trkpt>
      <trkpt lat="43.12837" lon="3.09716">
        <ele>22.4</ele>
        <time>2021-08-21T16:38:28Z</time>
      </trkpt>
      <trkpt lat="43.12846" lon="3.09724">
        <ele>22.4</ele>
        <time>2021-08-21T16:38:30Z</time>
      </trkpt>
      <trkpt lat="43.12872" lon="3.09751">
        <ele>21.2</ele>
        <time>2021-08-21T16:38:36Z</time>
      </trkpt>
      <trkpt lat="43.12879" lon="3.09769">
        <ele>20</ele>
        <time>2021-08-21T16:38:39Z</time>
      </trkpt>
      <trkpt lat="43.1288" lon="3.09776">
        <ele>19.6</ele>
        <time>2021-08-21T16:38:40Z</time>
      </trkpt>
      <trkpt lat="43.12881" lon="3.09782">
        <ele>19</ele>
        <time>2021-08-21T16:38:41Z</time>
      </trkpt>
      <trkpt lat="43.12882" lon="3.09789">
        <ele>18.6</ele>
        <time>2021-08-21T16:38:42Z</time>
      </trkpt>
      <trkpt lat="43.12886" lon="3.09801">
        <ele>18</ele>
        <time>2021-08-21T16:38:44Z</time>
      </trkpt>
      <trkpt lat="43.12888" lon="3.09807">
        <ele>17.6</ele>
        <time>2021-08-21T16:38:45Z</time>
      </trkpt>
      <trkpt lat="43.12892" lon="3.09824">
        <ele>17</ele>
        <time>2021-08-21T16:38:48Z</time>
      </trkpt>
      <trkpt lat="43.12894" lon="3.0983">
        <ele>16.8</ele>
        <time>2021-08-21T16:38:49Z</time>
      </trkpt>
      <trkpt lat="43.12897" lon="3.09841">
        <ele>16.4</ele>
        <time>2021-08-21T16:38:51Z</time>
      </trkpt>
      <trkpt lat="43.12899" lon="3.09863">
        <ele>16.2</ele>
        <time>2021-08-21T16:38:55Z</time>
      </trkpt>
      <trkpt lat="43.12906" lon="3.09894">
        <ele>17.2</ele>
        <time>2021-08-21T16:39:02Z</time>
      </trkpt>
      <trkpt lat="43.12907" lon="3.09903">
        <ele>17.6</ele>
        <time>2021-08-21T16:39:04Z</time>
      </trkpt>
      <trkpt lat="43.12906" lon="3.0991">
        <ele>18</ele>
        <time>2021-08-21T16:39:06Z</time>
      </trkpt>
      <trkpt lat="43.12901" lon="3.09919">
        <ele>19</ele>
        <time>2021-08-21T16:39:09Z</time>
      </trkpt>
      <trkpt lat="43.12897" lon="3.09926">
        <ele>20</ele>
        <time>2021-08-21T16:39:11Z</time>
      </trkpt>
      <trkpt lat="43.12895" lon="3.09929">
        <ele>20.2</ele>
        <time>2021-08-21T16:39:12Z</time>
      </trkpt>
      <trkpt lat="43.12882" lon="3.0994">
        <ele>21</ele>
        <time>2021-08-21T16:39:17Z</time>
      </trkpt>
      <trkpt lat="43.12879" lon="3.09942">
        <ele>21.2</ele>
        <time>2021-08-21T16:39:18Z</time>
      </trkpt>
      <trkpt lat="43.12864" lon="3.09948">
        <ele>22.4</ele>
        <time>2021-08-21T16:39:23Z</time>
      </trkpt>
      <trkpt lat="43.12844" lon="3.09959">
        <ele>23.2</ele>
        <time>2021-08-21T16:39:30Z</time>
      </trkpt>
      <trkpt lat="43.12841" lon="3.09962">
        <ele>23.4</ele>
        <time>2021-08-21T16:39:31Z</time>
      </trkpt>
      <trkpt lat="43.12828" lon="3.0998">
        <ele>24</ele>
        <time>2021-08-21T16:39:37Z</time>
      </trkpt>
      <trkpt lat="43.12816" lon="3.10008">
        <ele>23.4</ele>
        <time>2021-08-21T16:39:43Z</time>
      </trkpt>
      <trkpt lat="43.12811" lon="3.10032">
        <ele>23.6</ele>
        <time>2021-08-21T16:39:49Z</time>
      </trkpt>
      <trkpt lat="43.12808" lon="3.10066">
        <ele>23.4</ele>
        <time>2021-08-21T16:39:56Z</time>
      </trkpt>
      <trkpt lat="43.12807" lon="3.10102">
        <ele>22.4</ele>
        <time>2021-08-21T16:40:02Z</time>
      </trkpt>
      <trkpt lat="43.12807" lon="3.1011">
        <ele>22.2</ele>
        <time>2021-08-21T16:40:03Z</time>
      </trkpt>
      <trkpt lat="43.12809" lon="3.10144">
        <ele>21</ele>
        <time>2021-08-21T16:40:08Z</time>
      </trkpt>
      <trkpt lat="43.12812" lon="3.10179">
        <ele>20.4</ele>
        <time>2021-08-21T16:40:14Z</time>
      </trkpt>
      <trkpt lat="43.12811" lon="3.10205">
        <ele>20.2</ele>
        <time>2021-08-21T16:40:19Z</time>
      </trkpt>
      <trkpt lat="43.12809" lon="3.10217">
        <ele>20</ele>
        <time>2021-08-21T16:40:21Z</time>
      </trkpt>
      <trkpt lat="43.12807" lon="3.10229">
        <ele>18.8</ele>
        <time>2021-08-21T16:40:23Z</time>
      </trkpt>
      <trkpt lat="43.12807" lon="3.10235">
        <ele>18.2</ele>
        <time>2021-08-21T16:40:24Z</time>
      </trkpt>
      <trkpt lat="43.12808" lon="3.10241">
        <ele>17.8</ele>
        <time>2021-08-21T16:40:25Z</time>
      </trkpt>
      <trkpt lat="43.12817" lon="3.1025">
        <ele>16.4</ele>
        <time>2021-08-21T16:40:28Z</time>
      </trkpt>
      <trkpt lat="43.12827" lon="3.10251">
        <ele>15.6</ele>
        <time>2021-08-21T16:40:31Z</time>
      </trkpt>
      <trkpt lat="43.12831" lon="3.10251">
        <ele>15.4</ele>
        <time>2021-08-21T16:40:32Z</time>
      </trkpt>
      <trkpt lat="43.12844" lon="3.10257">
        <ele>14.8</ele>
        <time>2021-08-21T16:40:35Z</time>
      </trkpt>
      <trkpt lat="43.12852" lon="3.10275">
        <ele>14.2</ele>
        <time>2021-08-21T16:40:38Z</time>
      </trkpt>
      <trkpt lat="43.12854" lon="3.10281">
        <ele>14</ele>
        <time>2021-08-21T16:40:39Z</time>
      </trkpt>
      <trkpt lat="43.12865" lon="3.10302">
        <ele>13.2</ele>
        <time>2021-08-21T16:40:44Z</time>
      </trkpt>
      <trkpt lat="43.12871" lon="3.10315">
        <ele>14.2</ele>
        <time>2021-08-21T16:40:48Z</time>
      </trkpt>
      <trkpt lat="43.12878" lon="3.10337">
        <ele>15.2</ele>
        <time>2021-08-21T16:40:55Z</time>
      </trkpt>
      <trkpt lat="43.12878" lon="3.10337">
        <ele>16</ele>
        <time>2021-08-21T16:41:07Z</time>
      </trkpt>
      <trkpt lat="43.12878" lon="3.10337">
        <ele>16.4</ele>
        <time>2021-08-21T16:41:10Z</time>
      </trkpt>
      <trkpt lat="43.12878" lon="3.10337">
        <ele>16.2</ele>
        <time>2021-08-21T16:41:16Z</time>
      </trkpt>
      <trkpt lat="43.1288" lon="3.10339">
        <ele>15.8</ele>
        <time>2021-08-21T16:41:28Z</time>
      </trkpt>
      <trkpt lat="43.12885" lon="3.10354">
        <ele>15.8</ele>
        <time>2021-08-21T16:41:33Z</time>
      </trkpt>
      <trkpt lat="43.12893" lon="3.10374">
        <ele>16.4</ele>
        <time>2021-08-21T16:41:40Z</time>
      </trkpt>
      <trkpt lat="43.12902" lon="3.10389">
        <ele>16.4</ele>
        <time>2021-08-21T16:41:46Z</time>
      </trkpt>
      <trkpt lat="43.12902" lon="3.10394">
        <ele>16.4</ele>
        <time>2021-08-21T16:41:47Z</time>
      </trkpt>
      <trkpt lat="43.12902" lon="3.1041">
        <ele>16.4</ele>
        <time>2021-08-21T16:41:51Z</time>
      </trkpt>
      <trkpt lat="43.12904" lon="3.10418">
        <ele>16.4</ele>
        <time>2021-08-21T16:41:57Z</time>
      </trkpt>
      <trkpt lat="43.12907" lon="3.10418">
        <ele>16.4</ele>
        <time>2021-08-21T16:41:58Z</time>
      </trkpt>
      <trkpt lat="43.12917" lon="3.10418">
        <ele>16.6</ele>
        <time>2021-08-21T16:42:02Z</time>
      </trkpt>
      <trkpt lat="43.12928" lon="3.1042">
        <ele>16.6</ele>
        <time>2021-08-21T16:42:07Z</time>
      </trkpt>
      <trkpt lat="43.1293" lon="3.10421">
        <ele>16.6</ele>
        <time>2021-08-21T16:42:08Z</time>
      </trkpt>
      <trkpt lat="43.12938" lon="3.10418">
        <ele>16.2</ele>
        <time>2021-08-21T16:42:12Z</time>
      </trkpt>
      <trkpt lat="43.1294" lon="3.10417">
        <ele>16</ele>
        <time>2021-08-21T16:42:13Z</time>
      </trkpt>
      <trkpt lat="43.12948" lon="3.10414">
        <ele>15.4</ele>
        <time>2021-08-21T16:42:16Z</time>
      </trkpt>
      <trkpt lat="43.1295" lon="3.10415">
        <ele>15</ele>
        <time>2021-08-21T16:42:17Z</time>
      </trkpt>
      <trkpt lat="43.12955" lon="3.1042">
        <ele>14.2</ele>
        <time>2021-08-21T16:42:21Z</time>
      </trkpt>
      <trkpt lat="43.12956" lon="3.10421">
        <ele>14</ele>
        <time>2021-08-21T16:42:22Z</time>
      </trkpt>
      <trkpt lat="43.12959" lon="3.10423">
        <ele>14</ele>
        <time>2021-08-21T16:42:24Z</time>
      </trkpt>
      <trkpt lat="43.12962" lon="3.1043">
        <ele>14.8</ele>
        <time>2021-08-21T16:42:27Z</time>
      </trkpt>
      <trkpt lat="43.12965" lon="3.10433">
        <ele>15.4</ele>
        <time>2021-08-21T16:42:29Z</time>
      </trkpt>
      <trkpt lat="43.12968" lon="3.10432">
        <ele>15.8</ele>
        <time>2021-08-21T16:42:31Z</time>
      </trkpt>
      <trkpt lat="43.12972" lon="3.10428">
        <ele>16.4</ele>
        <time>2021-08-21T16:42:34Z</time>
      </trkpt>
      <trkpt lat="43.12976" lon="3.10428">
        <ele>16.8</ele>
        <time>2021-08-21T16:42:36Z</time>
      </trkpt>
      <trkpt lat="43.12979" lon="3.10425">
        <ele>17.4</ele>
        <time>2021-08-21T16:42:38Z</time>
      </trkpt>
      <trkpt lat="43.12985" lon="3.1042">
        <ele>17.8</ele>
        <time>2021-08-21T16:42:41Z</time>
      </trkpt>
      <trkpt lat="43.12987" lon="3.1042">
        <ele>17.8</ele>
        <time>2021-08-21T16:42:42Z</time>
      </trkpt>
      <trkpt lat="43.12997" lon="3.10418">
        <ele>18.2</ele>
        <time>2021-08-21T16:42:47Z</time>
      </trkpt>
      <trkpt lat="43.13002" lon="3.1042">
        <ele>18.4</ele>
        <time>2021-08-21T16:42:49Z</time>
      </trkpt>
      <trkpt lat="43.13008" lon="3.10428">
        <ele>18.8</ele>
        <time>2021-08-21T16:42:52Z</time>
      </trkpt>
      <trkpt lat="43.13009" lon="3.1043">
        <ele>18.8</ele>
        <time>2021-08-21T16:42:53Z</time>
      </trkpt>
      <trkpt lat="43.1302" lon="3.10447">
        <ele>18.8</ele>
        <time>2021-08-21T16:42:59Z</time>
      </trkpt>
      <trkpt lat="43.13034" lon="3.10466">
        <ele>18.8</ele>
        <time>2021-08-21T16:43:06Z</time>
      </trkpt>
      <trkpt lat="43.13043" lon="3.10469">
        <ele>19.6</ele>
        <time>2021-08-21T16:43:10Z</time>
      </trkpt>
      <trkpt lat="43.13052" lon="3.10469">
        <ele>20</ele>
        <time>2021-08-21T16:43:13Z</time>
      </trkpt>
      <trkpt lat="43.1306" lon="3.10473">
        <ele>20.8</ele>
        <time>2021-08-21T16:43:17Z</time>
      </trkpt>
      <trkpt lat="43.13062" lon="3.10475">
        <ele>20.8</ele>
        <time>2021-08-21T16:43:18Z</time>
      </trkpt>
      <trkpt lat="43.13076" lon="3.10486">
        <ele>21.2</ele>
        <time>2021-08-21T16:43:24Z</time>
      </trkpt>
      <trkpt lat="43.13082" lon="3.1049">
        <ele>21.2</ele>
        <time>2021-08-21T16:43:26Z</time>
      </trkpt>
      <trkpt lat="43.13094" lon="3.10498">
        <ele>21.4</ele>
        <time>2021-08-21T16:43:30Z</time>
      </trkpt>
      <trkpt lat="43.13107" lon="3.10507">
        <ele>21.8</ele>
        <time>2021-08-21T16:43:35Z</time>
      </trkpt>
      <trkpt lat="43.13109" lon="3.10509">
        <ele>22</ele>
        <time>2021-08-21T16:43:36Z</time>
      </trkpt>
      <trkpt lat="43.13122" lon="3.10521">
        <ele>22.4</ele>
        <time>2021-08-21T16:43:43Z</time>
      </trkpt>
      <trkpt lat="43.13125" lon="3.10522">
        <ele>23</ele>
        <time>2021-08-21T16:43:47Z</time>
      </trkpt>
      <trkpt lat="43.13125" lon="3.10522">
        <ele>23.2</ele>
        <time>2021-08-21T16:43:51Z</time>
      </trkpt>
      <trkpt lat="43.13125" lon="3.10522">
        <ele>23.2</ele>
        <time>2021-08-21T16:44:10Z</time>
      </trkpt>
      <trkpt lat="43.13125" lon="3.10524">
        <ele>23.2</ele>
        <time>2021-08-21T16:44:18Z</time>
      </trkpt>
      <trkpt lat="43.13128" lon="3.1053">
        <ele>23.2</ele>
        <time>2021-08-21T16:44:20Z</time>
      </trkpt>
      <trkpt lat="43.13131" lon="3.10541">
        <ele>23.2</ele>
        <time>2021-08-21T16:44:24Z</time>
      </trkpt>
      <trkpt lat="43.13132" lon="3.10544">
        <ele>23.2</ele>
        <time>2021-08-21T16:44:25Z</time>
      </trkpt>
      <trkpt lat="43.13135" lon="3.10554">
        <ele>24.2</ele>
        <time>2021-08-21T16:44:29Z</time>
      </trkpt>
      <trkpt lat="43.13137" lon="3.1056">
        <ele>24.4</ele>
        <time>2021-08-21T16:44:31Z</time>
      </trkpt>
      <trkpt lat="43.13143" lon="3.10571">
        <ele>25.2</ele>
        <time>2021-08-21T16:44:35Z</time>
      </trkpt>
      <trkpt lat="43.13146" lon="3.10577">
        <ele>25.4</ele>
        <time>2021-08-21T16:44:37Z</time>
      </trkpt>
      <trkpt lat="43.13151" lon="3.10585">
        <ele>26.4</ele>
        <time>2021-08-21T16:44:41Z</time>
      </trkpt>
      <trkpt lat="43.13155" lon="3.10586">
        <ele>26.8</ele>
        <time>2021-08-21T16:44:42Z</time>
      </trkpt>
      <trkpt lat="43.1316" lon="3.10586">
        <ele>27.6</ele>
        <time>2021-08-21T16:44:44Z</time>
      </trkpt>
      <trkpt lat="43.13165" lon="3.10589">
        <ele>27.8</ele>
        <time>2021-08-21T16:44:46Z</time>
      </trkpt>
      <trkpt lat="43.13167" lon="3.10592">
        <ele>27.8</ele>
        <time>2021-08-21T16:44:48Z</time>
      </trkpt>
      <trkpt lat="43.13171" lon="3.10611">
        <ele>28.4</ele>
        <time>2021-08-21T16:44:54Z</time>
      </trkpt>
      <trkpt lat="43.13172" lon="3.10615">
        <ele>28.6</ele>
        <time>2021-08-21T16:44:55Z</time>
      </trkpt>
      <trkpt lat="43.1318" lon="3.10634">
        <ele>29.4</ele>
        <time>2021-08-21T16:45:01Z</time>
      </trkpt>
      <trkpt lat="43.13187" lon="3.10643">
        <ele>29.6</ele>
        <time>2021-08-21T16:45:04Z</time>
      </trkpt>
      <trkpt lat="43.13194" lon="3.10654">
        <ele>29.8</ele>
        <time>2021-08-21T16:45:08Z</time>
      </trkpt>
      <trkpt lat="43.13204" lon="3.10678">
        <ele>30.6</ele>
        <time>2021-08-21T16:45:16Z</time>
      </trkpt>
      <trkpt lat="43.13212" lon="3.10695">
        <ele>31.4</ele>
        <time>2021-08-21T16:45:22Z</time>
      </trkpt>
      <trkpt lat="43.13212" lon="3.10706">
        <ele>31.8</ele>
        <time>2021-08-21T16:45:25Z</time>
      </trkpt>
      <trkpt lat="43.13213" lon="3.10719">
        <ele>32.8</ele>
        <time>2021-08-21T16:45:29Z</time>
      </trkpt>
      <trkpt lat="43.13213" lon="3.10737">
        <ele>34.2</ele>
        <time>2021-08-21T16:45:34Z</time>
      </trkpt>
      <trkpt lat="43.13215" lon="3.10743">
        <ele>34.4</ele>
        <time>2021-08-21T16:45:36Z</time>
      </trkpt>
      <trkpt lat="43.13226" lon="3.10754">
        <ele>35</ele>
        <time>2021-08-21T16:45:41Z</time>
      </trkpt>
      <trkpt lat="43.13245" lon="3.10762">
        <ele>34</ele>
        <time>2021-08-21T16:45:46Z</time>
      </trkpt>
      <trkpt lat="43.13259" lon="3.10772">
        <ele>33.2</ele>
        <time>2021-08-21T16:45:51Z</time>
      </trkpt>
      <trkpt lat="43.13272" lon="3.10788">
        <ele>34.4</ele>
        <time>2021-08-21T16:45:57Z</time>
      </trkpt>
      <trkpt lat="43.1328" lon="3.10804">
        <ele>35.2</ele>
        <time>2021-08-21T16:46:03Z</time>
      </trkpt>
      <trkpt lat="43.13284" lon="3.10809">
        <ele>35.4</ele>
        <time>2021-08-21T16:46:05Z</time>
      </trkpt>
      <trkpt lat="43.13294" lon="3.10818">
        <ele>36.2</ele>
        <time>2021-08-21T16:46:10Z</time>
      </trkpt>
      <trkpt lat="43.13296" lon="3.10818">
        <ele>36.4</ele>
        <time>2021-08-21T16:46:11Z</time>
      </trkpt>
      <trkpt lat="43.13312" lon="3.10822">
        <ele>36.4</ele>
        <time>2021-08-21T16:46:17Z</time>
      </trkpt>
      <trkpt lat="43.13327" lon="3.10826">
        <ele>36.2</ele>
        <time>2021-08-21T16:46:22Z</time>
      </trkpt>
      <trkpt lat="43.1334" lon="3.10839">
        <ele>35.8</ele>
        <time>2021-08-21T16:46:27Z</time>
      </trkpt>
      <trkpt lat="43.13352" lon="3.10846">
        <ele>36.4</ele>
        <time>2021-08-21T16:46:32Z</time>
      </trkpt>
      <trkpt lat="43.13362" lon="3.10855">
        <ele>36.6</ele>
        <time>2021-08-21T16:46:37Z</time>
      </trkpt>
      <trkpt lat="43.13374" lon="3.10869">
        <ele>36.6</ele>
        <time>2021-08-21T16:46:43Z</time>
      </trkpt>
      <trkpt lat="43.13377" lon="3.10874">
        <ele>36.6</ele>
        <time>2021-08-21T16:46:45Z</time>
      </trkpt>
      <trkpt lat="43.13379" lon="3.10884">
        <ele>36.8</ele>
        <time>2021-08-21T16:46:48Z</time>
      </trkpt>
      <trkpt lat="43.13378" lon="3.10895">
        <ele>37.4</ele>
        <time>2021-08-21T16:46:52Z</time>
      </trkpt>
      <trkpt lat="43.13381" lon="3.10906">
        <ele>37.8</ele>
        <time>2021-08-21T16:46:56Z</time>
      </trkpt>
      <trkpt lat="43.13387" lon="3.10906">
        <ele>38.2</ele>
        <time>2021-08-21T16:46:59Z</time>
      </trkpt>
      <trkpt lat="43.1339" lon="3.10906">
        <ele>38.4</ele>
        <time>2021-08-21T16:47:00Z</time>
      </trkpt>
      <trkpt lat="43.134" lon="3.10905">
        <ele>38.8</ele>
        <time>2021-08-21T16:47:04Z</time>
      </trkpt>
      <trkpt lat="43.13402" lon="3.10906">
        <ele>38.8</ele>
        <time>2021-08-21T16:47:05Z</time>
      </trkpt>
      <trkpt lat="43.13415" lon="3.10907">
        <ele>39.4</ele>
        <time>2021-08-21T16:47:10Z</time>
      </trkpt>
      <trkpt lat="43.13417" lon="3.10911">
        <ele>39.6</ele>
        <time>2021-08-21T16:47:12Z</time>
      </trkpt>
      <trkpt lat="43.1342" lon="3.10916">
        <ele>40</ele>
        <time>2021-08-21T16:47:14Z</time>
      </trkpt>
      <trkpt lat="43.13428" lon="3.10931">
        <ele>40.6</ele>
        <time>2021-08-21T16:47:20Z</time>
      </trkpt>
      <trkpt lat="43.13429" lon="3.10933">
        <ele>40.8</ele>
        <time>2021-08-21T16:47:21Z</time>
      </trkpt>
      <trkpt lat="43.13435" lon="3.10942">
        <ele>41.8</ele>
        <time>2021-08-21T16:47:25Z</time>
      </trkpt>
      <trkpt lat="43.13438" lon="3.1095">
        <ele>42.4</ele>
        <time>2021-08-21T16:47:28Z</time>
      </trkpt>
      <trkpt lat="43.13439" lon="3.10954">
        <ele>43</ele>
        <time>2021-08-21T16:47:31Z</time>
      </trkpt>
      <trkpt lat="43.13439" lon="3.10954">
        <ele>43.4</ele>
        <time>2021-08-21T16:47:33Z</time>
      </trkpt>
      <trkpt lat="43.13438" lon="3.10959">
        <ele>43.8</ele>
        <time>2021-08-21T16:47:42Z</time>
      </trkpt>
      <trkpt lat="43.13439" lon="3.10959">
        <ele>44</ele>
        <time>2021-08-21T16:47:43Z</time>
      </trkpt>
      <trkpt lat="43.13441" lon="3.10958">
        <ele>44.6</ele>
        <time>2021-08-21T16:47:46Z</time>
      </trkpt>
      <trkpt lat="43.13442" lon="3.10958">
        <ele>45</ele>
        <time>2021-08-21T16:47:54Z</time>
      </trkpt>
      <trkpt lat="43.13443" lon="3.10957">
        <ele>45</ele>
        <time>2021-08-21T16:47:55Z</time>
      </trkpt>
      <trkpt lat="43.13444" lon="3.10955">
        <ele>45</ele>
        <time>2021-08-21T16:47:56Z</time>
      </trkpt>
      <trkpt lat="43.13448" lon="3.10951">
        <ele>45</ele>
        <time>2021-08-21T16:47:58Z</time>
      </trkpt>
      <trkpt lat="43.13449" lon="3.10936">
        <ele>45</ele>
        <time>2021-08-21T16:48:02Z</time>
      </trkpt>
      <trkpt lat="43.13449" lon="3.10923">
        <ele>44.8</ele>
        <time>2021-08-21T16:48:05Z</time>
      </trkpt>
      <trkpt lat="43.13453" lon="3.10918">
        <ele>44</ele>
        <time>2021-08-21T16:48:08Z</time>
      </trkpt>
      <trkpt lat="43.13454" lon="3.10913">
        <ele>43.4</ele>
        <time>2021-08-21T16:48:10Z</time>
      </trkpt>
      <trkpt lat="43.13456" lon="3.10905">
        <ele>43</ele>
        <time>2021-08-21T16:48:13Z</time>
      </trkpt>
      <trkpt lat="43.13457" lon="3.109">
        <ele>43</ele>
        <time>2021-08-21T16:48:14Z</time>
      </trkpt>
      <trkpt lat="43.13463" lon="3.10874">
        <ele>43</ele>
        <time>2021-08-21T16:48:21Z</time>
      </trkpt>
      <trkpt lat="43.13467" lon="3.10853">
        <ele>43.2</ele>
        <time>2021-08-21T16:48:25Z</time>
      </trkpt>
      <trkpt lat="43.13466" lon="3.10847">
        <ele>42.8</ele>
        <time>2021-08-21T16:48:26Z</time>
      </trkpt>
      <trkpt lat="43.13467" lon="3.10827">
        <ele>42</ele>
        <time>2021-08-21T16:48:29Z</time>
      </trkpt>
      <trkpt lat="43.13468" lon="3.1082">
        <ele>41.8</ele>
        <time>2021-08-21T16:48:30Z</time>
      </trkpt>
      <trkpt lat="43.13468" lon="3.10813">
        <ele>41.4</ele>
        <time>2021-08-21T16:48:31Z</time>
      </trkpt>
      <trkpt lat="43.13467" lon="3.10797">
        <ele>40.6</ele>
        <time>2021-08-21T16:48:34Z</time>
      </trkpt>
      <trkpt lat="43.13465" lon="3.10792">
        <ele>40.2</ele>
        <time>2021-08-21T16:48:35Z</time>
      </trkpt>
      <trkpt lat="43.13466" lon="3.10774">
        <ele>39.6</ele>
        <time>2021-08-21T16:48:38Z</time>
      </trkpt>
      <trkpt lat="43.13468" lon="3.10769">
        <ele>39.4</ele>
        <time>2021-08-21T16:48:39Z</time>
      </trkpt>
      <trkpt lat="43.13474" lon="3.10761">
        <ele>38.8</ele>
        <time>2021-08-21T16:48:41Z</time>
      </trkpt>
      <trkpt lat="43.13479" lon="3.10748">
        <ele>38.4</ele>
        <time>2021-08-21T16:48:44Z</time>
      </trkpt>
      <trkpt lat="43.1348" lon="3.10744">
        <ele>38.4</ele>
        <time>2021-08-21T16:48:45Z</time>
      </trkpt>
      <trkpt lat="43.13484" lon="3.10717">
        <ele>38.4</ele>
        <time>2021-08-21T16:48:50Z</time>
      </trkpt>
      <trkpt lat="43.13486" lon="3.10712">
        <ele>38.2</ele>
        <time>2021-08-21T16:48:51Z</time>
      </trkpt>
      <trkpt lat="43.13483" lon="3.10696">
        <ele>38.2</ele>
        <time>2021-08-21T16:48:54Z</time>
      </trkpt>
      <trkpt lat="43.13481" lon="3.10691">
        <ele>38.2</ele>
        <time>2021-08-21T16:48:55Z</time>
      </trkpt>
      <trkpt lat="43.13468" lon="3.10681">
        <ele>38</ele>
        <time>2021-08-21T16:48:58Z</time>
      </trkpt>
      <trkpt lat="43.13457" lon="3.10676">
        <ele>37.4</ele>
        <time>2021-08-21T16:49:00Z</time>
      </trkpt>
      <trkpt lat="43.13451" lon="3.10673">
        <ele>37.2</ele>
        <time>2021-08-21T16:49:01Z</time>
      </trkpt>
      <trkpt lat="43.1344" lon="3.10668">
        <ele>36.4</ele>
        <time>2021-08-21T16:49:03Z</time>
      </trkpt>
      <trkpt lat="43.13436" lon="3.10664">
        <ele>36</ele>
        <time>2021-08-21T16:49:04Z</time>
      </trkpt>
      <trkpt lat="43.1343" lon="3.10657">
        <ele>35.2</ele>
        <time>2021-08-21T16:49:06Z</time>
      </trkpt>
      <trkpt lat="43.13429" lon="3.10653">
        <ele>35</ele>
        <time>2021-08-21T16:49:07Z</time>
      </trkpt>
      <trkpt lat="43.1343" lon="3.1065">
        <ele>34.8</ele>
        <time>2021-08-21T16:49:09Z</time>
      </trkpt>
      <trkpt lat="43.13432" lon="3.10651">
        <ele>34.8</ele>
        <time>2021-08-21T16:49:10Z</time>
      </trkpt>
      <trkpt lat="43.13436" lon="3.10655">
        <ele>35</ele>
        <time>2021-08-21T16:49:12Z</time>
      </trkpt>
      <trkpt lat="43.13439" lon="3.10655">
        <ele>35.2</ele>
        <time>2021-08-21T16:49:13Z</time>
      </trkpt>
      <trkpt lat="43.13441" lon="3.10651">
        <ele>35.8</ele>
        <time>2021-08-21T16:49:15Z</time>
      </trkpt>
      <trkpt lat="43.13441" lon="3.10648">
        <ele>36</ele>
        <time>2021-08-21T16:49:16Z</time>
      </trkpt>
      <trkpt lat="43.13438" lon="3.10643">
        <ele>37</ele>
        <time>2021-08-21T16:49:18Z</time>
      </trkpt>
      <trkpt lat="43.13436" lon="3.1064">
        <ele>37.4</ele>
        <time>2021-08-21T16:49:19Z</time>
      </trkpt>
      <trkpt lat="43.13438" lon="3.10627">
        <ele>38</ele>
        <time>2021-08-21T16:49:22Z</time>
      </trkpt>
      <trkpt lat="43.13441" lon="3.10618">
        <ele>38.2</ele>
        <time>2021-08-21T16:49:25Z</time>
      </trkpt>
      <trkpt lat="43.13444" lon="3.10614">
        <ele>38.4</ele>
        <time>2021-08-21T16:49:27Z</time>
      </trkpt>
      <trkpt lat="43.13447" lon="3.10607">
        <ele>39</ele>
        <time>2021-08-21T16:49:33Z</time>
      </trkpt>
      <trkpt lat="43.13447" lon="3.10607">
        <ele>39.6</ele>
        <time>2021-08-21T16:49:42Z</time>
      </trkpt>
      <trkpt lat="43.13447" lon="3.10607">
        <ele>39.2</ele>
        <time>2021-08-21T16:49:50Z</time>
      </trkpt>
      <trkpt lat="43.13446" lon="3.10605">
        <ele>39.4</ele>
        <time>2021-08-21T16:50:06Z</time>
      </trkpt>
      <trkpt lat="43.13437" lon="3.10603">
        <ele>39.4</ele>
        <time>2021-08-21T16:50:09Z</time>
      </trkpt>
      <trkpt lat="43.1342" lon="3.10608">
        <ele>38.4</ele>
        <time>2021-08-21T16:50:13Z</time>
      </trkpt>
      <trkpt lat="43.13409" lon="3.10609">
        <ele>37.4</ele>
        <time>2021-08-21T16:50:17Z</time>
      </trkpt>
      <trkpt lat="43.13406" lon="3.10607">
        <ele>37.4</ele>
        <time>2021-08-21T16:50:18Z</time>
      </trkpt>
      <trkpt lat="43.13404" lon="3.10604">
        <ele>37.2</ele>
        <time>2021-08-21T16:50:19Z</time>
      </trkpt>
      <trkpt lat="43.13402" lon="3.10599">
        <ele>37.2</ele>
        <time>2021-08-21T16:50:20Z</time>
      </trkpt>
      <trkpt lat="43.13393" lon="3.10587">
        <ele>36.2</ele>
        <time>2021-08-21T16:50:24Z</time>
      </trkpt>
      <trkpt lat="43.1339" lon="3.10584">
        <ele>36</ele>
        <time>2021-08-21T16:50:25Z</time>
      </trkpt>
      <trkpt lat="43.13381" lon="3.10572">
        <ele>35.4</ele>
        <time>2021-08-21T16:50:28Z</time>
      </trkpt>
      <trkpt lat="43.13377" lon="3.10568">
        <ele>35</ele>
        <time>2021-08-21T16:50:29Z</time>
      </trkpt>
      <trkpt lat="43.13368" lon="3.10556">
        <ele>34.4</ele>
        <time>2021-08-21T16:50:32Z</time>
      </trkpt>
      <trkpt lat="43.13361" lon="3.10551">
        <ele>34</ele>
        <time>2021-08-21T16:50:34Z</time>
      </trkpt>
      <trkpt lat="43.13349" lon="3.10553">
        <ele>33.8</ele>
        <time>2021-08-21T16:50:37Z</time>
      </trkpt>
      <trkpt lat="43.13328" lon="3.10574">
        <ele>33</ele>
        <time>2021-08-21T16:50:42Z</time>
      </trkpt>
      <trkpt lat="43.13324" lon="3.10577">
        <ele>32.6</ele>
        <time>2021-08-21T16:50:43Z</time>
      </trkpt>
      <trkpt lat="43.13316" lon="3.10579">
        <ele>32</ele>
        <time>2021-08-21T16:50:45Z</time>
      </trkpt>
      <trkpt lat="43.13312" lon="3.10578">
        <ele>31.8</ele>
        <time>2021-08-21T16:50:46Z</time>
      </trkpt>
      <trkpt lat="43.13305" lon="3.10574">
        <ele>31.4</ele>
        <time>2021-08-21T16:50:48Z</time>
      </trkpt>
      <trkpt lat="43.13302" lon="3.10571">
        <ele>31.2</ele>
        <time>2021-08-21T16:50:49Z</time>
      </trkpt>
      <trkpt lat="43.13282" lon="3.10566">
        <ele>30.8</ele>
        <time>2021-08-21T16:50:54Z</time>
      </trkpt>
      <trkpt lat="43.13273" lon="3.10563">
        <ele>30.6</ele>
        <time>2021-08-21T16:50:56Z</time>
      </trkpt>
      <trkpt lat="43.13269" lon="3.10559">
        <ele>30.4</ele>
        <time>2021-08-21T16:50:57Z</time>
      </trkpt>
      <trkpt lat="43.13266" lon="3.10556">
        <ele>30.4</ele>
        <time>2021-08-21T16:50:58Z</time>
      </trkpt>
      <trkpt lat="43.13249" lon="3.10539">
        <ele>29.4</ele>
        <time>2021-08-21T16:51:02Z</time>
      </trkpt>
      <trkpt lat="43.13244" lon="3.10534">
        <ele>29</ele>
        <time>2021-08-21T16:51:03Z</time>
      </trkpt>
      <trkpt lat="43.13234" lon="3.10524">
        <ele>28.4</ele>
        <time>2021-08-21T16:51:05Z</time>
      </trkpt>
      <trkpt lat="43.13222" lon="3.10514">
        <ele>27.6</ele>
        <time>2021-08-21T16:51:08Z</time>
      </trkpt>
      <trkpt lat="43.13217" lon="3.10506">
        <ele>27.4</ele>
        <time>2021-08-21T16:51:10Z</time>
      </trkpt>
      <trkpt lat="43.13215" lon="3.10502">
        <ele>27.2</ele>
        <time>2021-08-21T16:51:11Z</time>
      </trkpt>
      <trkpt lat="43.13208" lon="3.10486">
        <ele>27</ele>
        <time>2021-08-21T16:51:15Z</time>
      </trkpt>
      <trkpt lat="43.13203" lon="3.10469">
        <ele>27</ele>
        <time>2021-08-21T16:51:19Z</time>
      </trkpt>
      <trkpt lat="43.13201" lon="3.10464">
        <ele>27</ele>
        <time>2021-08-21T16:51:20Z</time>
      </trkpt>
      <trkpt lat="43.13201" lon="3.10459">
        <ele>27</ele>
        <time>2021-08-21T16:51:21Z</time>
      </trkpt>
      <trkpt lat="43.13204" lon="3.10451">
        <ele>26.6</ele>
        <time>2021-08-21T16:51:23Z</time>
      </trkpt>
      <trkpt lat="43.13212" lon="3.1045">
        <ele>26.2</ele>
        <time>2021-08-21T16:51:26Z</time>
      </trkpt>
      <trkpt lat="43.13215" lon="3.10451">
        <ele>26</ele>
        <time>2021-08-21T16:51:27Z</time>
      </trkpt>
      <trkpt lat="43.13221" lon="3.10453">
        <ele>26</ele>
        <time>2021-08-21T16:51:29Z</time>
      </trkpt>
      <trkpt lat="43.13236" lon="3.10458">
        <ele>26.4</ele>
        <time>2021-08-21T16:51:34Z</time>
      </trkpt>
      <trkpt lat="43.1325" lon="3.10461">
        <ele>27.2</ele>
        <time>2021-08-21T16:51:38Z</time>
      </trkpt>
      <trkpt lat="43.13256" lon="3.10462">
        <ele>27.4</ele>
        <time>2021-08-21T16:51:40Z</time>
      </trkpt>
      <trkpt lat="43.13282" lon="3.10462">
        <ele>28.4</ele>
        <time>2021-08-21T16:51:47Z</time>
      </trkpt>
      <trkpt lat="43.1331" lon="3.10453">
        <ele>29.2</ele>
        <time>2021-08-21T16:51:55Z</time>
      </trkpt>
      <trkpt lat="43.13312" lon="3.1045">
        <ele>29.4</ele>
        <time>2021-08-21T16:51:56Z</time>
      </trkpt>
      <trkpt lat="43.13315" lon="3.10441">
        <ele>29.8</ele>
        <time>2021-08-21T16:51:58Z</time>
      </trkpt>
      <trkpt lat="43.13313" lon="3.10422">
        <ele>30</ele>
        <time>2021-08-21T16:52:02Z</time>
      </trkpt>
      <trkpt lat="43.13306" lon="3.10395">
        <ele>29.2</ele>
        <time>2021-08-21T16:52:08Z</time>
      </trkpt>
      <trkpt lat="43.13304" lon="3.10394">
        <ele>29</ele>
        <time>2021-08-21T16:52:09Z</time>
      </trkpt>
      <trkpt lat="43.133" lon="3.10389">
        <ele>28.8</ele>
        <time>2021-08-21T16:52:11Z</time>
      </trkpt>
      <trkpt lat="43.133" lon="3.10384">
        <ele>28.2</ele>
        <time>2021-08-21T16:52:13Z</time>
      </trkpt>
      <trkpt lat="43.13301" lon="3.10379">
        <ele>27.6</ele>
        <time>2021-08-21T16:52:15Z</time>
      </trkpt>
      <trkpt lat="43.13301" lon="3.10371">
        <ele>27.2</ele>
        <time>2021-08-21T16:52:17Z</time>
      </trkpt>
      <trkpt lat="43.13299" lon="3.10365">
        <ele>27</ele>
        <time>2021-08-21T16:52:19Z</time>
      </trkpt>
      <trkpt lat="43.13292" lon="3.1036">
        <ele>26.8</ele>
        <time>2021-08-21T16:52:22Z</time>
      </trkpt>
      <trkpt lat="43.13288" lon="3.10352">
        <ele>25.8</ele>
        <time>2021-08-21T16:52:24Z</time>
      </trkpt>
      <trkpt lat="43.13286" lon="3.10347">
        <ele>24.8</ele>
        <time>2021-08-21T16:52:26Z</time>
      </trkpt>
      <trkpt lat="43.13285" lon="3.10344">
        <ele>24.6</ele>
        <time>2021-08-21T16:52:27Z</time>
      </trkpt>
      <trkpt lat="43.13282" lon="3.10338">
        <ele>24.2</ele>
        <time>2021-08-21T16:52:29Z</time>
      </trkpt>
      <trkpt lat="43.13279" lon="3.10333">
        <ele>24.2</ele>
        <time>2021-08-21T16:52:31Z</time>
      </trkpt>
      <trkpt lat="43.13271" lon="3.10326">
        <ele>24</ele>
        <time>2021-08-21T16:52:34Z</time>
      </trkpt>
      <trkpt lat="43.13263" lon="3.10316">
        <ele>24</ele>
        <time>2021-08-21T16:52:37Z</time>
      </trkpt>
      <trkpt lat="43.13263" lon="3.10308">
        <ele>24</ele>
        <time>2021-08-21T16:52:39Z</time>
      </trkpt>
      <trkpt lat="43.13266" lon="3.10277">
        <ele>24.4</ele>
        <time>2021-08-21T16:52:46Z</time>
      </trkpt>
      <trkpt lat="43.13272" lon="3.10266">
        <ele>25</ele>
        <time>2021-08-21T16:52:50Z</time>
      </trkpt>
      <trkpt lat="43.13275" lon="3.10268">
        <ele>25.2</ele>
        <time>2021-08-21T16:52:51Z</time>
      </trkpt>
      <trkpt lat="43.13281" lon="3.10274">
        <ele>25.6</ele>
        <time>2021-08-21T16:52:54Z</time>
      </trkpt>
      <trkpt lat="43.13289" lon="3.10282">
        <ele>26</ele>
        <time>2021-08-21T16:52:57Z</time>
      </trkpt>
      <trkpt lat="43.13298" lon="3.10297">
        <ele>26.8</ele>
        <time>2021-08-21T16:53:02Z</time>
      </trkpt>
      <trkpt lat="43.13302" lon="3.10304">
        <ele>27.4</ele>
        <time>2021-08-21T16:53:04Z</time>
      </trkpt>
      <trkpt lat="43.13318" lon="3.10319">
        <ele>27.8</ele>
        <time>2021-08-21T16:53:10Z</time>
      </trkpt>
      <trkpt lat="43.13329" lon="3.10319">
        <ele>27.4</ele>
        <time>2021-08-21T16:53:14Z</time>
      </trkpt>
      <trkpt lat="43.13331" lon="3.10317">
        <ele>27.4</ele>
        <time>2021-08-21T16:53:15Z</time>
      </trkpt>
      <trkpt lat="43.13338" lon="3.10318">
        <ele>27.8</ele>
        <time>2021-08-21T16:53:19Z</time>
      </trkpt>
      <trkpt lat="43.13342" lon="3.1032">
        <ele>28</ele>
        <time>2021-08-21T16:53:21Z</time>
      </trkpt>
      <trkpt lat="43.13351" lon="3.10317">
        <ele>27.4</ele>
        <time>2021-08-21T16:53:24Z</time>
      </trkpt>
      <trkpt lat="43.13356" lon="3.10312">
        <ele>26.6</ele>
        <time>2021-08-21T16:53:26Z</time>
      </trkpt>
      <trkpt lat="43.13362" lon="3.10311">
        <ele>26.4</ele>
        <time>2021-08-21T16:53:29Z</time>
      </trkpt>
      <trkpt lat="43.13375" lon="3.10307">
        <ele>26.8</ele>
        <time>2021-08-21T16:53:34Z</time>
      </trkpt>
      <trkpt lat="43.13388" lon="3.10296">
        <ele>27.2</ele>
        <time>2021-08-21T16:53:40Z</time>
      </trkpt>
      <trkpt lat="43.13397" lon="3.10289">
        <ele>27.6</ele>
        <time>2021-08-21T16:53:44Z</time>
      </trkpt>
      <trkpt lat="43.13402" lon="3.10285">
        <ele>27.8</ele>
        <time>2021-08-21T16:53:46Z</time>
      </trkpt>
      <trkpt lat="43.13407" lon="3.10284">
        <ele>28</ele>
        <time>2021-08-21T16:53:48Z</time>
      </trkpt>
      <trkpt lat="43.13414" lon="3.10286">
        <ele>28.2</ele>
        <time>2021-08-21T16:53:51Z</time>
      </trkpt>
      <trkpt lat="43.13427" lon="3.10292">
        <ele>28.6</ele>
        <time>2021-08-21T16:53:57Z</time>
      </trkpt>
      <trkpt lat="43.13431" lon="3.10293">
        <ele>29</ele>
        <time>2021-08-21T16:53:59Z</time>
      </trkpt>
      <trkpt lat="43.13437" lon="3.10293">
        <ele>29.6</ele>
        <time>2021-08-21T16:54:02Z</time>
      </trkpt>
      <trkpt lat="43.13439" lon="3.10293">
        <ele>29.8</ele>
        <time>2021-08-21T16:54:03Z</time>
      </trkpt>
      <trkpt lat="43.13441" lon="3.10292">
        <ele>30</ele>
        <time>2021-08-21T16:54:04Z</time>
      </trkpt>
      <trkpt lat="43.13458" lon="3.10295">
        <ele>30.2</ele>
        <time>2021-08-21T16:54:10Z</time>
      </trkpt>
      <trkpt lat="43.13474" lon="3.10295">
        <ele>30.4</ele>
        <time>2021-08-21T16:54:16Z</time>
      </trkpt>
      <trkpt lat="43.13479" lon="3.10293">
        <ele>30.8</ele>
        <time>2021-08-21T16:54:18Z</time>
      </trkpt>
      <trkpt lat="43.13492" lon="3.10284">
        <ele>31.8</ele>
        <time>2021-08-21T16:54:23Z</time>
      </trkpt>
      <trkpt lat="43.13513" lon="3.10275">
        <ele>32.8</ele>
        <time>2021-08-21T16:54:30Z</time>
      </trkpt>
      <trkpt lat="43.13537" lon="3.10281">
        <ele>31.8</ele>
        <time>2021-08-21T16:54:37Z</time>
      </trkpt>
      <trkpt lat="43.13548" lon="3.10279">
        <ele>30.4</ele>
        <time>2021-08-21T16:54:40Z</time>
      </trkpt>
      <trkpt lat="43.13554" lon="3.10278">
        <ele>30</ele>
        <time>2021-08-21T16:54:42Z</time>
      </trkpt>
      <trkpt lat="43.13559" lon="3.10274">
        <ele>30</ele>
        <time>2021-08-21T16:54:44Z</time>
      </trkpt>
      <trkpt lat="43.13562" lon="3.10271">
        <ele>30.4</ele>
        <time>2021-08-21T16:54:46Z</time>
      </trkpt>
      <trkpt lat="43.13563" lon="3.10269">
        <ele>30.8</ele>
        <time>2021-08-21T16:54:47Z</time>
      </trkpt>
      <trkpt lat="43.13564" lon="3.10262">
        <ele>31.4</ele>
        <time>2021-08-21T16:54:49Z</time>
      </trkpt>
      <trkpt lat="43.13565" lon="3.10259">
        <ele>31.8</ele>
        <time>2021-08-21T16:54:50Z</time>
      </trkpt>
      <trkpt lat="43.13568" lon="3.10245">
        <ele>32.4</ele>
        <time>2021-08-21T16:54:54Z</time>
      </trkpt>
      <trkpt lat="43.13568" lon="3.10242">
        <ele>32.4</ele>
        <time>2021-08-21T16:54:55Z</time>
      </trkpt>
      <trkpt lat="43.13568" lon="3.10238">
        <ele>32.4</ele>
        <time>2021-08-21T16:54:56Z</time>
      </trkpt>
      <trkpt lat="43.13568" lon="3.10214">
        <ele>33.2</ele>
        <time>2021-08-21T16:55:03Z</time>
      </trkpt>
      <trkpt lat="43.13567" lon="3.10202">
        <ele>33.6</ele>
        <time>2021-08-21T16:55:07Z</time>
      </trkpt>
      <trkpt lat="43.13567" lon="3.10196">
        <ele>33.6</ele>
        <time>2021-08-21T16:55:09Z</time>
      </trkpt>
      <trkpt lat="43.13569" lon="3.10194">
        <ele>33.8</ele>
        <time>2021-08-21T16:55:10Z</time>
      </trkpt>
      <trkpt lat="43.13572" lon="3.10192">
        <ele>34.2</ele>
        <time>2021-08-21T16:55:12Z</time>
      </trkpt>
      <trkpt lat="43.13573" lon="3.10186">
        <ele>34.6</ele>
        <time>2021-08-21T16:55:14Z</time>
      </trkpt>
      <trkpt lat="43.13574" lon="3.10179">
        <ele>35.2</ele>
        <time>2021-08-21T16:55:16Z</time>
      </trkpt>
      <trkpt lat="43.13575" lon="3.10175">
        <ele>35.6</ele>
        <time>2021-08-21T16:55:17Z</time>
      </trkpt>
      <trkpt lat="43.13575" lon="3.10171">
        <ele>35.8</ele>
        <time>2021-08-21T16:55:18Z</time>
      </trkpt>
      <trkpt lat="43.13576" lon="3.10158">
        <ele>37.2</ele>
        <time>2021-08-21T16:55:22Z</time>
      </trkpt>
      <trkpt lat="43.13573" lon="3.10148">
        <ele>38.4</ele>
        <time>2021-08-21T16:55:25Z</time>
      </trkpt>
      <trkpt lat="43.13571" lon="3.10139">
        <ele>39.4</ele>
        <time>2021-08-21T16:55:28Z</time>
      </trkpt>
      <trkpt lat="43.13569" lon="3.10136">
        <ele>39.6</ele>
        <time>2021-08-21T16:55:29Z</time>
      </trkpt>
      <trkpt lat="43.13567" lon="3.10122">
        <ele>40.2</ele>
        <time>2021-08-21T16:55:33Z</time>
      </trkpt>
      <trkpt lat="43.13574" lon="3.10096">
        <ele>40.6</ele>
        <time>2021-08-21T16:55:40Z</time>
      </trkpt>
      <trkpt lat="43.13586" lon="3.10078">
        <ele>40.4</ele>
        <time>2021-08-21T16:55:46Z</time>
      </trkpt>
      <trkpt lat="43.13588" lon="3.10064">
        <ele>40.6</ele>
        <time>2021-08-21T16:55:50Z</time>
      </trkpt>
      <trkpt lat="43.13594" lon="3.10045">
        <ele>40.6</ele>
        <time>2021-08-21T16:55:54Z</time>
      </trkpt>
      <trkpt lat="43.13603" lon="3.10024">
        <ele>39.8</ele>
        <time>2021-08-21T16:56:00Z</time>
      </trkpt>
      <trkpt lat="43.13605" lon="3.10002">
        <ele>40.8</ele>
        <time>2021-08-21T16:56:06Z</time>
      </trkpt>
      <trkpt lat="43.13605" lon="3.09971">
        <ele>41.2</ele>
        <time>2021-08-21T16:56:13Z</time>
      </trkpt>
      <trkpt lat="43.13601" lon="3.0995">
        <ele>41.4</ele>
        <time>2021-08-21T16:56:18Z</time>
      </trkpt>
      <trkpt lat="43.13598" lon="3.09945">
        <ele>41.4</ele>
        <time>2021-08-21T16:56:19Z</time>
      </trkpt>
      <trkpt lat="43.13584" lon="3.09927">
        <ele>41</ele>
        <time>2021-08-21T16:56:26Z</time>
      </trkpt>
      <trkpt lat="43.13567" lon="3.09903">
        <ele>41.2</ele>
        <time>2021-08-21T16:56:32Z</time>
      </trkpt>
      <trkpt lat="43.13562" lon="3.09882">
        <ele>41.6</ele>
        <time>2021-08-21T16:56:37Z</time>
      </trkpt>
      <trkpt lat="43.13554" lon="3.09857">
        <ele>41.6</ele>
        <time>2021-08-21T16:56:43Z</time>
      </trkpt>
      <trkpt lat="43.13544" lon="3.09834">
        <ele>41.8</ele>
        <time>2021-08-21T16:56:48Z</time>
      </trkpt>
      <trkpt lat="43.13541" lon="3.09829">
        <ele>41.8</ele>
        <time>2021-08-21T16:56:49Z</time>
      </trkpt>
      <trkpt lat="43.13524" lon="3.09806">
        <ele>42.4</ele>
        <time>2021-08-21T16:56:55Z</time>
      </trkpt>
      <trkpt lat="43.13517" lon="3.09795">
        <ele>42.8</ele>
        <time>2021-08-21T16:56:58Z</time>
      </trkpt>
      <trkpt lat="43.13511" lon="3.09783">
        <ele>43</ele>
        <time>2021-08-21T16:57:01Z</time>
      </trkpt>
      <trkpt lat="43.13506" lon="3.09755">
        <ele>43.8</ele>
        <time>2021-08-21T16:57:07Z</time>
      </trkpt>
      <trkpt lat="43.13506" lon="3.09751">
        <ele>44</ele>
        <time>2021-08-21T16:57:08Z</time>
      </trkpt>
      <trkpt lat="43.13511" lon="3.0973">
        <ele>45</ele>
        <time>2021-08-21T16:57:13Z</time>
      </trkpt>
      <trkpt lat="43.13519" lon="3.09711">
        <ele>46.2</ele>
        <time>2021-08-21T16:57:18Z</time>
      </trkpt>
      <trkpt lat="43.13521" lon="3.09708">
        <ele>46.4</ele>
        <time>2021-08-21T16:57:19Z</time>
      </trkpt>
      <trkpt lat="43.13526" lon="3.097">
        <ele>47.2</ele>
        <time>2021-08-21T16:57:22Z</time>
      </trkpt>
      <trkpt lat="43.1353" lon="3.09698">
        <ele>47.8</ele>
        <time>2021-08-21T16:57:24Z</time>
      </trkpt>
      <trkpt lat="43.13533" lon="3.09703">
        <ele>48.2</ele>
        <time>2021-08-21T16:57:26Z</time>
      </trkpt>
      <trkpt lat="43.13534" lon="3.0971">
        <ele>48.8</ele>
        <time>2021-08-21T16:57:28Z</time>
      </trkpt>
      <trkpt lat="43.13535" lon="3.0972">
        <ele>49</ele>
        <time>2021-08-21T16:57:30Z</time>
      </trkpt>
      <trkpt lat="43.13537" lon="3.09735">
        <ele>49.4</ele>
        <time>2021-08-21T16:57:33Z</time>
      </trkpt>
      <trkpt lat="43.13552" lon="3.09771">
        <ele>50</ele>
        <time>2021-08-21T16:57:41Z</time>
      </trkpt>
      <trkpt lat="43.13569" lon="3.09801">
        <ele>50</ele>
        <time>2021-08-21T16:57:48Z</time>
      </trkpt>
      <trkpt lat="43.13591" lon="3.09834">
        <ele>49.6</ele>
        <time>2021-08-21T16:57:56Z</time>
      </trkpt>
      <trkpt lat="43.13614" lon="3.09863">
        <ele>49.6</ele>
        <time>2021-08-21T16:58:03Z</time>
      </trkpt>
      <trkpt lat="43.13626" lon="3.09878">
        <ele>49.2</ele>
        <time>2021-08-21T16:58:07Z</time>
      </trkpt>
      <trkpt lat="43.13641" lon="3.09899">
        <ele>49.2</ele>
        <time>2021-08-21T16:58:12Z</time>
      </trkpt>
      <trkpt lat="43.13655" lon="3.09922">
        <ele>49.2</ele>
        <time>2021-08-21T16:58:17Z</time>
      </trkpt>
      <trkpt lat="43.13671" lon="3.09944">
        <ele>50.4</ele>
        <time>2021-08-21T16:58:23Z</time>
      </trkpt>
      <trkpt lat="43.13673" lon="3.09946">
        <ele>51</ele>
        <time>2021-08-21T16:58:24Z</time>
      </trkpt>
      <trkpt lat="43.13678" lon="3.09954">
        <ele>51.8</ele>
        <time>2021-08-21T16:58:26Z</time>
      </trkpt>
      <trkpt lat="43.13685" lon="3.09964">
        <ele>53</ele>
        <time>2021-08-21T16:58:29Z</time>
      </trkpt>
      <trkpt lat="43.13696" lon="3.09977">
        <ele>54.2</ele>
        <time>2021-08-21T16:58:33Z</time>
      </trkpt>
      <trkpt lat="43.13703" lon="3.09981">
        <ele>54.6</ele>
        <time>2021-08-21T16:58:35Z</time>
      </trkpt>
      <trkpt lat="43.13714" lon="3.0998">
        <ele>55.2</ele>
        <time>2021-08-21T16:58:38Z</time>
      </trkpt>
      <trkpt lat="43.13717" lon="3.09978">
        <ele>55.4</ele>
        <time>2021-08-21T16:58:39Z</time>
      </trkpt>
      <trkpt lat="43.13734" lon="3.09963">
        <ele>56.4</ele>
        <time>2021-08-21T16:58:44Z</time>
      </trkpt>
      <trkpt lat="43.13748" lon="3.09951">
        <ele>57.4</ele>
        <time>2021-08-21T16:58:48Z</time>
      </trkpt>
      <trkpt lat="43.13758" lon="3.09945">
        <ele>58.2</ele>
        <time>2021-08-21T16:58:51Z</time>
      </trkpt>
      <trkpt lat="43.13762" lon="3.09945">
        <ele>58.6</ele>
        <time>2021-08-21T16:58:52Z</time>
      </trkpt>
      <trkpt lat="43.13769" lon="3.0995">
        <ele>59</ele>
        <time>2021-08-21T16:58:54Z</time>
      </trkpt>
      <trkpt lat="43.13773" lon="3.09959">
        <ele>59.6</ele>
        <time>2021-08-21T16:58:56Z</time>
      </trkpt>
      <trkpt lat="43.13778" lon="3.09967">
        <ele>60.2</ele>
        <time>2021-08-21T16:58:58Z</time>
      </trkpt>
      <trkpt lat="43.13783" lon="3.09975">
        <ele>60.6</ele>
        <time>2021-08-21T16:59:00Z</time>
      </trkpt>
      <trkpt lat="43.13797" lon="3.09991">
        <ele>62</ele>
        <time>2021-08-21T16:59:05Z</time>
      </trkpt>
      <trkpt lat="43.1381" lon="3.1">
        <ele>63.2</ele>
        <time>2021-08-21T16:59:09Z</time>
      </trkpt>
      <trkpt lat="43.13821" lon="3.10005">
        <ele>64.2</ele>
        <time>2021-08-21T16:59:12Z</time>
      </trkpt>
      <trkpt lat="43.13834" lon="3.10011">
        <ele>65.4</ele>
        <time>2021-08-21T16:59:16Z</time>
      </trkpt>
      <trkpt lat="43.13848" lon="3.10017">
        <ele>66.4</ele>
        <time>2021-08-21T16:59:20Z</time>
      </trkpt>
      <trkpt lat="43.13863" lon="3.1002">
        <ele>67.8</ele>
        <time>2021-08-21T16:59:24Z</time>
      </trkpt>
      <trkpt lat="43.1387" lon="3.10019">
        <ele>68.4</ele>
        <time>2021-08-21T16:59:26Z</time>
      </trkpt>
      <trkpt lat="43.13874" lon="3.10018">
        <ele>68.8</ele>
        <time>2021-08-21T16:59:27Z</time>
      </trkpt>
      <trkpt lat="43.13884" lon="3.10009">
        <ele>69.8</ele>
        <time>2021-08-21T16:59:30Z</time>
      </trkpt>
      <trkpt lat="43.13887" lon="3.10005">
        <ele>70.2</ele>
        <time>2021-08-21T16:59:31Z</time>
      </trkpt>
      <trkpt lat="43.13895" lon="3.09992">
        <ele>70.8</ele>
        <time>2021-08-21T16:59:34Z</time>
      </trkpt>
      <trkpt lat="43.13902" lon="3.09979">
        <ele>72.2</ele>
        <time>2021-08-21T16:59:37Z</time>
      </trkpt>
      <trkpt lat="43.1391" lon="3.09961">
        <ele>73.2</ele>
        <time>2021-08-21T16:59:41Z</time>
      </trkpt>
      <trkpt lat="43.13917" lon="3.09943">
        <ele>74.4</ele>
        <time>2021-08-21T16:59:45Z</time>
      </trkpt>
      <trkpt lat="43.13919" lon="3.09939">
        <ele>74.6</ele>
        <time>2021-08-21T16:59:46Z</time>
      </trkpt>
      <trkpt lat="43.13925" lon="3.09925">
        <ele>75.4</ele>
        <time>2021-08-21T16:59:49Z</time>
      </trkpt>
      <trkpt lat="43.13931" lon="3.09905">
        <ele>76.4</ele>
        <time>2021-08-21T16:59:53Z</time>
      </trkpt>
      <trkpt lat="43.13932" lon="3.099">
        <ele>76.6</ele>
        <time>2021-08-21T16:59:54Z</time>
      </trkpt>
      <trkpt lat="43.13938" lon="3.09882">
        <ele>77.6</ele>
        <time>2021-08-21T16:59:58Z</time>
      </trkpt>
      <trkpt lat="43.13942" lon="3.09874">
        <ele>78.2</ele>
        <time>2021-08-21T17:00:00Z</time>
      </trkpt>
      <trkpt lat="43.1395" lon="3.09854">
        <ele>78.6</ele>
        <time>2021-08-21T17:00:04Z</time>
      </trkpt>
      <trkpt lat="43.13953" lon="3.09843">
        <ele>78.8</ele>
        <time>2021-08-21T17:00:06Z</time>
      </trkpt>
      <trkpt lat="43.13967" lon="3.0981">
        <ele>79</ele>
        <time>2021-08-21T17:00:12Z</time>
      </trkpt>
      <trkpt lat="43.13977" lon="3.09794">
        <ele>79</ele>
        <time>2021-08-21T17:00:16Z</time>
      </trkpt>
      <trkpt lat="43.13981" lon="3.09795">
        <ele>79</ele>
        <time>2021-08-21T17:00:17Z</time>
      </trkpt>
      <trkpt lat="43.13986" lon="3.09806">
        <ele>79</ele>
        <time>2021-08-21T17:00:20Z</time>
      </trkpt>
      <trkpt lat="43.13986" lon="3.09821">
        <ele>79</ele>
        <time>2021-08-21T17:00:23Z</time>
      </trkpt>
      <trkpt lat="43.13987" lon="3.09831">
        <ele>79</ele>
        <time>2021-08-21T17:00:25Z</time>
      </trkpt>
      <trkpt lat="43.13991" lon="3.09855">
        <ele>80</ele>
        <time>2021-08-21T17:00:30Z</time>
      </trkpt>
      <trkpt lat="43.13993" lon="3.0987">
        <ele>80.6</ele>
        <time>2021-08-21T17:00:33Z</time>
      </trkpt>
      <trkpt lat="43.13994" lon="3.09878">
        <ele>81</ele>
        <time>2021-08-21T17:00:35Z</time>
      </trkpt>
      <trkpt lat="43.13998" lon="3.09896">
        <ele>82.2</ele>
        <time>2021-08-21T17:00:39Z</time>
      </trkpt>
      <trkpt lat="43.14007" lon="3.09912">
        <ele>83.4</ele>
        <time>2021-08-21T17:00:43Z</time>
      </trkpt>
      <trkpt lat="43.1401" lon="3.09915">
        <ele>83.8</ele>
        <time>2021-08-21T17:00:44Z</time>
      </trkpt>
      <trkpt lat="43.14015" lon="3.09921">
        <ele>84.6</ele>
        <time>2021-08-21T17:00:46Z</time>
      </trkpt>
      <trkpt lat="43.14018" lon="3.09929">
        <ele>86</ele>
        <time>2021-08-21T17:00:48Z</time>
      </trkpt>
      <trkpt lat="43.14019" lon="3.09933">
        <ele>86.4</ele>
        <time>2021-08-21T17:00:49Z</time>
      </trkpt>
      <trkpt lat="43.1402" lon="3.09944">
        <ele>87</ele>
        <time>2021-08-21T17:00:51Z</time>
      </trkpt>
      <trkpt lat="43.14022" lon="3.09965">
        <ele>88.2</ele>
        <time>2021-08-21T17:00:55Z</time>
      </trkpt>
      <trkpt lat="43.14024" lon="3.09969">
        <ele>88.4</ele>
        <time>2021-08-21T17:00:56Z</time>
      </trkpt>
      <trkpt lat="43.14029" lon="3.09974">
        <ele>88.8</ele>
        <time>2021-08-21T17:00:58Z</time>
      </trkpt>
      <trkpt lat="43.14033" lon="3.09974">
        <ele>89</ele>
        <time>2021-08-21T17:00:59Z</time>
      </trkpt>
      <trkpt lat="43.14037" lon="3.09974">
        <ele>89.4</ele>
        <time>2021-08-21T17:01:00Z</time>
      </trkpt>
      <trkpt lat="43.14046" lon="3.09967">
        <ele>90.4</ele>
        <time>2021-08-21T17:01:03Z</time>
      </trkpt>
      <trkpt lat="43.14057" lon="3.0996">
        <ele>91.4</ele>
        <time>2021-08-21T17:01:07Z</time>
      </trkpt>
      <trkpt lat="43.14066" lon="3.09953">
        <ele>92</ele>
        <time>2021-08-21T17:01:10Z</time>
      </trkpt>
      <trkpt lat="43.14068" lon="3.09949">
        <ele>92.4</ele>
        <time>2021-08-21T17:01:11Z</time>
      </trkpt>
      <trkpt lat="43.14074" lon="3.09942">
        <ele>93.4</ele>
        <time>2021-08-21T17:01:13Z</time>
      </trkpt>
      <trkpt lat="43.14083" lon="3.09932">
        <ele>94.6</ele>
        <time>2021-08-21T17:01:16Z</time>
      </trkpt>
      <trkpt lat="43.14085" lon="3.09929">
        <ele>95</ele>
        <time>2021-08-21T17:01:17Z</time>
      </trkpt>
      <trkpt lat="43.14091" lon="3.09922">
        <ele>96</ele>
        <time>2021-08-21T17:01:19Z</time>
      </trkpt>
      <trkpt lat="43.14095" lon="3.09914">
        <ele>97</ele>
        <time>2021-08-21T17:01:21Z</time>
      </trkpt>
      <trkpt lat="43.14099" lon="3.09905">
        <ele>98</ele>
        <time>2021-08-21T17:01:23Z</time>
      </trkpt>
      <trkpt lat="43.14098" lon="3.0989">
        <ele>99.4</ele>
        <time>2021-08-21T17:01:26Z</time>
      </trkpt>
      <trkpt lat="43.14097" lon="3.09885">
        <ele>99.8</ele>
        <time>2021-08-21T17:01:27Z</time>
      </trkpt>
      <trkpt lat="43.14096" lon="3.09875">
        <ele>100.6</ele>
        <time>2021-08-21T17:01:29Z</time>
      </trkpt>
      <trkpt lat="43.14095" lon="3.09862">
        <ele>101.8</ele>
        <time>2021-08-21T17:01:32Z</time>
      </trkpt>
      <trkpt lat="43.14096" lon="3.09853">
        <ele>102.4</ele>
        <time>2021-08-21T17:01:34Z</time>
      </trkpt>
      <trkpt lat="43.14096" lon="3.09849">
        <ele>102.8</ele>
        <time>2021-08-21T17:01:35Z</time>
      </trkpt>
      <trkpt lat="43.14096" lon="3.09839">
        <ele>103.8</ele>
        <time>2021-08-21T17:01:37Z</time>
      </trkpt>
      <trkpt lat="43.14102" lon="3.09822">
        <ele>105.2</ele>
        <time>2021-08-21T17:01:41Z</time>
      </trkpt>
      <trkpt lat="43.14111" lon="3.09809">
        <ele>106.4</ele>
        <time>2021-08-21T17:01:45Z</time>
      </trkpt>
      <trkpt lat="43.14116" lon="3.09802">
        <ele>107</ele>
        <time>2021-08-21T17:01:47Z</time>
      </trkpt>
      <trkpt lat="43.14118" lon="3.09798">
        <ele>107.6</ele>
        <time>2021-08-21T17:01:48Z</time>
      </trkpt>
      <trkpt lat="43.14122" lon="3.09784">
        <ele>108.8</ele>
        <time>2021-08-21T17:01:51Z</time>
      </trkpt>
      <trkpt lat="43.14126" lon="3.09772">
        <ele>109.6</ele>
        <time>2021-08-21T17:01:54Z</time>
      </trkpt>
      <trkpt lat="43.14128" lon="3.09768">
        <ele>110</ele>
        <time>2021-08-21T17:01:55Z</time>
      </trkpt>
      <trkpt lat="43.14132" lon="3.09755">
        <ele>111.2</ele>
        <time>2021-08-21T17:01:58Z</time>
      </trkpt>
      <trkpt lat="43.14134" lon="3.09747">
        <ele>112.6</ele>
        <time>2021-08-21T17:02:00Z</time>
      </trkpt>
      <trkpt lat="43.14135" lon="3.09742">
        <ele>113</ele>
        <time>2021-08-21T17:02:01Z</time>
      </trkpt>
      <trkpt lat="43.14136" lon="3.09729">
        <ele>113.8</ele>
        <time>2021-08-21T17:02:04Z</time>
      </trkpt>
      <trkpt lat="43.14137" lon="3.09711">
        <ele>115</ele>
        <time>2021-08-21T17:02:08Z</time>
      </trkpt>
      <trkpt lat="43.14136" lon="3.09706">
        <ele>115.4</ele>
        <time>2021-08-21T17:02:09Z</time>
      </trkpt>
      <trkpt lat="43.14136" lon="3.09698">
        <ele>116</ele>
        <time>2021-08-21T17:02:11Z</time>
      </trkpt>
      <trkpt lat="43.14135" lon="3.0968">
        <ele>117.4</ele>
        <time>2021-08-21T17:02:15Z</time>
      </trkpt>
      <trkpt lat="43.14134" lon="3.09676">
        <ele>117.6</ele>
        <time>2021-08-21T17:02:16Z</time>
      </trkpt>
      <trkpt lat="43.14134" lon="3.09663">
        <ele>118.6</ele>
        <time>2021-08-21T17:02:19Z</time>
      </trkpt>
      <trkpt lat="43.14133" lon="3.0965">
        <ele>119.8</ele>
        <time>2021-08-21T17:02:22Z</time>
      </trkpt>
      <trkpt lat="43.14134" lon="3.09646">
        <ele>120</ele>
        <time>2021-08-21T17:02:23Z</time>
      </trkpt>
      <trkpt lat="43.14136" lon="3.09633">
        <ele>121.2</ele>
        <time>2021-08-21T17:02:26Z</time>
      </trkpt>
      <trkpt lat="43.14141" lon="3.09617">
        <ele>122.4</ele>
        <time>2021-08-21T17:02:30Z</time>
      </trkpt>
      <trkpt lat="43.14142" lon="3.09613">
        <ele>122.6</ele>
        <time>2021-08-21T17:02:31Z</time>
      </trkpt>
      <trkpt lat="43.14144" lon="3.096">
        <ele>123.6</ele>
        <time>2021-08-21T17:02:34Z</time>
      </trkpt>
      <trkpt lat="43.14141" lon="3.09583">
        <ele>124.8</ele>
        <time>2021-08-21T17:02:38Z</time>
      </trkpt>
      <trkpt lat="43.14133" lon="3.09568">
        <ele>126.2</ele>
        <time>2021-08-21T17:02:42Z</time>
      </trkpt>
      <trkpt lat="43.14127" lon="3.09563">
        <ele>127</ele>
        <time>2021-08-21T17:02:44Z</time>
      </trkpt>
      <trkpt lat="43.14124" lon="3.09561">
        <ele>127.2</ele>
        <time>2021-08-21T17:02:45Z</time>
      </trkpt>
      <trkpt lat="43.14117" lon="3.09552">
        <ele>128.2</ele>
        <time>2021-08-21T17:02:48Z</time>
      </trkpt>
      <trkpt lat="43.14112" lon="3.09546">
        <ele>128.8</ele>
        <time>2021-08-21T17:02:50Z</time>
      </trkpt>
      <trkpt lat="43.14106" lon="3.09542">
        <ele>129.4</ele>
        <time>2021-08-21T17:02:52Z</time>
      </trkpt>
      <trkpt lat="43.14093" lon="3.09535">
        <ele>130.4</ele>
        <time>2021-08-21T17:02:56Z</time>
      </trkpt>
      <trkpt lat="43.14079" lon="3.09525">
        <ele>131.6</ele>
        <time>2021-08-21T17:03:01Z</time>
      </trkpt>
      <trkpt lat="43.14071" lon="3.09518">
        <ele>132.4</ele>
        <time>2021-08-21T17:03:04Z</time>
      </trkpt>
      <trkpt lat="43.14065" lon="3.09513">
        <ele>132.8</ele>
        <time>2021-08-21T17:03:06Z</time>
      </trkpt>
      <trkpt lat="43.14052" lon="3.09501">
        <ele>133.8</ele>
        <time>2021-08-21T17:03:11Z</time>
      </trkpt>
      <trkpt lat="43.14044" lon="3.09495">
        <ele>135</ele>
        <time>2021-08-21T17:03:14Z</time>
      </trkpt>
      <trkpt lat="43.14026" lon="3.09482">
        <ele>135.8</ele>
        <time>2021-08-21T17:03:20Z</time>
      </trkpt>
      <trkpt lat="43.14024" lon="3.09479">
        <ele>136</ele>
        <time>2021-08-21T17:03:21Z</time>
      </trkpt>
      <trkpt lat="43.14023" lon="3.09476">
        <ele>136.2</ele>
        <time>2021-08-21T17:03:22Z</time>
      </trkpt>
      <trkpt lat="43.14024" lon="3.09469">
        <ele>136.2</ele>
        <time>2021-08-21T17:03:24Z</time>
      </trkpt>
      <trkpt lat="43.14032" lon="3.09464">
        <ele>136.8</ele>
        <time>2021-08-21T17:03:27Z</time>
      </trkpt>
      <trkpt lat="43.14038" lon="3.09465">
        <ele>137.2</ele>
        <time>2021-08-21T17:03:29Z</time>
      </trkpt>
      <trkpt lat="43.14048" lon="3.09468">
        <ele>137.4</ele>
        <time>2021-08-21T17:03:32Z</time>
      </trkpt>
      <trkpt lat="43.14052" lon="3.0947">
        <ele>137.6</ele>
        <time>2021-08-21T17:03:33Z</time>
      </trkpt>
      <trkpt lat="43.14081" lon="3.09481">
        <ele>138</ele>
        <time>2021-08-21T17:03:42Z</time>
      </trkpt>
      <trkpt lat="43.14111" lon="3.09496">
        <ele>138</ele>
        <time>2021-08-21T17:03:51Z</time>
      </trkpt>
      <trkpt lat="43.14145" lon="3.09514">
        <ele>138</ele>
        <time>2021-08-21T17:04:00Z</time>
      </trkpt>
      <trkpt lat="43.14181" lon="3.09527">
        <ele>137.6</ele>
        <time>2021-08-21T17:04:09Z</time>
      </trkpt>
      <trkpt lat="43.14185" lon="3.09528">
        <ele>137.6</ele>
        <time>2021-08-21T17:04:10Z</time>
      </trkpt>
      <trkpt lat="43.14213" lon="3.09532">
        <ele>137</ele>
        <time>2021-08-21T17:04:16Z</time>
      </trkpt>
      <trkpt lat="43.14262" lon="3.09538">
        <ele>137.6</ele>
        <time>2021-08-21T17:04:27Z</time>
      </trkpt>
      <trkpt lat="43.14274" lon="3.09544">
        <ele>138.2</ele>
        <time>2021-08-21T17:04:30Z</time>
      </trkpt>
      <trkpt lat="43.14294" lon="3.09556">
        <ele>138.8</ele>
        <time>2021-08-21T17:04:35Z</time>
      </trkpt>
      <trkpt lat="43.14298" lon="3.09558">
        <ele>139</ele>
        <time>2021-08-21T17:04:36Z</time>
      </trkpt>
      <trkpt lat="43.14306" lon="3.09561">
        <ele>139.2</ele>
        <time>2021-08-21T17:04:38Z</time>
      </trkpt>
      <trkpt lat="43.14318" lon="3.09563">
        <ele>139.6</ele>
        <time>2021-08-21T17:04:41Z</time>
      </trkpt>
      <trkpt lat="43.14334" lon="3.09567">
        <ele>140.2</ele>
        <time>2021-08-21T17:04:45Z</time>
      </trkpt>
      <trkpt lat="43.14347" lon="3.09566">
        <ele>140.8</ele>
        <time>2021-08-21T17:04:48Z</time>
      </trkpt>
      <trkpt lat="43.14358" lon="3.09562">
        <ele>141.2</ele>
        <time>2021-08-21T17:04:51Z</time>
      </trkpt>
      <trkpt lat="43.14369" lon="3.09554">
        <ele>141.6</ele>
        <time>2021-08-21T17:04:54Z</time>
      </trkpt>
      <trkpt lat="43.14381" lon="3.09543">
        <ele>142.4</ele>
        <time>2021-08-21T17:04:57Z</time>
      </trkpt>
      <trkpt lat="43.14385" lon="3.0954">
        <ele>142.6</ele>
        <time>2021-08-21T17:04:58Z</time>
      </trkpt>
      <trkpt lat="43.14389" lon="3.09537">
        <ele>142.8</ele>
        <time>2021-08-21T17:04:59Z</time>
      </trkpt>
      <trkpt lat="43.14398" lon="3.09533">
        <ele>143.4</ele>
        <time>2021-08-21T17:05:01Z</time>
      </trkpt>
      <trkpt lat="43.14416" lon="3.09532">
        <ele>144.6</ele>
        <time>2021-08-21T17:05:05Z</time>
      </trkpt>
      <trkpt lat="43.1442" lon="3.09532">
        <ele>144.8</ele>
        <time>2021-08-21T17:05:06Z</time>
      </trkpt>
      <trkpt lat="43.14425" lon="3.09533">
        <ele>145</ele>
        <time>2021-08-21T17:05:07Z</time>
      </trkpt>
      <trkpt lat="43.14434" lon="3.09534">
        <ele>145.8</ele>
        <time>2021-08-21T17:05:09Z</time>
      </trkpt>
      <trkpt lat="43.14442" lon="3.09535">
        <ele>146.6</ele>
        <time>2021-08-21T17:05:11Z</time>
      </trkpt>
      <trkpt lat="43.14446" lon="3.09537">
        <ele>146.8</ele>
        <time>2021-08-21T17:05:12Z</time>
      </trkpt>
      <trkpt lat="43.14462" lon="3.09543">
        <ele>148</ele>
        <time>2021-08-21T17:05:16Z</time>
      </trkpt>
      <trkpt lat="43.1447" lon="3.09546">
        <ele>148.4</ele>
        <time>2021-08-21T17:05:18Z</time>
      </trkpt>
      <trkpt lat="43.14482" lon="3.09551">
        <ele>149.2</ele>
        <time>2021-08-21T17:05:21Z</time>
      </trkpt>
      <trkpt lat="43.14499" lon="3.09556">
        <ele>149.8</ele>
        <time>2021-08-21T17:05:25Z</time>
      </trkpt>
      <trkpt lat="43.14507" lon="3.09557">
        <ele>150</ele>
        <time>2021-08-21T17:05:27Z</time>
      </trkpt>
      <trkpt lat="43.14511" lon="3.09557">
        <ele>150.2</ele>
        <time>2021-08-21T17:05:28Z</time>
      </trkpt>
      <trkpt lat="43.14519" lon="3.09553">
        <ele>150.6</ele>
        <time>2021-08-21T17:05:30Z</time>
      </trkpt>
      <trkpt lat="43.1453" lon="3.09543">
        <ele>151</ele>
        <time>2021-08-21T17:05:33Z</time>
      </trkpt>
      <trkpt lat="43.14537" lon="3.09534">
        <ele>151.2</ele>
        <time>2021-08-21T17:05:35Z</time>
      </trkpt>
      <trkpt lat="43.14557" lon="3.09502">
        <ele>152.4</ele>
        <time>2021-08-21T17:05:42Z</time>
      </trkpt>
      <trkpt lat="43.1456" lon="3.09497">
        <ele>152.4</ele>
        <time>2021-08-21T17:05:43Z</time>
      </trkpt>
      <trkpt lat="43.14584" lon="3.09461">
        <ele>153</ele>
        <time>2021-08-21T17:05:51Z</time>
      </trkpt>
      <trkpt lat="43.14601" lon="3.0944">
        <ele>153.2</ele>
        <time>2021-08-21T17:05:57Z</time>
      </trkpt>
      <trkpt lat="43.14609" lon="3.0944">
        <ele>153.2</ele>
        <time>2021-08-21T17:05:59Z</time>
      </trkpt>
      <trkpt lat="43.14617" lon="3.09446">
        <ele>153</ele>
        <time>2021-08-21T17:06:01Z</time>
      </trkpt>
      <trkpt lat="43.14628" lon="3.09466">
        <ele>152.2</ele>
        <time>2021-08-21T17:06:05Z</time>
      </trkpt>
      <trkpt lat="43.14631" lon="3.09472">
        <ele>152.2</ele>
        <time>2021-08-21T17:06:06Z</time>
      </trkpt>
      <trkpt lat="43.14642" lon="3.09494">
        <ele>151.6</ele>
        <time>2021-08-21T17:06:10Z</time>
      </trkpt>
      <trkpt lat="43.1465" lon="3.09511">
        <ele>151.2</ele>
        <time>2021-08-21T17:06:13Z</time>
      </trkpt>
      <trkpt lat="43.14661" lon="3.09534">
        <ele>151</ele>
        <time>2021-08-21T17:06:17Z</time>
      </trkpt>
      <trkpt lat="43.14675" lon="3.09544">
        <ele>151</ele>
        <time>2021-08-21T17:06:20Z</time>
      </trkpt>
      <trkpt lat="43.14696" lon="3.09543">
        <ele>150.8</ele>
        <time>2021-08-21T17:06:24Z</time>
      </trkpt>
      <trkpt lat="43.14712" lon="3.09531">
        <ele>150.2</ele>
        <time>2021-08-21T17:06:27Z</time>
      </trkpt>
      <trkpt lat="43.14728" lon="3.09518">
        <ele>149.8</ele>
        <time>2021-08-21T17:06:30Z</time>
      </trkpt>
      <trkpt lat="43.14742" lon="3.09504">
        <ele>149.6</ele>
        <time>2021-08-21T17:06:33Z</time>
      </trkpt>
      <trkpt lat="43.14753" lon="3.09503">
        <ele>149.4</ele>
        <time>2021-08-21T17:06:35Z</time>
      </trkpt>
      <trkpt lat="43.14768" lon="3.09505">
        <ele>149.4</ele>
        <time>2021-08-21T17:06:38Z</time>
      </trkpt>
      <trkpt lat="43.14777" lon="3.09505">
        <ele>149.4</ele>
        <time>2021-08-21T17:06:40Z</time>
      </trkpt>
      <trkpt lat="43.1479" lon="3.09509">
        <ele>149.4</ele>
        <time>2021-08-21T17:06:43Z</time>
      </trkpt>
      <trkpt lat="43.14793" lon="3.09518">
        <ele>149.4</ele>
        <time>2021-08-21T17:06:45Z</time>
      </trkpt>
      <trkpt lat="43.14791" lon="3.09529">
        <ele>149.2</ele>
        <time>2021-08-21T17:06:47Z</time>
      </trkpt>
      <trkpt lat="43.14789" lon="3.09534">
        <ele>149</ele>
        <time>2021-08-21T17:06:48Z</time>
      </trkpt>
      <trkpt lat="43.14785" lon="3.09546">
        <ele>149</ele>
        <time>2021-08-21T17:06:50Z</time>
      </trkpt>
      <trkpt lat="43.14774" lon="3.09575">
        <ele>148.8</ele>
        <time>2021-08-21T17:06:55Z</time>
      </trkpt>
      <trkpt lat="43.14765" lon="3.09607">
        <ele>148.2</ele>
        <time>2021-08-21T17:07:00Z</time>
      </trkpt>
      <trkpt lat="43.14763" lon="3.09622">
        <ele>148</ele>
        <time>2021-08-21T17:07:02Z</time>
      </trkpt>
      <trkpt lat="43.14763" lon="3.09629">
        <ele>147.6</ele>
        <time>2021-08-21T17:07:03Z</time>
      </trkpt>
      <trkpt lat="43.14761" lon="3.09655">
        <ele>146.8</ele>
        <time>2021-08-21T17:07:06Z</time>
      </trkpt>
      <trkpt lat="43.14761" lon="3.09664">
        <ele>146.6</ele>
        <time>2021-08-21T17:07:07Z</time>
      </trkpt>
      <trkpt lat="43.14761" lon="3.09672">
        <ele>146</ele>
        <time>2021-08-21T17:07:08Z</time>
      </trkpt>
      <trkpt lat="43.14763" lon="3.0968">
        <ele>145.6</ele>
        <time>2021-08-21T17:07:09Z</time>
      </trkpt>
      <trkpt lat="43.14767" lon="3.09687">
        <ele>145.2</ele>
        <time>2021-08-21T17:07:10Z</time>
      </trkpt>
      <trkpt lat="43.14777" lon="3.09701">
        <ele>144.6</ele>
        <time>2021-08-21T17:07:12Z</time>
      </trkpt>
      <trkpt lat="43.14782" lon="3.09708">
        <ele>144.2</ele>
        <time>2021-08-21T17:07:13Z</time>
      </trkpt>
      <trkpt lat="43.14798" lon="3.09734">
        <ele>142.6</ele>
        <time>2021-08-21T17:07:16Z</time>
      </trkpt>
      <trkpt lat="43.1481" lon="3.09748">
        <ele>141.2</ele>
        <time>2021-08-21T17:07:18Z</time>
      </trkpt>
      <trkpt lat="43.14823" lon="3.0976">
        <ele>140.2</ele>
        <time>2021-08-21T17:07:20Z</time>
      </trkpt>
      <trkpt lat="43.14835" lon="3.09767">
        <ele>139.2</ele>
        <time>2021-08-21T17:07:22Z</time>
      </trkpt>
      <trkpt lat="43.14841" lon="3.09767">
        <ele>138.8</ele>
        <time>2021-08-21T17:07:23Z</time>
      </trkpt>
      <trkpt lat="43.14853" lon="3.09764">
        <ele>138.2</ele>
        <time>2021-08-21T17:07:25Z</time>
      </trkpt>
      <trkpt lat="43.14859" lon="3.09762">
        <ele>138</ele>
        <time>2021-08-21T17:07:26Z</time>
      </trkpt>
      <trkpt lat="43.14866" lon="3.0976">
        <ele>137.8</ele>
        <time>2021-08-21T17:07:27Z</time>
      </trkpt>
      <trkpt lat="43.14884" lon="3.09759">
        <ele>136.4</ele>
        <time>2021-08-21T17:07:30Z</time>
      </trkpt>
      <trkpt lat="43.14892" lon="3.09764">
        <ele>135.2</ele>
        <time>2021-08-21T17:07:32Z</time>
      </trkpt>
      <trkpt lat="43.14894" lon="3.09768">
        <ele>134.8</ele>
        <time>2021-08-21T17:07:33Z</time>
      </trkpt>
      <trkpt lat="43.14896" lon="3.09772">
        <ele>134.6</ele>
        <time>2021-08-21T17:07:34Z</time>
      </trkpt>
      <trkpt lat="43.14903" lon="3.09776">
        <ele>134.2</ele>
        <time>2021-08-21T17:07:37Z</time>
      </trkpt>
      <trkpt lat="43.14918" lon="3.09774">
        <ele>134.2</ele>
        <time>2021-08-21T17:07:40Z</time>
      </trkpt>
      <trkpt lat="43.14933" lon="3.09773">
        <ele>134.6</ele>
        <time>2021-08-21T17:07:43Z</time>
      </trkpt>
      <trkpt lat="43.14941" lon="3.09772">
        <ele>135</ele>
        <time>2021-08-21T17:07:45Z</time>
      </trkpt>
      <trkpt lat="43.14946" lon="3.09771">
        <ele>135.2</ele>
        <time>2021-08-21T17:07:46Z</time>
      </trkpt>
      <trkpt lat="43.14963" lon="3.09772">
        <ele>136.2</ele>
        <time>2021-08-21T17:07:50Z</time>
      </trkpt>
      <trkpt lat="43.14972" lon="3.09773">
        <ele>136.8</ele>
        <time>2021-08-21T17:07:52Z</time>
      </trkpt>
      <trkpt lat="43.14981" lon="3.09773">
        <ele>137.4</ele>
        <time>2021-08-21T17:07:54Z</time>
      </trkpt>
      <trkpt lat="43.14998" lon="3.09773">
        <ele>138.6</ele>
        <time>2021-08-21T17:07:58Z</time>
      </trkpt>
      <trkpt lat="43.15011" lon="3.09772">
        <ele>140</ele>
        <time>2021-08-21T17:08:01Z</time>
      </trkpt>
      <trkpt lat="43.1502" lon="3.09771">
        <ele>140.6</ele>
        <time>2021-08-21T17:08:03Z</time>
      </trkpt>
      <trkpt lat="43.15029" lon="3.09771">
        <ele>141</ele>
        <time>2021-08-21T17:08:05Z</time>
      </trkpt>
      <trkpt lat="43.15047" lon="3.0977">
        <ele>142.2</ele>
        <time>2021-08-21T17:08:09Z</time>
      </trkpt>
      <trkpt lat="43.1506" lon="3.09767">
        <ele>143</ele>
        <time>2021-08-21T17:08:12Z</time>
      </trkpt>
      <trkpt lat="43.15062" lon="3.09763">
        <ele>143.4</ele>
        <time>2021-08-21T17:08:13Z</time>
      </trkpt>
      <trkpt lat="43.15065" lon="3.09754">
        <ele>143.8</ele>
        <time>2021-08-21T17:08:15Z</time>
      </trkpt>
      <trkpt lat="43.15067" lon="3.09743">
        <ele>144.4</ele>
        <time>2021-08-21T17:08:17Z</time>
      </trkpt>
      <trkpt lat="43.15074" lon="3.09732">
        <ele>144.8</ele>
        <time>2021-08-21T17:08:20Z</time>
      </trkpt>
      <trkpt lat="43.15078" lon="3.0972">
        <ele>145.4</ele>
        <time>2021-08-21T17:08:23Z</time>
      </trkpt>
      <trkpt lat="43.15078" lon="3.09715">
        <ele>145.8</ele>
        <time>2021-08-21T17:08:24Z</time>
      </trkpt>
      <trkpt lat="43.15075" lon="3.09711">
        <ele>146.4</ele>
        <time>2021-08-21T17:08:25Z</time>
      </trkpt>
      <trkpt lat="43.15072" lon="3.09707">
        <ele>146.6</ele>
        <time>2021-08-21T17:08:26Z</time>
      </trkpt>
      <trkpt lat="43.15069" lon="3.09697">
        <ele>147.2</ele>
        <time>2021-08-21T17:08:28Z</time>
      </trkpt>
      <trkpt lat="43.15066" lon="3.09693">
        <ele>147.6</ele>
        <time>2021-08-21T17:08:29Z</time>
      </trkpt>
      <trkpt lat="43.15064" lon="3.09689">
        <ele>147.8</ele>
        <time>2021-08-21T17:08:30Z</time>
      </trkpt>
      <trkpt lat="43.15057" lon="3.09672">
        <ele>149</ele>
        <time>2021-08-21T17:08:34Z</time>
      </trkpt>
      <trkpt lat="43.15058" lon="3.09667">
        <ele>149.2</ele>
        <time>2021-08-21T17:08:35Z</time>
      </trkpt>
      <trkpt lat="43.15066" lon="3.09656">
        <ele>149.8</ele>
        <time>2021-08-21T17:08:38Z</time>
      </trkpt>
      <trkpt lat="43.15068" lon="3.09652">
        <ele>150</ele>
        <time>2021-08-21T17:08:39Z</time>
      </trkpt>
      <trkpt lat="43.15077" lon="3.09635">
        <ele>151.2</ele>
        <time>2021-08-21T17:08:43Z</time>
      </trkpt>
      <trkpt lat="43.15096" lon="3.09599">
        <ele>152.2</ele>
        <time>2021-08-21T17:08:51Z</time>
      </trkpt>
      <trkpt lat="43.15112" lon="3.09552">
        <ele>152.2</ele>
        <time>2021-08-21T17:09:00Z</time>
      </trkpt>
      <trkpt lat="43.1512" lon="3.09524">
        <ele>152</ele>
        <time>2021-08-21T17:09:05Z</time>
      </trkpt>
      <trkpt lat="43.15125" lon="3.09514">
        <ele>152</ele>
        <time>2021-08-21T17:09:07Z</time>
      </trkpt>
      <trkpt lat="43.15128" lon="3.09502">
        <ele>151.8</ele>
        <time>2021-08-21T17:09:09Z</time>
      </trkpt>
      <trkpt lat="43.15134" lon="3.09485">
        <ele>151.6</ele>
        <time>2021-08-21T17:09:12Z</time>
      </trkpt>
      <trkpt lat="43.15137" lon="3.0948">
        <ele>151.2</ele>
        <time>2021-08-21T17:09:13Z</time>
      </trkpt>
      <trkpt lat="43.15145" lon="3.09464">
        <ele>151</ele>
        <time>2021-08-21T17:09:16Z</time>
      </trkpt>
      <trkpt lat="43.15151" lon="3.09453">
        <ele>150.8</ele>
        <time>2021-08-21T17:09:18Z</time>
      </trkpt>
      <trkpt lat="43.15153" lon="3.09447">
        <ele>150.6</ele>
        <time>2021-08-21T17:09:19Z</time>
      </trkpt>
      <trkpt lat="43.15164" lon="3.09422">
        <ele>150.2</ele>
        <time>2021-08-21T17:09:23Z</time>
      </trkpt>
      <trkpt lat="43.15167" lon="3.09417">
        <ele>150</ele>
        <time>2021-08-21T17:09:24Z</time>
      </trkpt>
      <trkpt lat="43.15187" lon="3.09373">
        <ele>149</ele>
        <time>2021-08-21T17:09:31Z</time>
      </trkpt>
      <trkpt lat="43.15193" lon="3.09362">
        <ele>148.8</ele>
        <time>2021-08-21T17:09:33Z</time>
      </trkpt>
      <trkpt lat="43.15205" lon="3.09339">
        <ele>148.4</ele>
        <time>2021-08-21T17:09:37Z</time>
      </trkpt>
      <trkpt lat="43.15215" lon="3.09323">
        <ele>148</ele>
        <time>2021-08-21T17:09:40Z</time>
      </trkpt>
      <trkpt lat="43.15218" lon="3.09317">
        <ele>147.8</ele>
        <time>2021-08-21T17:09:41Z</time>
      </trkpt>
      <trkpt lat="43.15224" lon="3.09306">
        <ele>147.8</ele>
        <time>2021-08-21T17:09:43Z</time>
      </trkpt>
      <trkpt lat="43.15227" lon="3.093">
        <ele>147.8</ele>
        <time>2021-08-21T17:09:44Z</time>
      </trkpt>
      <trkpt lat="43.15234" lon="3.09282">
        <ele>147.6</ele>
        <time>2021-08-21T17:09:47Z</time>
      </trkpt>
      <trkpt lat="43.15238" lon="3.0927">
        <ele>147.4</ele>
        <time>2021-08-21T17:09:49Z</time>
      </trkpt>
      <trkpt lat="43.15238" lon="3.09264">
        <ele>147.4</ele>
        <time>2021-08-21T17:09:50Z</time>
      </trkpt>
      <trkpt lat="43.15239" lon="3.09245">
        <ele>147.4</ele>
        <time>2021-08-21T17:09:53Z</time>
      </trkpt>
      <trkpt lat="43.15242" lon="3.09232">
        <ele>147.4</ele>
        <time>2021-08-21T17:09:55Z</time>
      </trkpt>
      <trkpt lat="43.15245" lon="3.09212">
        <ele>147.4</ele>
        <time>2021-08-21T17:09:58Z</time>
      </trkpt>
      <trkpt lat="43.15249" lon="3.092">
        <ele>147.4</ele>
        <time>2021-08-21T17:10:00Z</time>
      </trkpt>
      <trkpt lat="43.15251" lon="3.09194">
        <ele>147.2</ele>
        <time>2021-08-21T17:10:01Z</time>
      </trkpt>
      <trkpt lat="43.15256" lon="3.09165">
        <ele>147</ele>
        <time>2021-08-21T17:10:05Z</time>
      </trkpt>
      <trkpt lat="43.15256" lon="3.09158">
        <ele>147</ele>
        <time>2021-08-21T17:10:06Z</time>
      </trkpt>
      <trkpt lat="43.15261" lon="3.09131">
        <ele>145.8</ele>
        <time>2021-08-21T17:10:10Z</time>
      </trkpt>
      <trkpt lat="43.15262" lon="3.09104">
        <ele>144.4</ele>
        <time>2021-08-21T17:10:14Z</time>
      </trkpt>
      <trkpt lat="43.15264" lon="3.09097">
        <ele>144</ele>
        <time>2021-08-21T17:10:15Z</time>
      </trkpt>
      <trkpt lat="43.15266" lon="3.0909">
        <ele>143.4</ele>
        <time>2021-08-21T17:10:16Z</time>
      </trkpt>
      <trkpt lat="43.15271" lon="3.09069">
        <ele>142</ele>
        <time>2021-08-21T17:10:19Z</time>
      </trkpt>
      <trkpt lat="43.1527" lon="3.09063">
        <ele>141.6</ele>
        <time>2021-08-21T17:10:20Z</time>
      </trkpt>
      <trkpt lat="43.15263" lon="3.09056">
        <ele>140.8</ele>
        <time>2021-08-21T17:10:22Z</time>
      </trkpt>
      <trkpt lat="43.15259" lon="3.09053">
        <ele>140.4</ele>
        <time>2021-08-21T17:10:23Z</time>
      </trkpt>
      <trkpt lat="43.15255" lon="3.09044">
        <ele>139.8</ele>
        <time>2021-08-21T17:10:25Z</time>
      </trkpt>
      <trkpt lat="43.15255" lon="3.09038">
        <ele>139.8</ele>
        <time>2021-08-21T17:10:26Z</time>
      </trkpt>
      <trkpt lat="43.1526" lon="3.09014">
        <ele>139.6</ele>
        <time>2021-08-21T17:10:30Z</time>
      </trkpt>
      <trkpt lat="43.15262" lon="3.09007">
        <ele>139.4</ele>
        <time>2021-08-21T17:10:31Z</time>
      </trkpt>
      <trkpt lat="43.15269" lon="3.08987">
        <ele>138.8</ele>
        <time>2021-08-21T17:10:34Z</time>
      </trkpt>
      <trkpt lat="43.15275" lon="3.08973">
        <ele>138.4</ele>
        <time>2021-08-21T17:10:36Z</time>
      </trkpt>
      <trkpt lat="43.15283" lon="3.0895">
        <ele>137.6</ele>
        <time>2021-08-21T17:10:39Z</time>
      </trkpt>
      <trkpt lat="43.15289" lon="3.08924">
        <ele>136.8</ele>
        <time>2021-08-21T17:10:42Z</time>
      </trkpt>
      <trkpt lat="43.15292" lon="3.08915">
        <ele>136.6</ele>
        <time>2021-08-21T17:10:43Z</time>
      </trkpt>
      <trkpt lat="43.15298" lon="3.08889">
        <ele>135.4</ele>
        <time>2021-08-21T17:10:46Z</time>
      </trkpt>
      <trkpt lat="43.15299" lon="3.08871">
        <ele>134.8</ele>
        <time>2021-08-21T17:10:48Z</time>
      </trkpt>
      <trkpt lat="43.153" lon="3.08862">
        <ele>134.4</ele>
        <time>2021-08-21T17:10:49Z</time>
      </trkpt>
      <trkpt lat="43.15303" lon="3.08846">
        <ele>134.2</ele>
        <time>2021-08-21T17:10:51Z</time>
      </trkpt>
      <trkpt lat="43.15306" lon="3.08829">
        <ele>134</ele>
        <time>2021-08-21T17:10:53Z</time>
      </trkpt>
      <trkpt lat="43.15306" lon="3.0882">
        <ele>133.8</ele>
        <time>2021-08-21T17:10:54Z</time>
      </trkpt>
      <trkpt lat="43.15308" lon="3.08792">
        <ele>133.2</ele>
        <time>2021-08-21T17:10:57Z</time>
      </trkpt>
      <trkpt lat="43.15309" lon="3.08784">
        <ele>132.8</ele>
        <time>2021-08-21T17:10:58Z</time>
      </trkpt>
      <trkpt lat="43.1531" lon="3.08768">
        <ele>132.4</ele>
        <time>2021-08-21T17:11:00Z</time>
      </trkpt>
      <trkpt lat="43.15314" lon="3.08755">
        <ele>132</ele>
        <time>2021-08-21T17:11:02Z</time>
      </trkpt>
      <trkpt lat="43.15314" lon="3.08749">
        <ele>131.8</ele>
        <time>2021-08-21T17:11:03Z</time>
      </trkpt>
      <trkpt lat="43.15315" lon="3.08743">
        <ele>131.6</ele>
        <time>2021-08-21T17:11:04Z</time>
      </trkpt>
      <trkpt lat="43.15317" lon="3.08736">
        <ele>131.4</ele>
        <time>2021-08-21T17:11:05Z</time>
      </trkpt>
      <trkpt lat="43.15321" lon="3.08722">
        <ele>131</ele>
        <time>2021-08-21T17:11:07Z</time>
      </trkpt>
      <trkpt lat="43.15323" lon="3.08715">
        <ele>130.8</ele>
        <time>2021-08-21T17:11:08Z</time>
      </trkpt>
      <trkpt lat="43.15328" lon="3.08695">
        <ele>130.2</ele>
        <time>2021-08-21T17:11:11Z</time>
      </trkpt>
      <trkpt lat="43.15332" lon="3.08682">
        <ele>130</ele>
        <time>2021-08-21T17:11:13Z</time>
      </trkpt>
      <trkpt lat="43.15336" lon="3.08669">
        <ele>129.8</ele>
        <time>2021-08-21T17:11:15Z</time>
      </trkpt>
      <trkpt lat="43.15344" lon="3.08643">
        <ele>129.6</ele>
        <time>2021-08-21T17:11:19Z</time>
      </trkpt>
      <trkpt lat="43.15348" lon="3.08631">
        <ele>129.4</ele>
        <time>2021-08-21T17:11:21Z</time>
      </trkpt>
      <trkpt lat="43.15359" lon="3.08616">
        <ele>129.4</ele>
        <time>2021-08-21T17:11:24Z</time>
      </trkpt>
      <trkpt lat="43.15367" lon="3.08608">
        <ele>129</ele>
        <time>2021-08-21T17:11:27Z</time>
      </trkpt>
      <trkpt lat="43.15367" lon="3.0859">
        <ele>128.8</ele>
        <time>2021-08-21T17:11:30Z</time>
      </trkpt>
      <trkpt lat="43.15372" lon="3.0857">
        <ele>128.8</ele>
        <time>2021-08-21T17:11:33Z</time>
      </trkpt>
      <trkpt lat="43.15375" lon="3.08556">
        <ele>128.8</ele>
        <time>2021-08-21T17:11:35Z</time>
      </trkpt>
      <trkpt lat="43.15384" lon="3.08507">
        <ele>129.6</ele>
        <time>2021-08-21T17:11:42Z</time>
      </trkpt>
      <trkpt lat="43.15385" lon="3.08492">
        <ele>130</ele>
        <time>2021-08-21T17:11:44Z</time>
      </trkpt>
      <trkpt lat="43.15389" lon="3.08458">
        <ele>130.8</ele>
        <time>2021-08-21T17:11:49Z</time>
      </trkpt>
      <trkpt lat="43.1539" lon="3.08451">
        <ele>131</ele>
        <time>2021-08-21T17:11:50Z</time>
      </trkpt>
      <trkpt lat="43.154" lon="3.08409">
        <ele>132</ele>
        <time>2021-08-21T17:11:56Z</time>
      </trkpt>
      <trkpt lat="43.15408" lon="3.08343">
        <ele>132.8</ele>
        <time>2021-08-21T17:12:05Z</time>
      </trkpt>
      <trkpt lat="43.1541" lon="3.08321">
        <ele>133.2</ele>
        <time>2021-08-21T17:12:08Z</time>
      </trkpt>
      <trkpt lat="43.1541" lon="3.0827">
        <ele>133.8</ele>
        <time>2021-08-21T17:12:15Z</time>
      </trkpt>
      <trkpt lat="43.1541" lon="3.08247">
        <ele>134.2</ele>
        <time>2021-08-21T17:12:18Z</time>
      </trkpt>
      <trkpt lat="43.15411" lon="3.08202">
        <ele>134.4</ele>
        <time>2021-08-21T17:12:24Z</time>
      </trkpt>
      <trkpt lat="43.1541" lon="3.08141">
        <ele>134.4</ele>
        <time>2021-08-21T17:12:32Z</time>
      </trkpt>
      <trkpt lat="43.15405" lon="3.08087">
        <ele>134.4</ele>
        <time>2021-08-21T17:12:39Z</time>
      </trkpt>
      <trkpt lat="43.15406" lon="3.08079">
        <ele>134.4</ele>
        <time>2021-08-21T17:12:40Z</time>
      </trkpt>
      <trkpt lat="43.15411" lon="3.08054">
        <ele>134.4</ele>
        <time>2021-08-21T17:12:43Z</time>
      </trkpt>
      <trkpt lat="43.15416" lon="3.08039">
        <ele>134.2</ele>
        <time>2021-08-21T17:12:45Z</time>
      </trkpt>
      <trkpt lat="43.15422" lon="3.08013">
        <ele>133.4</ele>
        <time>2021-08-21T17:12:48Z</time>
      </trkpt>
      <trkpt lat="43.15423" lon="3.08005">
        <ele>133</ele>
        <time>2021-08-21T17:12:49Z</time>
      </trkpt>
      <trkpt lat="43.15423" lon="3.07971">
        <ele>132.6</ele>
        <time>2021-08-21T17:12:53Z</time>
      </trkpt>
      <trkpt lat="43.15423" lon="3.07963">
        <ele>132.6</ele>
        <time>2021-08-21T17:12:54Z</time>
      </trkpt>
      <trkpt lat="43.15421" lon="3.0789">
        <ele>132.6</ele>
        <time>2021-08-21T17:13:03Z</time>
      </trkpt>
      <trkpt lat="43.1542" lon="3.07821">
        <ele>132.4</ele>
        <time>2021-08-21T17:13:12Z</time>
      </trkpt>
      <trkpt lat="43.15416" lon="3.07777">
        <ele>132.6</ele>
        <time>2021-08-21T17:13:18Z</time>
      </trkpt>
      <trkpt lat="43.15412" lon="3.07723">
        <ele>132.8</ele>
        <time>2021-08-21T17:13:25Z</time>
      </trkpt>
      <trkpt lat="43.15405" lon="3.07663">
        <ele>133.4</ele>
        <time>2021-08-21T17:13:33Z</time>
      </trkpt>
      <trkpt lat="43.154" lon="3.07634">
        <ele>134.2</ele>
        <time>2021-08-21T17:13:37Z</time>
      </trkpt>
      <trkpt lat="43.15394" lon="3.07612">
        <ele>134.6</ele>
        <time>2021-08-21T17:13:40Z</time>
      </trkpt>
      <trkpt lat="43.15393" lon="3.07604">
        <ele>134.6</ele>
        <time>2021-08-21T17:13:41Z</time>
      </trkpt>
      <trkpt lat="43.15391" lon="3.07573">
        <ele>135.4</ele>
        <time>2021-08-21T17:13:45Z</time>
      </trkpt>
      <trkpt lat="43.15387" lon="3.07535">
        <ele>136.4</ele>
        <time>2021-08-21T17:13:50Z</time>
      </trkpt>
      <trkpt lat="43.15386" lon="3.07528">
        <ele>136.6</ele>
        <time>2021-08-21T17:13:51Z</time>
      </trkpt>
      <trkpt lat="43.15388" lon="3.07505">
        <ele>136.8</ele>
        <time>2021-08-21T17:13:54Z</time>
      </trkpt>
      <trkpt lat="43.1539" lon="3.0749">
        <ele>136.8</ele>
        <time>2021-08-21T17:13:56Z</time>
      </trkpt>
      <trkpt lat="43.15394" lon="3.07453">
        <ele>137.6</ele>
        <time>2021-08-21T17:14:01Z</time>
      </trkpt>
      <trkpt lat="43.15396" lon="3.07429">
        <ele>138</ele>
        <time>2021-08-21T17:14:04Z</time>
      </trkpt>
      <trkpt lat="43.15396" lon="3.07376">
        <ele>138</ele>
        <time>2021-08-21T17:14:10Z</time>
      </trkpt>
      <trkpt lat="43.15395" lon="3.07309">
        <ele>136.6</ele>
        <time>2021-08-21T17:14:17Z</time>
      </trkpt>
      <trkpt lat="43.15396" lon="3.07299">
        <ele>136.4</ele>
        <time>2021-08-21T17:14:18Z</time>
      </trkpt>
      <trkpt lat="43.15408" lon="3.07268">
        <ele>136</ele>
        <time>2021-08-21T17:14:22Z</time>
      </trkpt>
      <trkpt lat="43.15411" lon="3.07262">
        <ele>136</ele>
        <time>2021-08-21T17:14:23Z</time>
      </trkpt>
      <trkpt lat="43.1542" lon="3.07242">
        <ele>136</ele>
        <time>2021-08-21T17:14:26Z</time>
      </trkpt>
      <trkpt lat="43.15424" lon="3.07228">
        <ele>136.2</ele>
        <time>2021-08-21T17:14:28Z</time>
      </trkpt>
      <trkpt lat="43.15442" lon="3.07182">
        <ele>137</ele>
        <time>2021-08-21T17:14:35Z</time>
      </trkpt>
      <trkpt lat="43.15464" lon="3.07142">
        <ele>137</ele>
        <time>2021-08-21T17:14:42Z</time>
      </trkpt>
      <trkpt lat="43.15487" lon="3.07094">
        <ele>137.6</ele>
        <time>2021-08-21T17:14:50Z</time>
      </trkpt>
      <trkpt lat="43.15498" lon="3.0707">
        <ele>137.8</ele>
        <time>2021-08-21T17:14:54Z</time>
      </trkpt>
      <trkpt lat="43.15517" lon="3.07031">
        <ele>137.6</ele>
        <time>2021-08-21T17:15:01Z</time>
      </trkpt>
      <trkpt lat="43.15538" lon="3.06992">
        <ele>137</ele>
        <time>2021-08-21T17:15:07Z</time>
      </trkpt>
      <trkpt lat="43.15544" lon="3.06986">
        <ele>136.8</ele>
        <time>2021-08-21T17:15:08Z</time>
      </trkpt>
      <trkpt lat="43.1555" lon="3.06981">
        <ele>136.6</ele>
        <time>2021-08-21T17:15:09Z</time>
      </trkpt>
      <trkpt lat="43.15557" lon="3.06976">
        <ele>136.2</ele>
        <time>2021-08-21T17:15:10Z</time>
      </trkpt>
      <trkpt lat="43.15565" lon="3.06971">
        <ele>135.6</ele>
        <time>2021-08-21T17:15:11Z</time>
      </trkpt>
      <trkpt lat="43.1558" lon="3.06956">
        <ele>133.4</ele>
        <time>2021-08-21T17:15:13Z</time>
      </trkpt>
      <trkpt lat="43.15586" lon="3.06946">
        <ele>132.6</ele>
        <time>2021-08-21T17:15:14Z</time>
      </trkpt>
      <trkpt lat="43.15592" lon="3.06936">
        <ele>132</ele>
        <time>2021-08-21T17:15:15Z</time>
      </trkpt>
      <trkpt lat="43.15604" lon="3.06914">
        <ele>130.8</ele>
        <time>2021-08-21T17:15:17Z</time>
      </trkpt>
      <trkpt lat="43.15608" lon="3.06901">
        <ele>130.2</ele>
        <time>2021-08-21T17:15:18Z</time>
      </trkpt>
      <trkpt lat="43.1561" lon="3.06887">
        <ele>129.6</ele>
        <time>2021-08-21T17:15:19Z</time>
      </trkpt>
      <trkpt lat="43.15616" lon="3.06859">
        <ele>128.2</ele>
        <time>2021-08-21T17:15:21Z</time>
      </trkpt>
      <trkpt lat="43.15625" lon="3.06831">
        <ele>126.8</ele>
        <time>2021-08-21T17:15:23Z</time>
      </trkpt>
      <trkpt lat="43.15636" lon="3.06803">
        <ele>125.4</ele>
        <time>2021-08-21T17:15:25Z</time>
      </trkpt>
      <trkpt lat="43.15646" lon="3.06778">
        <ele>124</ele>
        <time>2021-08-21T17:15:27Z</time>
      </trkpt>
      <trkpt lat="43.15656" lon="3.0676">
        <ele>122.6</ele>
        <time>2021-08-21T17:15:29Z</time>
      </trkpt>
      <trkpt lat="43.15671" lon="3.06753">
        <ele>121.4</ele>
        <time>2021-08-21T17:15:31Z</time>
      </trkpt>
      <trkpt lat="43.15689" lon="3.06756">
        <ele>120.2</ele>
        <time>2021-08-21T17:15:33Z</time>
      </trkpt>
      <trkpt lat="43.15699" lon="3.06757">
        <ele>119.6</ele>
        <time>2021-08-21T17:15:34Z</time>
      </trkpt>
      <trkpt lat="43.15707" lon="3.06755">
        <ele>118.8</ele>
        <time>2021-08-21T17:15:35Z</time>
      </trkpt>
      <trkpt lat="43.15722" lon="3.06741">
        <ele>116.4</ele>
        <time>2021-08-21T17:15:37Z</time>
      </trkpt>
      <trkpt lat="43.15735" lon="3.0673">
        <ele>114.6</ele>
        <time>2021-08-21T17:15:39Z</time>
      </trkpt>
      <trkpt lat="43.15743" lon="3.0673">
        <ele>113.8</ele>
        <time>2021-08-21T17:15:40Z</time>
      </trkpt>
      <trkpt lat="43.15751" lon="3.06733">
        <ele>113</ele>
        <time>2021-08-21T17:15:41Z</time>
      </trkpt>
      <trkpt lat="43.15759" lon="3.06738">
        <ele>112.2</ele>
        <time>2021-08-21T17:15:42Z</time>
      </trkpt>
      <trkpt lat="43.15767" lon="3.06744">
        <ele>111.4</ele>
        <time>2021-08-21T17:15:43Z</time>
      </trkpt>
      <trkpt lat="43.15776" lon="3.06747">
        <ele>110.6</ele>
        <time>2021-08-21T17:15:44Z</time>
      </trkpt>
      <trkpt lat="43.15786" lon="3.0675">
        <ele>109.8</ele>
        <time>2021-08-21T17:15:45Z</time>
      </trkpt>
      <trkpt lat="43.15795" lon="3.06753">
        <ele>108.8</ele>
        <time>2021-08-21T17:15:46Z</time>
      </trkpt>
      <trkpt lat="43.15803" lon="3.06758">
        <ele>107.8</ele>
        <time>2021-08-21T17:15:47Z</time>
      </trkpt>
      <trkpt lat="43.15816" lon="3.06765">
        <ele>106</ele>
        <time>2021-08-21T17:15:49Z</time>
      </trkpt>
      <trkpt lat="43.15822" lon="3.06758">
        <ele>104.2</ele>
        <time>2021-08-21T17:15:51Z</time>
      </trkpt>
      <trkpt lat="43.15817" lon="3.06747">
        <ele>102.6</ele>
        <time>2021-08-21T17:15:53Z</time>
      </trkpt>
      <trkpt lat="43.158" lon="3.06733">
        <ele>101.6</ele>
        <time>2021-08-21T17:15:56Z</time>
      </trkpt>
      <trkpt lat="43.15793" lon="3.06729">
        <ele>101.4</ele>
        <time>2021-08-21T17:15:57Z</time>
      </trkpt>
      <trkpt lat="43.15788" lon="3.06722">
        <ele>101</ele>
        <time>2021-08-21T17:15:58Z</time>
      </trkpt>
      <trkpt lat="43.15785" lon="3.06712">
        <ele>100.6</ele>
        <time>2021-08-21T17:15:59Z</time>
      </trkpt>
      <trkpt lat="43.15786" lon="3.06701">
        <ele>99.8</ele>
        <time>2021-08-21T17:16:00Z</time>
      </trkpt>
      <trkpt lat="43.15789" lon="3.06691">
        <ele>98.2</ele>
        <time>2021-08-21T17:16:01Z</time>
      </trkpt>
      <trkpt lat="43.15794" lon="3.06681">
        <ele>97.4</ele>
        <time>2021-08-21T17:16:02Z</time>
      </trkpt>
      <trkpt lat="43.15796" lon="3.06669">
        <ele>96.6</ele>
        <time>2021-08-21T17:16:03Z</time>
      </trkpt>
      <trkpt lat="43.15794" lon="3.06642">
        <ele>95</ele>
        <time>2021-08-21T17:16:05Z</time>
      </trkpt>
      <trkpt lat="43.15787" lon="3.0662">
        <ele>93.2</ele>
        <time>2021-08-21T17:16:07Z</time>
      </trkpt>
      <trkpt lat="43.15778" lon="3.06612">
        <ele>92.2</ele>
        <time>2021-08-21T17:16:08Z</time>
      </trkpt>
      <trkpt lat="43.15769" lon="3.06604">
        <ele>91.2</ele>
        <time>2021-08-21T17:16:09Z</time>
      </trkpt>
      <trkpt lat="43.15759" lon="3.06597">
        <ele>90.2</ele>
        <time>2021-08-21T17:16:10Z</time>
      </trkpt>
      <trkpt lat="43.15751" lon="3.06589">
        <ele>89</ele>
        <time>2021-08-21T17:16:11Z</time>
      </trkpt>
      <trkpt lat="43.15743" lon="3.06582">
        <ele>87.6</ele>
        <time>2021-08-21T17:16:12Z</time>
      </trkpt>
      <trkpt lat="43.15737" lon="3.06573">
        <ele>86.2</ele>
        <time>2021-08-21T17:16:13Z</time>
      </trkpt>
      <trkpt lat="43.15733" lon="3.06565">
        <ele>84.8</ele>
        <time>2021-08-21T17:16:14Z</time>
      </trkpt>
      <trkpt lat="43.15732" lon="3.06555">
        <ele>83.8</ele>
        <time>2021-08-21T17:16:15Z</time>
      </trkpt>
      <trkpt lat="43.15735" lon="3.06547">
        <ele>83</ele>
        <time>2021-08-21T17:16:16Z</time>
      </trkpt>
      <trkpt lat="43.15741" lon="3.06543">
        <ele>82.4</ele>
        <time>2021-08-21T17:16:17Z</time>
      </trkpt>
      <trkpt lat="43.15745" lon="3.06542">
        <ele>82</ele>
        <time>2021-08-21T17:16:18Z</time>
      </trkpt>
      <trkpt lat="43.15759" lon="3.06545">
        <ele>81.2</ele>
        <time>2021-08-21T17:16:20Z</time>
      </trkpt>
      <trkpt lat="43.15767" lon="3.06547">
        <ele>80.8</ele>
        <time>2021-08-21T17:16:21Z</time>
      </trkpt>
      <trkpt lat="43.15775" lon="3.06547">
        <ele>80.6</ele>
        <time>2021-08-21T17:16:22Z</time>
      </trkpt>
      <trkpt lat="43.15784" lon="3.06548">
        <ele>80</ele>
        <time>2021-08-21T17:16:23Z</time>
      </trkpt>
      <trkpt lat="43.15793" lon="3.06548">
        <ele>79.6</ele>
        <time>2021-08-21T17:16:24Z</time>
      </trkpt>
      <trkpt lat="43.15802" lon="3.06547">
        <ele>78.6</ele>
        <time>2021-08-21T17:16:25Z</time>
      </trkpt>
      <trkpt lat="43.15819" lon="3.06534">
        <ele>77.4</ele>
        <time>2021-08-21T17:16:27Z</time>
      </trkpt>
      <trkpt lat="43.15836" lon="3.06518">
        <ele>75.6</ele>
        <time>2021-08-21T17:16:29Z</time>
      </trkpt>
      <trkpt lat="43.15853" lon="3.065">
        <ele>73.8</ele>
        <time>2021-08-21T17:16:31Z</time>
      </trkpt>
      <trkpt lat="43.15862" lon="3.06492">
        <ele>72.6</ele>
        <time>2021-08-21T17:16:32Z</time>
      </trkpt>
      <trkpt lat="43.15872" lon="3.06487">
        <ele>71.6</ele>
        <time>2021-08-21T17:16:33Z</time>
      </trkpt>
      <trkpt lat="43.15883" lon="3.06486">
        <ele>70.6</ele>
        <time>2021-08-21T17:16:34Z</time>
      </trkpt>
      <trkpt lat="43.15895" lon="3.06487">
        <ele>69.6</ele>
        <time>2021-08-21T17:16:35Z</time>
      </trkpt>
      <trkpt lat="43.15905" lon="3.06488">
        <ele>68.6</ele>
        <time>2021-08-21T17:16:36Z</time>
      </trkpt>
      <trkpt lat="43.15914" lon="3.06486">
        <ele>67.6</ele>
        <time>2021-08-21T17:16:37Z</time>
      </trkpt>
      <trkpt lat="43.15929" lon="3.0647">
        <ele>65.8</ele>
        <time>2021-08-21T17:16:39Z</time>
      </trkpt>
      <trkpt lat="43.15937" lon="3.06444">
        <ele>64.4</ele>
        <time>2021-08-21T17:16:41Z</time>
      </trkpt>
      <trkpt lat="43.15939" lon="3.06416">
        <ele>62.8</ele>
        <time>2021-08-21T17:16:43Z</time>
      </trkpt>
      <trkpt lat="43.15935" lon="3.06403">
        <ele>61.8</ele>
        <time>2021-08-21T17:16:44Z</time>
      </trkpt>
      <trkpt lat="43.1593" lon="3.06391">
        <ele>61</ele>
        <time>2021-08-21T17:16:45Z</time>
      </trkpt>
      <trkpt lat="43.15928" lon="3.06367">
        <ele>59.6</ele>
        <time>2021-08-21T17:16:47Z</time>
      </trkpt>
      <trkpt lat="43.15934" lon="3.06342">
        <ele>58</ele>
        <time>2021-08-21T17:16:49Z</time>
      </trkpt>
      <trkpt lat="43.15938" lon="3.0633">
        <ele>56.6</ele>
        <time>2021-08-21T17:16:50Z</time>
      </trkpt>
      <trkpt lat="43.15941" lon="3.06303">
        <ele>55.2</ele>
        <time>2021-08-21T17:16:52Z</time>
      </trkpt>
      <trkpt lat="43.15942" lon="3.06288">
        <ele>54.4</ele>
        <time>2021-08-21T17:16:53Z</time>
      </trkpt>
      <trkpt lat="43.15943" lon="3.06272">
        <ele>53.4</ele>
        <time>2021-08-21T17:16:54Z</time>
      </trkpt>
      <trkpt lat="43.15946" lon="3.0624">
        <ele>51.4</ele>
        <time>2021-08-21T17:16:56Z</time>
      </trkpt>
      <trkpt lat="43.15949" lon="3.06224">
        <ele>50.2</ele>
        <time>2021-08-21T17:16:57Z</time>
      </trkpt>
      <trkpt lat="43.15952" lon="3.06208">
        <ele>49</ele>
        <time>2021-08-21T17:16:58Z</time>
      </trkpt>
      <trkpt lat="43.15958" lon="3.06192">
        <ele>48</ele>
        <time>2021-08-21T17:16:59Z</time>
      </trkpt>
      <trkpt lat="43.15965" lon="3.06177">
        <ele>47.2</ele>
        <time>2021-08-21T17:17:00Z</time>
      </trkpt>
      <trkpt lat="43.15973" lon="3.06162">
        <ele>46.4</ele>
        <time>2021-08-21T17:17:01Z</time>
      </trkpt>
      <trkpt lat="43.15991" lon="3.06132">
        <ele>44.4</ele>
        <time>2021-08-21T17:17:03Z</time>
      </trkpt>
      <trkpt lat="43.15999" lon="3.06117">
        <ele>43.2</ele>
        <time>2021-08-21T17:17:04Z</time>
      </trkpt>
      <trkpt lat="43.16006" lon="3.061">
        <ele>41.8</ele>
        <time>2021-08-21T17:17:05Z</time>
      </trkpt>
      <trkpt lat="43.16012" lon="3.06084">
        <ele>40.2</ele>
        <time>2021-08-21T17:17:06Z</time>
      </trkpt>
      <trkpt lat="43.16017" lon="3.06066">
        <ele>38.6</ele>
        <time>2021-08-21T17:17:07Z</time>
      </trkpt>
      <trkpt lat="43.16021" lon="3.06049">
        <ele>37</ele>
        <time>2021-08-21T17:17:08Z</time>
      </trkpt>
      <trkpt lat="43.16025" lon="3.06032">
        <ele>35.6</ele>
        <time>2021-08-21T17:17:09Z</time>
      </trkpt>
      <trkpt lat="43.16031" lon="3.06015">
        <ele>34</ele>
        <time>2021-08-21T17:17:10Z</time>
      </trkpt>
      <trkpt lat="43.16039" lon="3.06">
        <ele>32.4</ele>
        <time>2021-08-21T17:17:11Z</time>
      </trkpt>
      <trkpt lat="43.16048" lon="3.05986">
        <ele>31</ele>
        <time>2021-08-21T17:17:12Z</time>
      </trkpt>
      <trkpt lat="43.16057" lon="3.05973">
        <ele>29.4</ele>
        <time>2021-08-21T17:17:13Z</time>
      </trkpt>
      <trkpt lat="43.16069" lon="3.05962">
        <ele>26.2</ele>
        <time>2021-08-21T17:17:14Z</time>
      </trkpt>
      <trkpt lat="43.1608" lon="3.05951">
        <ele>24.8</ele>
        <time>2021-08-21T17:17:15Z</time>
      </trkpt>
      <trkpt lat="43.16091" lon="3.05941">
        <ele>23.4</ele>
        <time>2021-08-21T17:17:16Z</time>
      </trkpt>
      <trkpt lat="43.16099" lon="3.05929">
        <ele>22</ele>
        <time>2021-08-21T17:17:17Z</time>
      </trkpt>
      <trkpt lat="43.16106" lon="3.05914">
        <ele>20.6</ele>
        <time>2021-08-21T17:17:18Z</time>
      </trkpt>
      <trkpt lat="43.16111" lon="3.05897">
        <ele>19.6</ele>
        <time>2021-08-21T17:17:19Z</time>
      </trkpt>
      <trkpt lat="43.16116" lon="3.0588">
        <ele>18.6</ele>
        <time>2021-08-21T17:17:20Z</time>
      </trkpt>
      <trkpt lat="43.16121" lon="3.05863">
        <ele>17.2</ele>
        <time>2021-08-21T17:17:21Z</time>
      </trkpt>
      <trkpt lat="43.16127" lon="3.05845">
        <ele>15.8</ele>
        <time>2021-08-21T17:17:22Z</time>
      </trkpt>
      <trkpt lat="43.16133" lon="3.05828">
        <ele>14.2</ele>
        <time>2021-08-21T17:17:23Z</time>
      </trkpt>
      <trkpt lat="43.16139" lon="3.0581">
        <ele>12.6</ele>
        <time>2021-08-21T17:17:24Z</time>
      </trkpt>
      <trkpt lat="43.16143" lon="3.05795">
        <ele>11.2</ele>
        <time>2021-08-21T17:17:25Z</time>
      </trkpt>
      <trkpt lat="43.16147" lon="3.05783">
        <ele>10</ele>
        <time>2021-08-21T17:17:26Z</time>
      </trkpt>
      <trkpt lat="43.1615" lon="3.05772">
        <ele>9</ele>
        <time>2021-08-21T17:17:27Z</time>
      </trkpt>
      <trkpt lat="43.16157" lon="3.05758">
        <ele>7.6</ele>
        <time>2021-08-21T17:17:29Z</time>
      </trkpt>
      <trkpt lat="43.1617" lon="3.0575">
        <ele>7.2</ele>
        <time>2021-08-21T17:17:32Z</time>
      </trkpt>
      <trkpt lat="43.16174" lon="3.05745">
        <ele>7.2</ele>
        <time>2021-08-21T17:17:33Z</time>
      </trkpt>
      <trkpt lat="43.16177" lon="3.0573">
        <ele>7.2</ele>
        <time>2021-08-21T17:17:35Z</time>
      </trkpt>
      <trkpt lat="43.16176" lon="3.05703">
        <ele>7.4</ele>
        <time>2021-08-21T17:17:38Z</time>
      </trkpt>
      <trkpt lat="43.16185" lon="3.05664">
        <ele>6.6</ele>
        <time>2021-08-21T17:17:42Z</time>
      </trkpt>
      <trkpt lat="43.16189" lon="3.05654">
        <ele>6.2</ele>
        <time>2021-08-21T17:17:43Z</time>
      </trkpt>
      <trkpt lat="43.16198" lon="3.05624">
        <ele>5.4</ele>
        <time>2021-08-21T17:17:46Z</time>
      </trkpt>
      <trkpt lat="43.16212" lon="3.05563">
        <ele>4.8</ele>
        <time>2021-08-21T17:17:52Z</time>
      </trkpt>
      <trkpt lat="43.16226" lon="3.05511">
        <ele>4.4</ele>
        <time>2021-08-21T17:17:57Z</time>
      </trkpt>
      <trkpt lat="43.16233" lon="3.05491">
        <ele>4</ele>
        <time>2021-08-21T17:17:59Z</time>
      </trkpt>
      <trkpt lat="43.16257" lon="3.05424">
        <ele>3.4</ele>
        <time>2021-08-21T17:18:06Z</time>
      </trkpt>
      <trkpt lat="43.16267" lon="3.05398">
        <ele>3</ele>
        <time>2021-08-21T17:18:09Z</time>
      </trkpt>
      <trkpt lat="43.16291" lon="3.0533">
        <ele>3.4</ele>
        <time>2021-08-21T17:18:17Z</time>
      </trkpt>
      <trkpt lat="43.16312" lon="3.0526">
        <ele>3.2</ele>
        <time>2021-08-21T17:18:25Z</time>
      </trkpt>
      <trkpt lat="43.16336" lon="3.05191">
        <ele>2.6</ele>
        <time>2021-08-21T17:18:33Z</time>
      </trkpt>
      <trkpt lat="43.16339" lon="3.05183">
        <ele>2.4</ele>
        <time>2021-08-21T17:18:34Z</time>
      </trkpt>
      <trkpt lat="43.16365" lon="3.05114">
        <ele>2.6</ele>
        <time>2021-08-21T17:18:42Z</time>
      </trkpt>
      <trkpt lat="43.16371" lon="3.05097">
        <ele>2.6</ele>
        <time>2021-08-21T17:18:44Z</time>
      </trkpt>
      <trkpt lat="43.1639" lon="3.05046">
        <ele>2.4</ele>
        <time>2021-08-21T17:18:50Z</time>
      </trkpt>
      <trkpt lat="43.164" lon="3.05021">
        <ele>2.2</ele>
        <time>2021-08-21T17:18:53Z</time>
      </trkpt>
      <trkpt lat="43.16424" lon="3.04952">
        <ele>2.4</ele>
        <time>2021-08-21T17:19:01Z</time>
      </trkpt>
      <trkpt lat="43.16431" lon="3.04935">
        <ele>2.4</ele>
        <time>2021-08-21T17:19:03Z</time>
      </trkpt>
      <trkpt lat="43.16456" lon="3.04865">
        <ele>2</ele>
        <time>2021-08-21T17:19:11Z</time>
      </trkpt>
      <trkpt lat="43.16459" lon="3.04857">
        <ele>2</ele>
        <time>2021-08-21T17:19:12Z</time>
      </trkpt>
      <trkpt lat="43.16483" lon="3.0479">
        <ele>2</ele>
        <time>2021-08-21T17:19:20Z</time>
      </trkpt>
      <trkpt lat="43.16486" lon="3.04782">
        <ele>2</ele>
        <time>2021-08-21T17:19:21Z</time>
      </trkpt>
      <trkpt lat="43.16512" lon="3.04707">
        <ele>2</ele>
        <time>2021-08-21T17:19:30Z</time>
      </trkpt>
      <trkpt lat="43.16515" lon="3.047">
        <ele>2.2</ele>
        <time>2021-08-21T17:19:31Z</time>
      </trkpt>
      <trkpt lat="43.16541" lon="3.04629">
        <ele>2.2</ele>
        <time>2021-08-21T17:19:40Z</time>
      </trkpt>
      <trkpt lat="43.16566" lon="3.0456">
        <ele>2.2</ele>
        <time>2021-08-21T17:19:49Z</time>
      </trkpt>
      <trkpt lat="43.16568" lon="3.04552">
        <ele>2.2</ele>
        <time>2021-08-21T17:19:50Z</time>
      </trkpt>
      <trkpt lat="43.16592" lon="3.04483">
        <ele>2.4</ele>
        <time>2021-08-21T17:19:59Z</time>
      </trkpt>
      <trkpt lat="43.16594" lon="3.04475">
        <ele>2.4</ele>
        <time>2021-08-21T17:20:00Z</time>
      </trkpt>
      <trkpt lat="43.16614" lon="3.04405">
        <ele>2.8</ele>
        <time>2021-08-21T17:20:09Z</time>
      </trkpt>
      <trkpt lat="43.16629" lon="3.04357">
        <ele>2.6</ele>
        <time>2021-08-21T17:20:15Z</time>
      </trkpt>
      <trkpt lat="43.16647" lon="3.04313">
        <ele>2.6</ele>
        <time>2021-08-21T17:20:22Z</time>
      </trkpt>
      <trkpt lat="43.16646" lon="3.04308">
        <ele>2.6</ele>
        <time>2021-08-21T17:20:23Z</time>
      </trkpt>
      <trkpt lat="43.16638" lon="3.04302">
        <ele>2.6</ele>
        <time>2021-08-21T17:20:25Z</time>
      </trkpt>
      <trkpt lat="43.16628" lon="3.04294">
        <ele>2.4</ele>
        <time>2021-08-21T17:20:27Z</time>
      </trkpt>
      <trkpt lat="43.16613" lon="3.04282">
        <ele>2</ele>
        <time>2021-08-21T17:20:30Z</time>
      </trkpt>
      <trkpt lat="43.16574" lon="3.04251">
        <ele>1.2</ele>
        <time>2021-08-21T17:20:38Z</time>
      </trkpt>
      <trkpt lat="43.16532" lon="3.04216">
        <ele>1.4</ele>
        <time>2021-08-21T17:20:48Z</time>
      </trkpt>
      <trkpt lat="43.16531" lon="3.04208">
        <ele>1.6</ele>
        <time>2021-08-21T17:20:50Z</time>
      </trkpt>
      <trkpt lat="43.16532" lon="3.04205">
        <ele>1.6</ele>
        <time>2021-08-21T17:20:51Z</time>
      </trkpt>
      <trkpt lat="43.16543" lon="3.04188">
        <ele>2</ele>
        <time>2021-08-21T17:20:55Z</time>
      </trkpt>
      <trkpt lat="43.16549" lon="3.04164">
        <ele>2</ele>
        <time>2021-08-21T17:21:00Z</time>
      </trkpt>
      <trkpt lat="43.16538" lon="3.04152">
        <ele>2.2</ele>
        <time>2021-08-21T17:21:03Z</time>
      </trkpt>
      <trkpt lat="43.16534" lon="3.04148">
        <ele>2.2</ele>
        <time>2021-08-21T17:21:04Z</time>
      </trkpt>
      <trkpt lat="43.16508" lon="3.04127">
        <ele>2</ele>
        <time>2021-08-21T17:21:10Z</time>
      </trkpt>
      <trkpt lat="43.16473" lon="3.04098">
        <ele>1.8</ele>
        <time>2021-08-21T17:21:18Z</time>
      </trkpt>
      <trkpt lat="43.16434" lon="3.04067">
        <ele>2.2</ele>
        <time>2021-08-21T17:21:27Z</time>
      </trkpt>
      <trkpt lat="43.16404" lon="3.04042">
        <ele>2</ele>
        <time>2021-08-21T17:21:34Z</time>
      </trkpt>
      <trkpt lat="43.16376" lon="3.04018">
        <ele>2.4</ele>
        <time>2021-08-21T17:21:41Z</time>
      </trkpt>
      <trkpt lat="43.16369" lon="3.04011">
        <ele>2.6</ele>
        <time>2021-08-21T17:21:43Z</time>
      </trkpt>
      <trkpt lat="43.16364" lon="3.03998">
        <ele>2.6</ele>
        <time>2021-08-21T17:21:46Z</time>
      </trkpt>
      <trkpt lat="43.16366" lon="3.03994">
        <ele>2.6</ele>
        <time>2021-08-21T17:21:47Z</time>
      </trkpt>
      <trkpt lat="43.16376" lon="3.03985">
        <ele>2.8</ele>
        <time>2021-08-21T17:21:50Z</time>
      </trkpt>
      <trkpt lat="43.16391" lon="3.0397">
        <ele>3</ele>
        <time>2021-08-21T17:21:54Z</time>
      </trkpt>
      <trkpt lat="43.16395" lon="3.0396">
        <ele>3</ele>
        <time>2021-08-21T17:21:56Z</time>
      </trkpt>
      <trkpt lat="43.16396" lon="3.03947">
        <ele>3.2</ele>
        <time>2021-08-21T17:21:58Z</time>
      </trkpt>
      <trkpt lat="43.16397" lon="3.03934">
        <ele>3.2</ele>
        <time>2021-08-21T17:22:00Z</time>
      </trkpt>
      <trkpt lat="43.16404" lon="3.03897">
        <ele>3.4</ele>
        <time>2021-08-21T17:22:07Z</time>
      </trkpt>
      <trkpt lat="43.16407" lon="3.03875">
        <ele>3.4</ele>
        <time>2021-08-21T17:22:11Z</time>
      </trkpt>
      <trkpt lat="43.16406" lon="3.03865">
        <ele>3.4</ele>
        <time>2021-08-21T17:22:13Z</time>
      </trkpt>
      <trkpt lat="43.16405" lon="3.03862">
        <ele>3.4</ele>
        <time>2021-08-21T17:22:14Z</time>
      </trkpt>
      <trkpt lat="43.16403" lon="3.03859">
        <ele>3.4</ele>
        <time>2021-08-21T17:22:16Z</time>
      </trkpt>
      <trkpt lat="43.16403" lon="3.03857">
        <ele>3.6</ele>
        <time>2021-08-21T17:22:17Z</time>
      </trkpt>
      <trkpt lat="43.16403" lon="3.03854">
        <ele>3.6</ele>
        <time>2021-08-21T17:22:18Z</time>
      </trkpt>
      <trkpt lat="43.1641" lon="3.03845">
        <ele>3.8</ele>
        <time>2021-08-21T17:22:21Z</time>
      </trkpt>
      <trkpt lat="43.16424" lon="3.03819">
        <ele>3.6</ele>
        <time>2021-08-21T17:22:27Z</time>
      </trkpt>
      <trkpt lat="43.16444" lon="3.03785">
        <ele>3.6</ele>
        <time>2021-08-21T17:22:34Z</time>
      </trkpt>
      <trkpt lat="43.16448" lon="3.03778">
        <ele>3.6</ele>
        <time>2021-08-21T17:22:35Z</time>
      </trkpt>
      <trkpt lat="43.16469" lon="3.03747">
        <ele>3.6</ele>
        <time>2021-08-21T17:22:41Z</time>
      </trkpt>
      <trkpt lat="43.16496" lon="3.0371">
        <ele>3.4</ele>
        <time>2021-08-21T17:22:48Z</time>
      </trkpt>
      <trkpt lat="43.16532" lon="3.03668">
        <ele>3.6</ele>
        <time>2021-08-21T17:22:57Z</time>
      </trkpt>
      <trkpt lat="43.16564" lon="3.03627">
        <ele>3.8</ele>
        <time>2021-08-21T17:23:05Z</time>
      </trkpt>
      <trkpt lat="43.16596" lon="3.03582">
        <ele>3.8</ele>
        <time>2021-08-21T17:23:12Z</time>
      </trkpt>
      <trkpt lat="43.16632" lon="3.0354">
        <ele>3.8</ele>
        <time>2021-08-21T17:23:20Z</time>
      </trkpt>
      <trkpt lat="43.16663" lon="3.03506">
        <ele>3.8</ele>
        <time>2021-08-21T17:23:27Z</time>
      </trkpt>
      <trkpt lat="43.16703" lon="3.0347">
        <ele>4</ele>
        <time>2021-08-21T17:23:36Z</time>
      </trkpt>
      <trkpt lat="43.16736" lon="3.03442">
        <ele>4</ele>
        <time>2021-08-21T17:23:43Z</time>
      </trkpt>
      <trkpt lat="43.16777" lon="3.03404">
        <ele>4.2</ele>
        <time>2021-08-21T17:23:52Z</time>
      </trkpt>
      <trkpt lat="43.16801" lon="3.03381">
        <ele>4.4</ele>
        <time>2021-08-21T17:23:57Z</time>
      </trkpt>
      <trkpt lat="43.1682" lon="3.03365">
        <ele>4.4</ele>
        <time>2021-08-21T17:24:01Z</time>
      </trkpt>
      <trkpt lat="43.16854" lon="3.03333">
        <ele>4.6</ele>
        <time>2021-08-21T17:24:09Z</time>
      </trkpt>
      <trkpt lat="43.16886" lon="3.03303">
        <ele>4.4</ele>
        <time>2021-08-21T17:24:16Z</time>
      </trkpt>
      <trkpt lat="43.16932" lon="3.0326">
        <ele>4.2</ele>
        <time>2021-08-21T17:24:26Z</time>
      </trkpt>
      <trkpt lat="43.16973" lon="3.03221">
        <ele>4.2</ele>
        <time>2021-08-21T17:24:35Z</time>
      </trkpt>
      <trkpt lat="43.17009" lon="3.03187">
        <ele>4.4</ele>
        <time>2021-08-21T17:24:43Z</time>
      </trkpt>
      <trkpt lat="43.17054" lon="3.03145">
        <ele>4.2</ele>
        <time>2021-08-21T17:24:53Z</time>
      </trkpt>
      <trkpt lat="43.17096" lon="3.03108">
        <ele>4.2</ele>
        <time>2021-08-21T17:25:02Z</time>
      </trkpt>
      <trkpt lat="43.17138" lon="3.0307">
        <ele>4.4</ele>
        <time>2021-08-21T17:25:11Z</time>
      </trkpt>
      <trkpt lat="43.17184" lon="3.03026">
        <ele>4.4</ele>
        <time>2021-08-21T17:25:21Z</time>
      </trkpt>
      <trkpt lat="43.17222" lon="3.02992">
        <ele>4.6</ele>
        <time>2021-08-21T17:25:29Z</time>
      </trkpt>
      <trkpt lat="43.17267" lon="3.02948">
        <ele>4.4</ele>
        <time>2021-08-21T17:25:39Z</time>
      </trkpt>
      <trkpt lat="43.17305" lon="3.02913">
        <ele>4.6</ele>
        <time>2021-08-21T17:25:47Z</time>
      </trkpt>
      <trkpt lat="43.17349" lon="3.02874">
        <ele>4.2</ele>
        <time>2021-08-21T17:25:56Z</time>
      </trkpt>
      <trkpt lat="43.17375" lon="3.0285">
        <ele>4.2</ele>
        <time>2021-08-21T17:26:02Z</time>
      </trkpt>
      <trkpt lat="43.17407" lon="3.02815">
        <ele>4</ele>
        <time>2021-08-21T17:26:09Z</time>
      </trkpt>
      <trkpt lat="43.17433" lon="3.02773">
        <ele>4</ele>
        <time>2021-08-21T17:26:16Z</time>
      </trkpt>
      <trkpt lat="43.17457" lon="3.02727">
        <ele>4.2</ele>
        <time>2021-08-21T17:26:23Z</time>
      </trkpt>
      <trkpt lat="43.17481" lon="3.02691">
        <ele>4.4</ele>
        <time>2021-08-21T17:26:30Z</time>
      </trkpt>
      <trkpt lat="43.17503" lon="3.02637">
        <ele>4.6</ele>
        <time>2021-08-21T17:26:38Z</time>
      </trkpt>
      <trkpt lat="43.17517" lon="3.02587">
        <ele>4.6</ele>
        <time>2021-08-21T17:26:45Z</time>
      </trkpt>
      <trkpt lat="43.17533" lon="3.02542">
        <ele>4.6</ele>
        <time>2021-08-21T17:26:52Z</time>
      </trkpt>
      <trkpt lat="43.17544" lon="3.02508">
        <ele>4.6</ele>
        <time>2021-08-21T17:26:57Z</time>
      </trkpt>
      <trkpt lat="43.17568" lon="3.02447">
        <ele>4.4</ele>
        <time>2021-08-21T17:27:06Z</time>
      </trkpt>
      <trkpt lat="43.17589" lon="3.02392">
        <ele>4.4</ele>
        <time>2021-08-21T17:27:14Z</time>
      </trkpt>
      <trkpt lat="43.17612" lon="3.02324">
        <ele>4.2</ele>
        <time>2021-08-21T17:27:23Z</time>
      </trkpt>
      <trkpt lat="43.17615" lon="3.02316">
        <ele>4.2</ele>
        <time>2021-08-21T17:27:24Z</time>
      </trkpt>
      <trkpt lat="43.17636" lon="3.02255">
        <ele>4.4</ele>
        <time>2021-08-21T17:27:33Z</time>
      </trkpt>
      <trkpt lat="43.17657" lon="3.022">
        <ele>4.4</ele>
        <time>2021-08-21T17:27:41Z</time>
      </trkpt>
      <trkpt lat="43.1768" lon="3.02137">
        <ele>4.4</ele>
        <time>2021-08-21T17:27:50Z</time>
      </trkpt>
      <trkpt lat="43.17702" lon="3.02075">
        <ele>4.6</ele>
        <time>2021-08-21T17:27:59Z</time>
      </trkpt>
      <trkpt lat="43.17727" lon="3.02006">
        <ele>4.6</ele>
        <time>2021-08-21T17:28:09Z</time>
      </trkpt>
      <trkpt lat="43.17729" lon="3.02">
        <ele>4.6</ele>
        <time>2021-08-21T17:28:10Z</time>
      </trkpt>
      <trkpt lat="43.17734" lon="3.01987">
        <ele>4.6</ele>
        <time>2021-08-21T17:28:12Z</time>
      </trkpt>
      <trkpt lat="43.17744" lon="3.01965">
        <ele>4.6</ele>
        <time>2021-08-21T17:28:16Z</time>
      </trkpt>
      <trkpt lat="43.17751" lon="3.01948">
        <ele>4.6</ele>
        <time>2021-08-21T17:28:19Z</time>
      </trkpt>
      <trkpt lat="43.17759" lon="3.01923">
        <ele>4.8</ele>
        <time>2021-08-21T17:28:23Z</time>
      </trkpt>
      <trkpt lat="43.17773" lon="3.01885">
        <ele>4.8</ele>
        <time>2021-08-21T17:28:29Z</time>
      </trkpt>
      <trkpt lat="43.17791" lon="3.01832">
        <ele>4.8</ele>
        <time>2021-08-21T17:28:37Z</time>
      </trkpt>
      <trkpt lat="43.17815" lon="3.01769">
        <ele>4.8</ele>
        <time>2021-08-21T17:28:46Z</time>
      </trkpt>
      <trkpt lat="43.17834" lon="3.01716">
        <ele>4.6</ele>
        <time>2021-08-21T17:28:54Z</time>
      </trkpt>
      <trkpt lat="43.17848" lon="3.0168">
        <ele>4.6</ele>
        <time>2021-08-21T17:29:00Z</time>
      </trkpt>
      <trkpt lat="43.17867" lon="3.01624">
        <ele>4.6</ele>
        <time>2021-08-21T17:29:08Z</time>
      </trkpt>
      <trkpt lat="43.17882" lon="3.01562">
        <ele>4.4</ele>
        <time>2021-08-21T17:29:16Z</time>
      </trkpt>
      <trkpt lat="43.17897" lon="3.01515">
        <ele>4.4</ele>
        <time>2021-08-21T17:29:23Z</time>
      </trkpt>
      <trkpt lat="43.179" lon="3.01508">
        <ele>4.4</ele>
        <time>2021-08-21T17:29:24Z</time>
      </trkpt>
      <trkpt lat="43.17915" lon="3.01477">
        <ele>4.4</ele>
        <time>2021-08-21T17:29:29Z</time>
      </trkpt>
      <trkpt lat="43.17946" lon="3.01434">
        <ele>4.4</ele>
        <time>2021-08-21T17:29:37Z</time>
      </trkpt>
      <trkpt lat="43.1798" lon="3.01392">
        <ele>4.8</ele>
        <time>2021-08-21T17:29:45Z</time>
      </trkpt>
      <trkpt lat="43.17987" lon="3.0138">
        <ele>4.8</ele>
        <time>2021-08-21T17:29:47Z</time>
      </trkpt>
      <trkpt lat="43.17995" lon="3.0136">
        <ele>4.8</ele>
        <time>2021-08-21T17:29:50Z</time>
      </trkpt>
      <trkpt lat="43.18005" lon="3.01336">
        <ele>4.8</ele>
        <time>2021-08-21T17:29:54Z</time>
      </trkpt>
      <trkpt lat="43.18008" lon="3.01331">
        <ele>4.8</ele>
        <time>2021-08-21T17:29:55Z</time>
      </trkpt>
      <trkpt lat="43.1802" lon="3.01324">
        <ele>4.8</ele>
        <time>2021-08-21T17:29:58Z</time>
      </trkpt>
      <trkpt lat="43.18029" lon="3.01324">
        <ele>4.8</ele>
        <time>2021-08-21T17:30:00Z</time>
      </trkpt>
      <trkpt lat="43.1804" lon="3.01321">
        <ele>5.4</ele>
        <time>2021-08-21T17:30:03Z</time>
      </trkpt>
      <trkpt lat="43.18047" lon="3.01304">
        <ele>5.6</ele>
        <time>2021-08-21T17:30:06Z</time>
      </trkpt>
      <trkpt lat="43.18048" lon="3.01289">
        <ele>5.6</ele>
        <time>2021-08-21T17:30:08Z</time>
      </trkpt>
      <trkpt lat="43.1805" lon="3.01257">
        <ele>5.4</ele>
        <time>2021-08-21T17:30:12Z</time>
      </trkpt>
      <trkpt lat="43.1805" lon="3.01242">
        <ele>5.4</ele>
        <time>2021-08-21T17:30:14Z</time>
      </trkpt>
      <trkpt lat="43.18055" lon="3.01232">
        <ele>5.2</ele>
        <time>2021-08-21T17:30:16Z</time>
      </trkpt>
      <trkpt lat="43.18072" lon="3.01231">
        <ele>5.2</ele>
        <time>2021-08-21T17:30:19Z</time>
      </trkpt>
      <trkpt lat="43.18084" lon="3.01235">
        <ele>5.2</ele>
        <time>2021-08-21T17:30:21Z</time>
      </trkpt>
      <trkpt lat="43.18101" lon="3.01243">
        <ele>5.2</ele>
        <time>2021-08-21T17:30:24Z</time>
      </trkpt>
      <trkpt lat="43.18104" lon="3.01249">
        <ele>5.2</ele>
        <time>2021-08-21T17:30:25Z</time>
      </trkpt>
      <trkpt lat="43.18151" lon="3.01298">
        <ele>5.4</ele>
        <time>2021-08-21T17:30:35Z</time>
      </trkpt>
      <trkpt lat="43.18199" lon="3.01336">
        <ele>5.2</ele>
        <time>2021-08-21T17:30:44Z</time>
      </trkpt>
      <trkpt lat="43.18247" lon="3.01373">
        <ele>4.8</ele>
        <time>2021-08-21T17:30:53Z</time>
      </trkpt>
      <trkpt lat="43.18252" lon="3.01377">
        <ele>4.8</ele>
        <time>2021-08-21T17:30:54Z</time>
      </trkpt>
      <trkpt lat="43.18278" lon="3.01397">
        <ele>4.4</ele>
        <time>2021-08-21T17:30:59Z</time>
      </trkpt>
      <trkpt lat="43.18303" lon="3.01417">
        <ele>4.2</ele>
        <time>2021-08-21T17:31:04Z</time>
      </trkpt>
      <trkpt lat="43.18336" lon="3.01442">
        <ele>4</ele>
        <time>2021-08-21T17:31:11Z</time>
      </trkpt>
      <trkpt lat="43.18349" lon="3.01448">
        <ele>4.2</ele>
        <time>2021-08-21T17:31:15Z</time>
      </trkpt>
      <trkpt lat="43.18363" lon="3.01436">
        <ele>4.4</ele>
        <time>2021-08-21T17:31:19Z</time>
      </trkpt>
      <trkpt lat="43.18374" lon="3.01418">
        <ele>4.4</ele>
        <time>2021-08-21T17:31:22Z</time>
      </trkpt>
      <trkpt lat="43.1838" lon="3.01404">
        <ele>4.4</ele>
        <time>2021-08-21T17:31:24Z</time>
      </trkpt>
      <trkpt lat="43.18382" lon="3.01396">
        <ele>4.4</ele>
        <time>2021-08-21T17:31:25Z</time>
      </trkpt>
      <trkpt lat="43.18392" lon="3.01377">
        <ele>4.4</ele>
        <time>2021-08-21T17:31:28Z</time>
      </trkpt>
      <trkpt lat="43.18419" lon="3.01336">
        <ele>4.4</ele>
        <time>2021-08-21T17:31:35Z</time>
      </trkpt>
      <trkpt lat="43.18452" lon="3.01285">
        <ele>4.2</ele>
        <time>2021-08-21T17:31:44Z</time>
      </trkpt>
      <trkpt lat="43.1849" lon="3.01231">
        <ele>4.8</ele>
        <time>2021-08-21T17:31:54Z</time>
      </trkpt>
      <trkpt lat="43.18498" lon="3.01222">
        <ele>4.8</ele>
        <time>2021-08-21T17:31:56Z</time>
      </trkpt>
      <trkpt lat="43.18512" lon="3.01206">
        <ele>5.2</ele>
        <time>2021-08-21T17:32:00Z</time>
      </trkpt>
      <trkpt lat="43.18518" lon="3.01202">
        <ele>5.2</ele>
        <time>2021-08-21T17:32:02Z</time>
      </trkpt>
      <trkpt lat="43.18521" lon="3.01203">
        <ele>5.2</ele>
        <time>2021-08-21T17:32:03Z</time>
      </trkpt>
      <trkpt lat="43.18525" lon="3.01205">
        <ele>5.4</ele>
        <time>2021-08-21T17:32:06Z</time>
      </trkpt>
      <trkpt lat="43.18527" lon="3.01204">
        <ele>5.8</ele>
        <time>2021-08-21T17:32:08Z</time>
      </trkpt>
      <trkpt lat="43.18533" lon="3.012">
        <ele>6</ele>
        <time>2021-08-21T17:32:13Z</time>
      </trkpt>
      <trkpt lat="43.18534" lon="3.01198">
        <ele>6.2</ele>
        <time>2021-08-21T17:32:18Z</time>
      </trkpt>
    </trkseg>
  </trk>
</gpx>